[[{"header":{"parameterUnit":"m.s-1","parameterCategory":1,"la1":31.0,"la2":29.5877,"lo1":-88.7671,"lo2":-86.6584,"dy":0.0162,"dx":0.0185,"nx":115,"ny":88,"refTime":"2024-04-08T06:00:00:Z","depth":0,"parameterNumber":2,"parameterNumberName":"U-component_of_WINDS"},"data":[0.0,0.0,0.0,0.0,0.0,0.0,0.0,0.0,0.0,0.0,0.0,0.0,0.0,0.0,0.0,0.0,0.0,0.0,0.0,0.0,0.0,0.0,0.0,0.0,0.0,0.0,0.0,0.0,0.0,0.0,0.0,0.0,0.0,0.0,0.0,0.0,0.0,0.0,0.0,0.0,0.0,0.0,0.0,0.0,0.0,0.0,0.0,0.0,0.0,0.0,0.0,0.0,0.0,0.0,0.0,0.0,0.0,0.0,0.0,0.0,0.0,0.0,0.0,0.0,0.0,0.0,0.0,0.0,0.0,0.0,0.0,0.0,0.0,0.0,0.0,0.0,0.0,0.0,0.0,0.0,0.0,0.0,0.0,0.0,0.0,0.0,0.0,0.0,0.0,0.0,0.0,0.0,0.0,0.0,0.0,0.0,0.0,0.0,0.0,0.0,0.0,0.0,0.0,0.0,0.0,0.0,0.0,0.0,0.0,0.0,0.0,0.0,0.0,0.0,0.0,0.0,0.0,0.0,0.0,0.0,0.0,0.0,0.0,0.0,0.0,0.0,0.0,0.0,0.0,0.0,0.0,0.0,0.0,0.0,0.0,0.0,0.0,0.0,0.0,0.0,0.0,0.0,0.0,0.0,0.0,0.0,0.0,0.0,0.0,0.0,0.0,0.0,0.0,0.0,0.0,0.0,0.0,0.0,0.0,0.0,0.0,0.0,0.0,0.0,0.0,0.0,0.0,0.0,0.0,0.0,0.0,0.0,0.0,0.0,0.0,0.0,0.0,0.0,0.0,0.0,0.0,0.0,0.0,0.0,0.0,0.0,0.0,0.0,0.0,0.0,0.0,0.0,0.0,0.0,0.0,0.0,0.0,0.0,0.0,0.0,0.0,0.0,0.0,0.0,0.0,0.0,0.0,0.0,0.0,0.0,0.0,0.0,0.0,0.0,0.0,0.0,0.0,0.0,0.0,0.0,0.0,0.0,0.0,0.0,0.0,0.0,0.0,0.0,0.0,0.0,0.0,0.0,0.0,0.0,0.0,0.0,0.0,0.0,0.0,0.0,0.0,0.0,0.0,0.0,0.0,0.0,0.0,0.0,0.0,0.0,0.0,0.0,0.0,0.0,0.0,0.0,0.0,0.0,0.0,0.0,0.0,0.0,0.0,0.0,0.0,0.0,0.0,0.0,0.0,0.0,0.0,0.0,0.0,0.0,0.0,0.0,0.0,0.0,0.0,0.0,0.0,0.0,0.0,0.0,0.0,0.0,0.0,0.0,0.0,0.0,0.0,0.0,0.0,0.0,0.0,0.0,0.0,0.0,0.0,0.0,0.0,0.0,0.0,0.0,0.0,0.0,0.0,0.0,0.0,0.0,0.0,0.0,0.0,0.0,0.0,0.0,0.0,0.0,0.0,0.0,0.0,0.0,0.0,0.0,0.0,0.0,0.0,0.0,0.0,0.0,0.0,0.0,0.0,0.0,0.0,0.0,0.0,0.0,0.0,0.0,0.0,0.0,0.0,0.0,0.0,0.0,0.0,0.0,0.0,0.0,0.0,0.0,0.0,0.0,0.0,0.0,0.0,0.0,0.0,0.0,0.0,0.0,0.0,0.0,0.0,0.0,0.0,0.0,0.0,0.0,0.0,0.0,0.0,0.0,0.0,0.0,0.0,0.0,0.0,0.0,0.0,0.0,0.0,0.0,0.0,0.0,0.0,0.0,0.0,0.0,0.0,0.0,0.0,0.0,0.0,0.0,0.0,0.0,0.0,0.0,0.0,0.0,0.0,0.0,0.0,0.0,0.0,0.0,0.0,0.0,0.0,0.0,0.0,0.0,0.0,0.0,0.0,0.0,0.0,0.0,0.0,0.0,0.0,0.0,0.0,0.0,0.0,0.0,0.0,0.0,0.0,0.0,0.0,0.0,0.0,0.0,0.0,0.0,0.0,0.0,0.0,0.0,0.0,0.0,0.0,0.0,0.0,0.0,0.0,0.0,0.0,0.0,0.0,0.0,0.0,0.0,0.0,0.0,0.0,0.0,0.0,0.0,0.0,0.0,0.0,0.0,0.0,0.0,0.0,0.0,0.0,0.0,0.0,0.0,0.0,0.0,0.0,0.0,0.0,0.0,0.0,0.0,0.0,0.0,0.0,0.0,0.0,0.0,0.0,0.0,0.0,0.0,0.0,0.0,0.0,0.0,0.0,0.0,0.0,0.0,0.0,0.0,0.0,0.0,0.0,0.0,0.0,0.0,0.0,0.0,0.0,0.0,0.0,0.0,0.0,0.0,0.0,0.0,0.0,0.0,0.0,0.0,0.0,0.0,0.0,0.0,0.0,0.0,0.0,0.0,0.0,0.0,0.0,0.0,0.0,0.0,0.0,0.0,0.0,0.0,0.0,0.0,0.0,0.0,0.0,0.0,0.0,0.0,0.0,0.0,0.0,0.0,0.0,0.0,0.0,0.0,0.0,0.0,0.0,0.0,0.0,0.0,0.0,0.0,0.0,0.0,0.0,0.0,0.0,0.0,0.0,0.0,0.0,0.0,0.0,0.0,0.0,0.0,0.0,0.0,0.0,0.0,0.0,0.0,0.0,0.0,0.0,0.0,0.0,0.0,0.0,0.0,0.0,0.0,0.0,0.0,0.0,0.0,0.0,0.0,0.0,0.0,0.0,0.0,0.0,0.0,0.0,0.0,0.0,0.0,0.0,0.0,0.0,0.0,0.0,0.0,0.0,0.0,0.0,0.0,0.0,0.0,0.0,0.0,0.0,0.0,0.0,0.0,0.0,0.0,0.0,0.0,0.0,0.0,0.0,0.0,0.0,0.0,0.0,0.0,0.0,0.0,0.0,0.0,0.0,0.0,0.0,0.0,0.0,0.0,0.0,0.0,0.0,0.0,0.0,0.0,0.0,0.0,0.0,0.0,0.0,0.0,0.0,0.0,0.0,0.0,0.0,0.0,0.0,0.0,0.0,0.0,0.0,0.0,0.0,0.0,0.0,0.0,0.0,0.0,0.0,0.0,0.0,0.0,0.0,0.0,0.0,0.0,0.0,0.0,0.0,0.0,0.0,0.0,0.0,0.0,0.0,0.0,0.0,0.0,0.0,0.0,0.0,0.0,0.0,0.0,0.0,0.0,0.0,0.0,0.0,0.0,0.0,0.0,0.0,0.0,0.0,0.0,0.0,0.0,0.0,0.0,0.0,0.0,0.0,0.0,0.0,0.0,0.0,0.0,0.0,0.0,0.0,0.0,0.0,0.0,0.0,0.0,0.0,0.0,0.0,0.0,0.0,0.0,0.0,0.0,0.0,0.0,0.0,0.0,0.0,0.0,0.0,0.0,0.0,0.0,0.0,0.0,0.0,0.0,0.0,0.0,0.0,0.0,0.0,0.0,0.0,0.0,0.0,0.0,0.0,0.0,0.0,0.0,0.0,0.0,0.0,0.0,0.0,0.0,0.0,0.0,0.0,0.0,0.0,0.0,0.0,0.0,0.0,0.0,0.0,0.0,0.0,0.0,0.0,0.0,0.0,0.0,0.0,0.0,0.0,0.0,0.0,0.0,0.0,0.0,0.0,0.0,0.0,0.0,0.0,0.0,0.0,0.0,0.0,0.0,0.0,0.0,0.0,0.0,0.0,0.0,0.0,0.0,0.0,0.0,0.0,0.0,0.0,0.0,0.0,0.0,0.0,0.0,0.0,0.0,0.0,0.0,0.0,0.0,0.0,0.0,0.0,0.0,0.0,0.0,0.0,0.0,0.0,0.0,0.0,0.0,0.0,0.0,0.0,0.0,0.0,0.0,0.0,0.0,0.0,0.0,0.0,0.0,0.0,0.0,0.0,0.0,0.0,0.0,0.0,0.0,0.0,0.0,0.0,0.0,0.0,0.0,0.0,0.0,0.0,0.0,0.0,0.0,0.0,0.0,0.0,0.0,0.0,0.0,0.0,0.0,0.0,0.0,0.0,0.0,0.0,0.0,0.0,0.0,0.0,0.0,0.0,0.0,0.0,0.0,0.0,0.0,0.0,0.0,0.0,0.0,0.0,0.0,0.0,0.0,0.0,0.0,0.0,0.0,0.0,0.0,0.0,0.0,0.0,0.0,0.0,0.0,0.0,0.0,0.0,0.0,0.0,0.0,0.0,0.0,0.0,0.0,0.0,0.0,0.0,0.0,0.0,0.0,0.0,0.0,0.0,0.0,0.0,0.0,0.0,0.0,0.0,0.0,0.0,0.0,0.0,0.0,0.0,0.0,0.0,0.0,0.0,0.0,0.0,0.0,-4.1383,0.0,0.0,0.0,0.0,0.0,0.0,0.0,0.0,0.0,0.0,0.0,0.0,0.0,0.0,0.0,0.0,0.0,0.0,0.0,0.0,0.0,0.0,0.0,0.0,0.0,0.0,0.0,0.0,0.0,0.0,0.0,0.0,0.0,0.0,0.0,0.0,0.0,0.0,0.0,0.0,0.0,0.0,0.0,0.0,0.0,0.0,0.0,0.0,0.0,0.0,0.0,0.0,0.0,0.0,0.0,0.0,0.0,0.0,0.0,0.0,0.0,0.0,0.0,0.0,0.0,0.0,0.0,0.0,0.0,0.0,0.0,0.0,0.0,0.0,0.0,0.0,0.0,0.0,0.0,0.0,0.0,0.0,0.0,0.0,0.0,0.0,0.0,0.0,0.0,0.0,0.0,0.0,0.0,0.0,0.0,0.0,0.0,0.0,0.0,0.0,0.0,0.0,0.0,0.0,0.0,0.0,0.0,0.0,0.0,0.0,-4.2837,-4.2744,-4.2681,-4.2294,-4.1644,0.0,0.0,0.0,0.0,0.0,0.0,0.0,0.0,0.0,0.0,0.0,0.0,0.0,0.0,0.0,0.0,0.0,0.0,0.0,0.0,0.0,0.0,0.0,0.0,0.0,0.0,0.0,0.0,0.0,0.0,0.0,0.0,0.0,0.0,0.0,0.0,0.0,0.0,0.0,0.0,0.0,0.0,0.0,0.0,0.0,0.0,0.0,0.0,0.0,0.0,0.0,0.0,0.0,0.0,0.0,0.0,0.0,0.0,0.0,0.0,0.0,0.0,0.0,0.0,0.0,0.0,0.0,0.0,0.0,0.0,0.0,0.0,0.0,0.0,0.0,0.0,0.0,0.0,0.0,0.0,0.0,0.0,0.0,0.0,0.0,0.0,0.0,0.0,0.0,0.0,0.0,0.0,0.0,0.0,0.0,0.0,0.0,0.0,0.0,0.0,0.0,0.0,0.0,0.0,0.0,0.0,0.0,0.0,0.0,0.0,0.0,0.0,-4.2619,-4.2327,-4.1871,0.0,0.0,0.0,0.0,0.0,0.0,0.0,0.0,0.0,0.0,0.0,0.0,0.0,0.0,0.0,0.0,0.0,0.0,0.0,0.0,0.0,0.0,0.0,0.0,0.0,0.0,0.0,0.0,0.0,0.0,0.0,0.0,0.0,0.0,0.0,0.0,0.0,0.0,0.0,0.0,0.0,0.0,0.0,0.0,0.0,0.0,0.0,0.0,0.0,0.0,0.0,0.0,0.0,0.0,0.0,0.0,0.0,0.0,0.0,0.0,0.0,0.0,0.0,0.0,0.0,0.0,0.0,0.0,0.0,0.0,0.0,0.0,0.0,0.0,0.0,0.0,0.0,0.0,0.0,0.0,0.0,0.0,0.0,0.0,0.0,0.0,0.0,0.0,0.0,0.0,0.0,0.0,0.0,0.0,0.0,0.0,0.0,0.0,0.0,0.0,0.0,0.0,0.0,0.0,0.0,0.0,0.0,0.0,0.0,0.0,-4.2618,-4.2619,-4.2619,0.0,-4.2489,0.0,0.0,0.0,0.0,0.0,0.0,0.0,0.0,0.0,0.0,0.0,0.0,0.0,0.0,0.0,0.0,0.0,0.0,0.0,0.0,0.0,0.0,0.0,0.0,0.0,0.0,0.0,0.0,0.0,0.0,0.0,0.0,0.0,0.0,0.0,0.0,0.0,0.0,0.0,0.0,0.0,0.0,0.0,0.0,0.0,0.0,0.0,0.0,0.0,0.0,0.0,0.0,0.0,0.0,0.0,0.0,0.0,0.0,0.0,0.0,0.0,0.0,0.0,0.0,0.0,0.0,0.0,0.0,0.0,0.0,0.0,0.0,0.0,0.0,0.0,0.0,0.0,0.0,0.0,0.0,0.0,0.0,0.0,0.0,0.0,0.0,0.0,0.0,0.0,0.0,0.0,0.0,0.0,0.0,0.0,0.0,0.0,0.0,0.0,0.0,0.0,0.0,0.0,0.0,0.0,0.0,0.0,0.0,0.0,0.0,-4.2619,-4.2619,-4.2619,-4.2619,0.0,0.0,0.0,0.0,0.0,0.0,0.0,0.0,0.0,0.0,0.0,0.0,0.0,0.0,0.0,0.0,0.0,0.0,0.0,0.0,0.0,0.0,0.0,0.0,0.0,0.0,0.0,0.0,0.0,0.0,0.0,0.0,0.0,0.0,0.0,0.0,0.0,0.0,0.0,0.0,0.0,0.0,0.0,0.0,0.0,0.0,0.0,0.0,0.0,0.0,0.0,0.0,0.0,0.0,0.0,0.0,0.0,0.0,0.0,0.0,0.0,0.0,0.0,0.0,0.0,0.0,0.0,0.0,0.0,0.0,0.0,0.0,0.0,0.0,0.0,0.0,0.0,0.0,0.0,0.0,0.0,0.0,0.0,0.0,0.0,0.0,0.0,0.0,0.0,0.0,0.0,0.0,0.0,0.0,0.0,0.0,0.0,0.0,0.0,0.0,0.0,0.0,0.0,0.0,0.0,0.0,0.0,0.0,0.0,0.0,-4.2973,-4.2877,-4.2877,-4.2716,-4.2619,-4.2619,0.0,0.0,0.0,0.0,0.0,0.0,0.0,0.0,0.0,0.0,0.0,0.0,0.0,0.0,0.0,0.0,0.0,0.0,0.0,0.0,0.0,0.0,0.0,0.0,0.0,0.0,0.0,0.0,0.0,0.0,0.0,0.0,0.0,0.0,0.0,0.0,0.0,0.0,0.0,0.0,0.0,0.0,0.0,0.0,0.0,0.0,0.0,0.0,0.0,0.0,0.0,0.0,0.0,0.0,0.0,0.0,0.0,0.0,0.0,0.0,0.0,0.0,0.0,0.0,0.0,0.0,0.0,0.0,0.0,0.0,0.0,0.0,0.0,0.0,0.0,0.0,0.0,0.0,0.0,0.0,0.0,0.0,0.0,0.0,0.0,0.0,0.0,0.0,0.0,0.0,0.0,0.0,0.0,0.0,0.0,0.0,0.0,0.0,0.0,0.0,0.0,0.0,0.0,0.0,0.0,0.0,0.0,0.0,-4.3654,-4.3654,-4.3654,-4.3654,-4.2975,-4.2619,0.0,0.0,0.0,0.0,0.0,0.0,0.0,0.0,0.0,0.0,0.0,0.0,0.0,0.0,0.0,0.0,0.0,0.0,0.0,0.0,0.0,0.0,0.0,0.0,0.0,0.0,0.0,0.0,0.0,0.0,0.0,0.0,0.0,0.0,0.0,0.0,0.0,0.0,0.0,0.0,0.0,0.0,0.0,0.0,0.0,0.0,0.0,0.0,0.0,0.0,0.0,0.0,0.0,0.0,0.0,0.0,0.0,0.0,0.0,0.0,0.0,0.0,0.0,0.0,0.0,0.0,0.0,0.0,0.0,0.0,0.0,0.0,0.0,0.0,0.0,0.0,0.0,0.0,0.0,0.0,0.0,0.0,0.0,0.0,0.0,0.0,0.0,0.0,0.0,0.0,0.0,0.0,0.0,0.0,0.0,0.0,0.0,0.0,0.0,0.0,0.0,0.0,0.0,0.0,0.0,0.0,0.0,0.0,0.0,-4.4399,-4.4399,-4.4204,-4.3719,-4.3428,-4.3072,0.0,0.0,0.0,0.0,0.0,0.0,0.0,0.0,0.0,0.0,0.0,0.0,0.0,0.0,0.0,0.0,0.0,0.0,0.0,0.0,0.0,0.0,0.0,0.0,0.0,0.0,0.0,0.0,0.0,0.0,0.0,0.0,0.0,0.0,0.0,0.0,0.0,0.0,0.0,0.0,0.0,0.0,0.0,0.0,0.0,0.0,0.0,0.0,0.0,0.0,0.0,0.0,0.0,0.0,0.0,0.0,0.0,0.0,0.0,0.0,0.0,0.0,0.0,0.0,0.0,0.0,0.0,0.0,0.0,0.0,0.0,0.0,0.0,0.0,0.0,0.0,0.0,0.0,0.0,0.0,0.0,0.0,0.0,0.0,0.0,0.0,0.0,0.0,0.0,0.0,0.0,0.0,0.0,0.0,0.0,0.0,0.0,0.0,0.0,0.0,0.0,0.0,0.0,0.0,0.0,0.0,0.0,0.0,0.0,-4.5111,0.0,-4.4885,-4.4399,-4.3945,-4.346,0.0,0.0,0.0,0.0,0.0,0.0,0.0,0.0,0.0,0.0,0.0,0.0,0.0,0.0,0.0,0.0,0.0,0.0,0.0,0.0,0.0,0.0,0.0,0.0,0.0,0.0,0.0,0.0,0.0,0.0,0.0,0.0,0.0,0.0,0.0,0.0,0.0,0.0,0.0,0.0,0.0,0.0,0.0,0.0,0.0,0.0,0.0,0.0,0.0,0.0,0.0,0.0,0.0,0.0,0.0,0.0,0.0,0.0,0.0,0.0,0.0,0.0,0.0,0.0,0.0,0.0,0.0,0.0,0.0,0.0,0.0,0.0,0.0,0.0,0.0,0.0,0.0,0.0,0.0,0.0,0.0,0.0,0.0,0.0,0.0,0.0,0.0,0.0,0.0,0.0,0.0,0.0,0.0,0.0,0.0,0.0,0.0,0.0,0.0,0.0,0.0,0.0,0.0,0.0,0.0,0.0,0.0,0.0,-4.5824,-4.5824,-4.5824,-4.5824,-4.5791,-4.4528,-4.3751,0.0,0.0,0.0,0.0,0.0,0.0,0.0,0.0,0.0,0.0,0.0,0.0,0.0,0.0,0.0,0.0,0.0,0.0,0.0,0.0,0.0,0.0,0.0,0.0,0.0,0.0,0.0,0.0,0.0,0.0,0.0,0.0,0.0,0.0,0.0,0.0,0.0,0.0,0.0,0.0,0.0,0.0,0.0,0.0,0.0,0.0,0.0,0.0,0.0,0.0,0.0,0.0,0.0,0.0,0.0,0.0,0.0,0.0,0.0,0.0,0.0,0.0,0.0,0.0,0.0,0.0,0.0,0.0,0.0,0.0,0.0,0.0,0.0,0.0,0.0,0.0,0.0,0.0,0.0,0.0,0.0,0.0,0.0,0.0,0.0,0.0,0.0,0.0,0.0,0.0,0.0,0.0,0.0,0.0,0.0,0.0,0.0,0.0,0.0,0.0,0.0,0.0,0.0,0.0,0.0,0.0,0.0,0.0,0.0,-4.7346,-4.7346,-4.7087,-4.6568,-4.6115,-4.5208,0.0,0.0,0.0,0.0,0.0,0.0,0.0,0.0,0.0,0.0,0.0,0.0,0.0,0.0,0.0,0.0,0.0,0.0,0.0,0.0,0.0,0.0,0.0,0.0,0.0,0.0,0.0,0.0,0.0,0.0,0.0,0.0,0.0,0.0,0.0,0.0,0.0,0.0,0.0,0.0,0.0,0.0,0.0,0.0,0.0,0.0,0.0,0.0,0.0,0.0,0.0,0.0,0.0,0.0,0.0,0.0,0.0,0.0,0.0,0.0,0.0,0.0,0.0,0.0,0.0,0.0,0.0,0.0,0.0,0.0,0.0,0.0,0.0,0.0,0.0,0.0,0.0,0.0,0.0,0.0,0.0,0.0,0.0,0.0,0.0,0.0,0.0,0.0,0.0,0.0,0.0,0.0,0.0,0.0,0.0,0.0,0.0,0.0,0.0,0.0,0.0,0.0,0.0,0.0,0.0,0.0,0.0,0.0,0.0,-4.9657,-4.917,-4.8683,-4.8232,-4.7712,-4.6604,-4.4949,0.0,0.0,0.0,0.0,0.0,0.0,0.0,0.0,0.0,0.0,0.0,0.0,0.0,0.0,0.0,0.0,0.0,0.0,0.0,0.0,0.0,0.0,0.0,0.0,0.0,0.0,0.0,0.0,0.0,0.0,0.0,0.0,0.0,0.0,0.0,0.0,0.0,0.0,0.0,0.0,0.0,0.0,0.0,0.0,0.0,0.0,0.0,0.0,0.0,0.0,0.0,0.0,0.0,0.0,0.0,0.0,0.0,0.0,0.0,0.0,0.0,0.0,0.0,0.0,0.0,0.0,0.0,0.0,0.0,0.0,0.0,0.0,0.0,0.0,0.0,0.0,0.0,0.0,0.0,0.0,0.0,0.0,0.0,0.0,0.0,0.0,0.0,0.0,0.0,0.0,0.0,0.0,0.0,0.0,0.0,0.0,0.0,0.0,0.0,0.0,0.0,0.0,0.0,0.0,0.0,0.0,0.0,0.0,-5.2807,-5.1569,-5.0819,-5.0558,-4.9287,-4.8042,0.0,0.0,0.0,0.0,0.0,0.0,0.0,0.0,0.0,0.0,0.0,0.0,0.0,0.0,0.0,0.0,0.0,0.0,0.0,0.0,0.0,0.0,0.0,0.0,0.0,0.0,0.0,0.0,0.0,0.0,0.0,0.0,0.0,0.0,0.0,0.0,0.0,0.0,0.0,0.0,0.0,0.0,0.0,0.0,0.0,0.0,0.0,0.0,0.0,0.0,0.0,0.0,0.0,0.0,0.0,0.0,0.0,0.0,0.0,0.0,0.0,0.0,0.0,0.0,0.0,0.0,0.0,0.0,0.0,0.0,0.0,0.0,0.0,0.0,0.0,0.0,0.0,0.0,0.0,0.0,0.0,0.0,0.0,0.0,0.0,0.0,0.0,0.0,0.0,0.0,0.0,0.0,0.0,0.0,0.0,0.0,0.0,0.0,0.0,0.0,0.0,0.0,0.0,0.0,0.0,0.0,0.0,0.0,0.0,-5.5603,-5.6385,-5.5553,-5.3133,-5.2039,-5.0395,0.0,0.0,0.0,0.0,0.0,0.0,0.0,0.0,0.0,0.0,0.0,0.0,0.0,0.0,0.0,0.0,0.0,0.0,0.0,0.0,0.0,0.0,0.0,0.0,0.0,0.0,0.0,0.0,0.0,0.0,0.0,0.0,0.0,0.0,0.0,0.0,0.0,0.0,0.0,0.0,0.0,0.0,0.0,0.0,0.0,0.0,0.0,0.0,0.0,0.0,0.0,0.0,0.0,0.0,0.0,0.0,0.0,0.0,0.0,0.0,0.0,0.0,0.0,0.0,0.0,0.0,0.0,0.0,0.0,0.0,0.0,0.0,0.0,0.0,0.0,0.0,0.0,0.0,0.0,0.0,0.0,0.0,0.0,0.0,0.0,0.0,0.0,0.0,0.0,0.0,0.0,0.0,0.0,0.0,0.0,0.0,0.0,0.0,0.0,0.0,0.0,0.0,0.0,0.0,0.0,0.0,0.0,0.0,-5.5084,-5.7688,-5.9447,-5.9304,-5.7134,-5.5077,-5.2704,0.0,0.0,0.0,0.0,0.0,0.0,0.0,0.0,0.0,0.0,0.0,0.0,0.0,0.0,0.0,0.0,0.0,0.0,0.0,0.0,0.0,0.0,0.0,0.0,0.0,0.0,0.0,0.0,0.0,0.0,0.0,0.0,0.0,0.0,0.0,0.0,0.0,0.0,0.0,0.0,0.0,0.0,0.0,0.0,0.0,0.0,0.0,0.0,0.0,0.0,0.0,0.0,0.0,0.0,0.0,0.0,0.0,0.0,0.0,0.0,0.0,0.0,0.0,0.0,0.0,0.0,0.0,0.0,0.0,0.0,0.0,0.0,0.0,0.0,0.0,0.0,0.0,0.0,0.0,0.0,0.0,0.0,0.0,0.0,0.0,0.0,0.0,0.0,0.0,0.0,0.0,0.0,0.0,0.0,0.0,0.0,0.0,0.0,0.0,0.0,0.0,0.0,0.0,0.0,0.0,0.0,0.0,0.0,-5.6614,-5.9339,-6.1422,-6.2293,-6.172,-5.8032,-5.4905,0.0,0.0,0.0,0.0,0.0,0.0,0.0,0.0,0.0,0.0,0.0,0.0,0.0,0.0,0.0,0.0,0.0,0.0,0.0,0.0,0.0,0.0,0.0,0.0,0.0,0.0,0.0,0.0,0.0,0.0,0.0,0.0,0.0,0.0,0.0,0.0,0.0,0.0,0.0,0.0,0.0,0.0,0.0,0.0,0.0,0.0,0.0,0.0,0.0,0.0,0.0,0.0,0.0,0.0,0.0,0.0,0.0,0.0,0.0,0.0,0.0,0.0,0.0,0.0,0.0,0.0,0.0,0.0,0.0,0.0,0.0,0.0,0.0,0.0,0.0,0.0,0.0,0.0,0.0,0.0,0.0,0.0,0.0,0.0,0.0,0.0,0.0,0.0,0.0,0.0,0.0,0.0,0.0,0.0,0.0,0.0,0.0,0.0,0.0,0.0,0.0,0.0,0.0,0.0,0.0,0.0,0.0,0.0,-5.8868,-6.201,-6.3585,-6.4377,-6.4182,-5.9816,-5.645,0.0,0.0,0.0,0.0,0.0,0.0,0.0,0.0,0.0,0.0,0.0,0.0,0.0,0.0,0.0,0.0,0.0,0.0,0.0,0.0,0.0,0.0,0.0,0.0,0.0,0.0,0.0,0.0,0.0,0.0,0.0,0.0,0.0,0.0,0.0,0.0,0.0,0.0,0.0,0.0,0.0,0.0,0.0,0.0,0.0,0.0,0.0,0.0,-5.5854,0.0,0.0,0.0,0.0,0.0,0.0,0.0,0.0,0.0,0.0,0.0,0.0,0.0,0.0,0.0,0.0,0.0,0.0,0.0,0.0,0.0,0.0,0.0,0.0,0.0,0.0,0.0,0.0,0.0,0.0,0.0,0.0,0.0,0.0,0.0,0.0,0.0,0.0,0.0,0.0,0.0,0.0,0.0,0.0,0.0,0.0,0.0,0.0,0.0,0.0,0.0,0.0,0.0,0.0,0.0,0.0,0.0,0.0,0.0,-6.0109,-6.3344,-6.4801,-6.5384,-6.493,-6.1925,-5.9037,0.0,0.0,0.0,0.0,0.0,0.0,0.0,0.0,0.0,0.0,0.0,0.0,0.0,0.0,0.0,0.0,0.0,0.0,0.0,0.0,0.0,0.0,0.0,0.0,0.0,0.0,0.0,0.0,0.0,0.0,0.0,0.0,0.0,0.0,0.0,0.0,0.0,0.0,0.0,0.0,0.0,0.0,0.0,0.0,0.0,0.0,0.0,0.0,0.0,0.0,0.0,0.0,0.0,0.0,0.0,0.0,0.0,0.0,0.0,0.0,0.0,0.0,0.0,0.0,0.0,0.0,0.0,0.0,0.0,0.0,0.0,0.0,0.0,0.0,0.0,0.0,0.0,0.0,0.0,0.0,0.0,0.0,0.0,0.0,0.0,0.0,0.0,0.0,0.0,0.0,0.0,0.0,0.0,0.0,0.0,0.0,0.0,0.0,0.0,0.0,0.0,0.0,0.0,0.0,0.0,0.0,0.0,-5.8325,-6.1087,-6.4332,-6.5675,-6.6031,-6.5513,-6.3879,-6.1639,-5.8771,0.0,0.0,0.0,0.0,0.0,0.0,0.0,0.0,0.0,0.0,0.0,0.0,0.0,0.0,0.0,0.0,0.0,0.0,0.0,0.0,0.0,0.0,0.0,0.0,0.0,0.0,0.0,0.0,0.0,0.0,0.0,0.0,0.0,0.0,0.0,0.0,0.0,0.0,-5.2457,-5.4112,0.0,0.0,0.0,0.0,0.0,0.0,0.0,0.0,-5.57,0.0,0.0,0.0,0.0,0.0,0.0,0.0,0.0,0.0,0.0,0.0,0.0,0.0,0.0,0.0,0.0,0.0,0.0,0.0,0.0,0.0,0.0,0.0,0.0,0.0,0.0,0.0,0.0,0.0,0.0,0.0,0.0,0.0,0.0,0.0,0.0,0.0,0.0,0.0,0.0,0.0,0.0,0.0,0.0,0.0,0.0,0.0,0.0,0.0,0.0,0.0,0.0,0.0,0.0,0.0,0.0,-5.762,-5.969,-6.2681,-6.655,-6.6906,-6.723,-6.7586,-6.4965,-6.252,-6.0384,0.0,0.0,0.0,0.0,0.0,0.0,0.0,0.0,0.0,0.0,0.0,0.0,0.0,0.0,0.0,0.0,0.0,0.0,0.0,0.0,0.0,0.0,0.0,0.0,0.0,0.0,0.0,0.0,0.0,0.0,0.0,0.0,0.0,0.0,0.0,0.0,0.0,0.0,0.0,-5.4959,-5.5969,0.0,0.0,0.0,0.0,0.0,0.0,0.0,0.0,-5.569,0.0,0.0,0.0,0.0,0.0,0.0,0.0,0.0,0.0,0.0,0.0,0.0,0.0,0.0,0.0,0.0,0.0,0.0,0.0,0.0,0.0,0.0,0.0,0.0,0.0,0.0,0.0,0.0,0.0,0.0,0.0,0.0,0.0,0.0,0.0,0.0,0.0,0.0,0.0,0.0,0.0,0.0,0.0,0.0,0.0,0.0,0.0,0.0,0.0,0.0,0.0,0.0,0.0,0.0,0.0,-5.7688,-6.021,-6.2972,-6.6091,-6.6928,-6.7121,-6.667,-6.4784,-6.2413,0.0,0.0,0.0,0.0,0.0,0.0,0.0,0.0,0.0,0.0,0.0,0.0,0.0,0.0,0.0,0.0,0.0,0.0,0.0,0.0,0.0,0.0,0.0,0.0,0.0,0.0,0.0,0.0,0.0,0.0,0.0,0.0,0.0,0.0,0.0,0.0,0.0,0.0,0.0,0.0,-5.605,-5.6787,-5.7156,0.0,0.0,0.0,0.0,0.0,0.0,-5.688,-5.6592,0.0,0.0,0.0,0.0,0.0,0.0,0.0,0.0,0.0,0.0,0.0,0.0,0.0,0.0,0.0,0.0,0.0,0.0,0.0,0.0,0.0,0.0,0.0,0.0,0.0,0.0,0.0,0.0,0.0,0.0,0.0,0.0,0.0,0.0,0.0,0.0,0.0,0.0,0.0,0.0,0.0,0.0,0.0,0.0,0.0,0.0,0.0,0.0,0.0,0.0,0.0,0.0,0.0,0.0,0.0,-5.7639,-6.0503,-6.3091,-6.5376,-6.6369,-6.6338,-6.5249,-6.3993,-6.167,0.0,0.0,0.0,0.0,0.0,0.0,0.0,0.0,0.0,0.0,0.0,0.0,0.0,0.0,0.0,0.0,0.0,0.0,0.0,0.0,0.0,0.0,0.0,0.0,0.0,0.0,0.0,0.0,0.0,0.0,0.0,0.0,0.0,0.0,0.0,0.0,0.0,0.0,0.0,0.0,0.0,-5.777,-5.8152,-5.8428,0.0,0.0,0.0,0.0,-5.7819,-5.8373,0.0,0.0,0.0,0.0,0.0,0.0,0.0,0.0,0.0,0.0,0.0,0.0,0.0,0.0,0.0,0.0,0.0,0.0,0.0,0.0,0.0,0.0,0.0,0.0,0.0,0.0,0.0,0.0,0.0,0.0,0.0,0.0,0.0,0.0,0.0,0.0,0.0,0.0,0.0,0.0,0.0,0.0,0.0,0.0,0.0,0.0,0.0,0.0,0.0,0.0,0.0,0.0,0.0,0.0,0.0,0.0,-5.7942,-6.0927,-6.3588,-6.5859,-6.5382,-6.5017,-6.5062,-6.2488,-5.9961,0.0,0.0,0.0,0.0,0.0,0.0,0.0,0.0,0.0,0.0,0.0,0.0,0.0,0.0,0.0,0.0,0.0,0.0,0.0,0.0,0.0,0.0,0.0,0.0,0.0,0.0,0.0,0.0,0.0,0.0,0.0,0.0,0.0,0.0,0.0,0.0,0.0,0.0,0.0,0.0,0.0,-5.8849,-5.9251,-5.9342,-5.9388,0.0,0.0,-5.9673,-6.0795,-6.1519,0.0,0.0,0.0,0.0,0.0,0.0,0.0,0.0,0.0,0.0,0.0,0.0,0.0,0.0,0.0,0.0,0.0,0.0,0.0,0.0,0.0,0.0,0.0,0.0,0.0,0.0,0.0,0.0,0.0,0.0,0.0,0.0,0.0,0.0,0.0,0.0,0.0,0.0,0.0,0.0,0.0,0.0,0.0,0.0,0.0,0.0,0.0,0.0,0.0,0.0,0.0,0.0,0.0,0.0,0.0,-5.524,-5.7556,-6.0177,-6.2411,-6.4173,-6.4218,-6.3966,-6.3302,-6.13,-5.9082,0.0,0.0,0.0,0.0,0.0,0.0,0.0,0.0,0.0,0.0,0.0,0.0,0.0,0.0,0.0,0.0,0.0,0.0,0.0,0.0,0.0,0.0,0.0,0.0,0.0,0.0,0.0,0.0,0.0,0.0,0.0,0.0,0.0,0.0,0.0,0.0,0.0,0.0,0.0,0.0,0.0,0.0,-6.0116,-6.0753,0.0,0.0,0.0,-6.0902,-6.147,0.0,0.0,0.0,0.0,0.0,0.0,0.0,0.0,0.0,0.0,0.0,0.0,0.0,0.0,0.0,0.0,0.0,0.0,0.0,0.0,0.0,0.0,0.0,0.0,0.0,0.0,0.0,0.0,0.0,0.0,0.0,0.0,0.0,0.0,0.0,0.0,0.0,0.0,0.0,0.0,0.0,0.0,0.0,0.0,0.0,0.0,0.0,0.0,0.0,0.0,0.0,0.0,0.0,0.0,0.0,0.0,0.0,-5.7031,-5.9455,-6.1393,-6.269,-6.2882,-6.2521,-6.1569,-6.0012,0.0,0.0,0.0,0.0,0.0,0.0,0.0,0.0,0.0,0.0,0.0,0.0,0.0,0.0,0.0,0.0,0.0,0.0,0.0,0.0,0.0,0.0,0.0,0.0,0.0,0.0,0.0,-4.7762,0.0,0.0,0.0,0.0,0.0,0.0,0.0,0.0,0.0,0.0,0.0,0.0,0.0,0.0,-6.0681,-6.1067,-6.1994,-6.2558,0.0,0.0,-6.2173,-6.2202,-6.1997,-6.1466,0.0,0.0,0.0,0.0,0.0,0.0,0.0,0.0,0.0,0.0,0.0,0.0,0.0,0.0,0.0,0.0,0.0,0.0,0.0,0.0,0.0,0.0,0.0,0.0,0.0,0.0,0.0,0.0,0.0,0.0,0.0,0.0,0.0,0.0,0.0,0.0,0.0,0.0,0.0,0.0,0.0,0.0,0.0,0.0,0.0,0.0,0.0,0.0,0.0,0.0,0.0,0.0,0.0,0.0,-5.4797,-5.6614,-5.9199,-6.1186,-6.2435,-6.1175,-6.0501,-6.0621,-5.8313,-5.6236,0.0,0.0,0.0,0.0,0.0,0.0,0.0,0.0,0.0,0.0,0.0,0.0,0.0,0.0,0.0,0.0,0.0,0.0,0.0,0.0,0.0,0.0,0.0,0.0,0.0,0.0,0.0,0.0,0.0,0.0,0.0,0.0,0.0,0.0,0.0,0.0,0.0,0.0,0.0,0.0,0.0,-6.1294,-6.2288,-6.2765,-6.3207,0.0,-6.3826,-6.3855,-6.3826,-6.5329,-6.527,-6.1615,0.0,0.0,0.0,0.0,0.0,0.0,0.0,0.0,0.0,0.0,0.0,0.0,0.0,0.0,0.0,0.0,0.0,0.0,0.0,0.0,0.0,0.0,0.0,0.0,0.0,0.0,0.0,0.0,0.0,0.0,0.0,0.0,0.0,0.0,0.0,0.0,0.0,0.0,0.0,0.0,0.0,0.0,0.0,0.0,0.0,0.0,0.0,0.0,0.0,0.0,0.0,0.0,0.0,-5.411,-5.6118,-5.8508,-6.0384,-6.1614,-6.0704,-6.0063,-5.9798,-5.8249,-5.6523,0.0,0.0,0.0,0.0,0.0,0.0,0.0,0.0,0.0,0.0,0.0,0.0,0.0,0.0,0.0,0.0,0.0,0.0,0.0,0.0,0.0,0.0,0.0,0.0,0.0,0.0,0.0,0.0,-4.6948,-4.7129,-4.7551,0.0,0.0,0.0,0.0,0.0,0.0,0.0,0.0,0.0,0.0,-6.1903,-6.3559,-6.4229,0.0,0.0,-6.5191,-6.5161,-6.4461,-6.4451,-6.4041,-6.2289,-6.0676,0.0,0.0,0.0,0.0,0.0,0.0,0.0,0.0,0.0,0.0,0.0,0.0,0.0,0.0,0.0,0.0,0.0,0.0,0.0,0.0,0.0,0.0,0.0,0.0,0.0,0.0,0.0,0.0,0.0,0.0,0.0,0.0,0.0,0.0,0.0,0.0,0.0,0.0,0.0,0.0,0.0,0.0,0.0,0.0,0.0,0.0,0.0,0.0,0.0,0.0,0.0,0.0,-5.3339,-5.5504,-5.7619,-5.9335,-6.0584,-6.0177,-5.9713,-5.9306,-5.82,-5.6881,0.0,0.0,0.0,0.0,0.0,0.0,0.0,0.0,0.0,0.0,0.0,0.0,0.0,0.0,0.0,0.0,0.0,0.0,0.0,0.0,0.0,0.0,0.0,0.0,0.0,0.0,0.0,0.0,-4.7116,-4.7429,-4.8263,0.0,0.0,0.0,0.0,0.0,0.0,0.0,0.0,0.0,0.0,-6.244,-6.4279,-6.4969,-6.5314,-6.5314,-6.5693,-6.5699,-6.476,-6.3902,-6.3171,-6.2543,0.0,0.0,0.0,0.0,0.0,0.0,0.0,0.0,0.0,0.0,0.0,0.0,0.0,0.0,0.0,0.0,0.0,0.0,0.0,0.0,0.0,0.0,0.0,0.0,0.0,0.0,0.0,-5.0716,0.0,0.0,-4.9627,0.0,0.0,0.0,0.0,0.0,0.0,0.0,0.0,0.0,0.0,0.0,0.0,0.0,0.0,0.0,0.0,0.0,0.0,0.0,0.0,0.0,0.0,-5.2599,-5.4914,-5.6543,-5.8058,-5.9364,-5.9335,-5.9335,-5.9277,-5.8,-5.6834,-5.5796,0.0,0.0,0.0,0.0,0.0,0.0,0.0,0.0,0.0,0.0,0.0,0.0,0.0,0.0,0.0,0.0,0.0,0.0,0.0,0.0,0.0,0.0,0.0,0.0,0.0,0.0,-4.9134,-4.8984,-4.9177,0.0,0.0,0.0,0.0,0.0,0.0,0.0,0.0,0.0,-6.0182,-6.1674,-6.3047,-6.4301,-6.478,-6.5025,-6.5025,-6.5054,-6.5025,-6.5031,-6.4415,-6.3574,0.0,0.0,0.0,0.0,0.0,0.0,0.0,0.0,0.0,0.0,0.0,0.0,0.0,0.0,0.0,0.0,0.0,0.0,0.0,0.0,0.0,0.0,0.0,0.0,0.0,0.0,0.0,-5.2053,-5.1523,0.0,0.0,0.0,0.0,0.0,0.0,0.0,0.0,0.0,0.0,0.0,-5.0961,-5.0804,0.0,0.0,0.0,0.0,0.0,0.0,0.0,0.0,0.0,0.0,0.0,0.0,-5.3311,-5.523,-5.7069,-5.8813,-6.0467,-5.9742,-5.951,-5.9858,-5.8639,-5.6984,-5.4973,0.0,0.0,0.0,0.0,0.0,0.0,0.0,0.0,0.0,0.0,0.0,0.0,0.0,0.0,0.0,0.0,0.0,0.0,0.0,0.0,0.0,0.0,0.0,0.0,0.0,-4.9413,0.0,0.0,0.0,0.0,0.0,0.0,0.0,0.0,0.0,0.0,-5.6805,-5.8297,-6.0618,-6.1515,-6.2658,-6.4483,-6.5073,-6.5427,0.0,0.0,0.0,0.0,0.0,0.0,0.0,0.0,0.0,0.0,0.0,0.0,0.0,0.0,-5.983,-5.7241,-5.672,-5.681,-5.7245,0.0,0.0,0.0,0.0,0.0,0.0,0.0,0.0,0.0,0.0,0.0,0.0,0.0,0.0,-5.1692,-5.1259,-5.1146,0.0,0.0,0.0,0.0,0.0,0.0,0.0,0.0,-5.0909,-5.1053,-5.1323,-5.1124,-5.0896,-5.0622,-5.0019,-4.9453,0.0,0.0,0.0,0.0,0.0,0.0,0.0,0.0,-5.339,-5.5068,-5.6781,-5.8464,-6.0061,-5.9626,-5.9597,-6.0148,-5.8958,-5.7332,-5.5242,-5.4269,-5.2887,0.0,0.0,0.0,0.0,0.0,0.0,0.0,0.0,0.0,0.0,0.0,0.0,0.0,0.0,0.0,0.0,0.0,0.0,0.0,0.0,0.0,0.0,0.0,-5.0639,0.0,0.0,0.0,0.0,0.0,0.0,0.0,0.0,0.0,-5.6388,-5.7488,-5.8929,-6.0754,-6.1256,-6.2193,-6.4279,0.0,0.0,0.0,0.0,0.0,0.0,0.0,-6.5042,-6.47,-6.4009,-6.3511,-6.382,-6.3704,-6.3497,-6.3371,0.0,0.0,-5.9799,-5.9306,-5.9364,-5.9568,-6.0148,-6.0671,-6.0816,-6.1396,-6.1861,0.0,0.0,0.0,0.0,-5.2584,0.0,0.0,0.0,-5.094,-5.0571,0.0,-4.9802,0.0,0.0,0.0,0.0,-4.9851,-5.0004,0.0,0.0,-5.112,-5.167,-5.2209,-5.2017,-5.1744,-5.1512,-5.12,-5.0628,-4.9795,-4.849,0.0,0.0,0.0,0.0,0.0,0.0,-5.2865,-5.4492,-5.5852,-5.7071,-5.8406,-5.8987,-5.9597,-6.0148,-5.9016,-5.7739,-5.6461,-5.4633,-5.3402,-5.2931,-5.1227,0.0,0.0,0.0,0.0,0.0,0.0,0.0,0.0,0.0,0.0,0.0,0.0,0.0,0.0,0.0,0.0,0.0,0.0,0.0,0.0,-5.2377,0.0,0.0,0.0,0.0,0.0,0.0,0.0,0.0,0.0,-5.6852,-5.7133,-5.8318,-5.9611,-6.0758,0.0,0.0,0.0,0.0,-6.3207,-6.392,-6.4536,-6.5134,-6.5397,-6.5462,-6.5593,-6.5824,0.0,0.0,-6.5491,-6.4907,-6.4433,-6.4079,-6.4136,-6.3873,-6.3328,-6.3018,-6.2848,-6.2354,-6.2732,-6.2935,-6.247,-6.2877,-6.3225,-5.625,0.0,0.0,0.0,0.0,-5.0923,-5.0513,-5.0825,-5.0637,-5.0246,-4.9807,-5.0223,0.0,0.0,0.0,0.0,0.0,0.0,-5.0543,-5.1531,-5.157,-5.177,-5.2098,-5.1933,-5.179,-5.1708,-5.1176,-5.0812,-5.0562,-4.9705,-4.8874,-4.7999,0.0,0.0,0.0,0.0,-5.3872,-5.4858,-5.6099,-5.7685,-5.9626,-5.9422,-5.9597,-6.0177,-5.9422,-5.8406,-5.71,-5.6113,-5.4865,-5.3431,-5.282,0.0,0.0,0.0,0.0,0.0,0.0,0.0,0.0,0.0,0.0,0.0,0.0,0.0,0.0,0.0,0.0,0.0,0.0,0.0,-5.1944,-5.215,-5.2218,0.0,0.0,0.0,0.0,0.0,0.0,0.0,0.0,0.0,-5.7917,-5.8631,-5.9623,0.0,0.0,-6.1302,-6.2309,-6.3318,-6.3874,-6.3784,-6.5193,0.0,-6.5973,-6.6222,-6.6425,-6.6293,-6.6404,-6.6519,-6.6385,-6.6585,-6.6757,-6.6593,-6.6622,-6.6575,-6.6347,-6.5023,-6.4236,-6.4381,-6.4804,-6.5228,-6.546,-6.5344,-6.5112,-5.7541,-5.5399,-5.3865,-5.2859,-5.2223,-5.0819,-5.0461,-5.0834,-5.0405,-5.0126,-4.996,-5.0008,-4.9853,-4.9484,-5.0242,0.0,0.0,0.0,-5.0623,-5.15,-5.1432,-5.1587,-5.1893,-5.1861,-5.1899,-5.2124,-5.1787,-5.159,-5.159,-5.0972,-5.0146,-4.9155,0.0,-4.9845,-5.008,-5.2554,-5.4182,-5.4842,-5.6336,-5.7945,-5.9594,-5.9915,-6.0235,-6.0555,-5.9742,-5.8929,-5.8116,-5.7013,-5.5736,-5.4342,-5.3791,-5.2914,0.0,0.0,0.0,0.0,0.0,0.0,0.0,0.0,0.0,0.0,0.0,-5.1165,-5.1431,0.0,0.0,0.0,-5.3018,-5.3055,-5.2665,-5.2949,0.0,0.0,0.0,0.0,0.0,0.0,0.0,-5.6791,-5.7196,-5.7914,-5.9459,-6.0102,-6.0606,-6.0999,-6.0879,-6.1002,-6.1946,0.0,-6.3308,-6.3764,-6.5114,-6.6307,-6.6514,-6.7056,-6.74,-6.7199,-6.7314,-6.7233,-6.7056,-6.7272,-6.7403,-6.7293,-6.7264,-6.7293,-6.7264,-6.6286,-6.5555,-6.5888,-6.6248,-6.6504,-6.6685,-6.6433,-6.6244,-5.8235,-5.6757,-5.5287,-5.3699,-5.2121,-5.1121,-5.0774,-5.0995,-5.0299,-5.0118,-5.0299,-4.953,-4.9874,-5.1116,-5.1052,0.0,-5.0753,-5.0569,-5.0618,-5.0944,-5.0944,-5.1253,-5.1787,-5.1843,-5.218,-5.2714,-5.2714,-5.2714,-5.2658,-5.2068,-5.1506,-5.0997,-5.0646,-5.0909,-5.1689,-5.2969,-5.3911,-5.4482,-5.6308,-5.774,-5.8752,-6.0231,-6.0988,-6.1017,-5.9887,-5.9219,-5.9161,-5.7448,-5.6171,-5.5503,-5.4371,-5.3413,-5.271,0.0,0.0,0.0,0.0,0.0,0.0,0.0,0.0,0.0,0.0,0.0,0.0,0.0,0.0,-5.3414,-5.3954,0.0,-5.3628,-5.4278,0.0,0.0,0.0,-5.5466,-5.5395,-5.5475,-5.5968,-5.7326,0.0,0.0,-6.1338,-6.2138,-6.2068,-6.0833,-6.0686,-6.1112,-6.2199,-6.1996,-6.2165,-6.3625,-6.4708,-6.5724,-6.6771,-6.7649,-6.8169,-6.8169,-6.8313,-6.7913,-6.7403,-6.7264,-6.7084,-6.6875,-6.6707,-6.6651,-6.6651,-6.6858,-6.7134,-6.6754,-6.7064,-6.7219,-6.6862,-6.6772,-6.668,-6.0248,-5.7045,-5.6637,-5.4788,-5.2042,-5.0709,-5.0209,-5.0247,-5.0065,-5.0013,-5.0094,-5.035,-5.0882,-5.1579,-5.0671,-5.0703,-5.1525,-5.102,-5.1107,-5.1562,-5.1562,-5.1646,-5.1787,-5.2264,-5.2574,-5.2714,-5.2714,-5.2714,-5.2686,-5.2068,-5.1702,-5.1562,-5.1476,-5.1358,-5.1158,-5.3043,-5.409,-5.4175,-5.5594,-5.7019,-5.8398,-5.9068,-5.959,-6.0023,-5.9074,-5.8552,-5.8523,-5.7623,-5.681,-5.62,-5.5881,-5.4981,-5.3355,-5.3007,0.0,0.0,0.0,0.0,0.0,0.0,0.0,0.0,0.0,-5.2858,-5.3502,0.0,-5.3892,0.0,-5.4054,-5.367,-5.3492,-5.3659,0.0,0.0,-5.5731,-5.6361,-5.6094,-5.6061,-5.6791,-5.8608,-5.8327,-5.874,-6.0863,-6.2052,-6.2582,-6.2151,-6.2604,-6.2715,-6.1871,-6.3183,-6.3711,-6.2867,-6.4744,-6.6384,-6.6146,-6.7248,-6.8284,-6.8313,-6.8051,-6.7776,-6.7638,-6.7541,-6.7541,-6.7443,-6.7033,-6.6777,-6.6748,-6.6817,-6.6857,-6.6879,-6.7466,-6.8093,-6.819,-6.7542,-6.6825,-6.0527,-5.7446,-5.6809,-5.4919,-5.2238,-5.1243,-5.0829,-5.0829,-5.0519,-5.0575,-5.0857,-5.1112,-5.1478,-5.1731,-5.1084,-5.114,-5.1731,-5.145,-5.145,-5.1787,-5.1787,-5.1787,-5.1815,-5.2405,-5.2714,-5.2714,-5.2995,-5.2967,-5.2686,-5.2377,-5.204,-5.1787,-5.1787,-5.1618,-5.1419,-5.2768,-5.3613,-5.3951,-5.5564,-5.6899,-5.8042,-5.8398,-5.8807,-5.9241,-5.8494,-5.8118,-5.829,-5.7419,-5.6607,-5.5997,-5.5707,-5.4923,-5.3617,-5.3239,-5.2804,0.0,0.0,0.0,0.0,0.0,0.0,0.0,0.0,0.0,0.0,0.0,-5.5017,-5.551,-5.4928,-5.4619,-5.4892,-5.492,-5.5297,-5.6226,-5.7097,-5.7615,-5.7394,-5.7342,-5.7992,-5.9659,-5.9598,-6.0138,-6.2082,-6.3179,-6.3678,-6.3376,-6.4159,-6.4229,-6.3133,-6.3951,-6.4438,-6.3596,-6.4998,-6.6389,-6.6436,-6.7444,-6.82,-6.8227,-6.8148,-6.7913,-6.7747,-6.7679,-6.7593,-6.7336,-6.7022,-6.6707,-6.645,-6.6364,-6.6364,-6.6624,-6.7056,-6.7574,-6.8065,-6.7678,-6.7231,-5.9823,-5.7719,-5.6348,-5.4547,-5.2658,-5.204,-5.1787,-5.1759,-5.1309,-5.1421,-5.1899,-5.1843,-5.1787,-5.1787,-5.1787,-5.1787,-5.1787,-5.1787,-5.1787,-5.1787,-5.1787,-5.1787,-5.1815,-5.2489,-5.2826,-5.2854,-5.3473,-5.3388,-5.2826,-5.2686,-5.2321,-5.1815,-5.1787,-5.1787,-5.1815,-5.2405,-5.3051,-5.3782,-5.5731,-5.7007,-5.763,-5.7843,-5.8198,-5.849,-5.7974,-5.783,-5.8088,-5.7129,-5.6229,-5.5562,-5.5039,-5.4458,-5.3791,-5.3239,-5.3001,0.0,-5.2191,0.0,0.0,0.0,0.0,0.0,0.0,0.0,0.0,-5.5648,-5.6108,-5.6395,-5.6138,-5.6218,-5.6937,-5.6999,-5.7482,-5.8796,-5.9063,-5.9145,-5.9054,-5.8993,-5.9451,-6.0768,-6.133,-6.2216,-6.367,-6.459,-6.4814,-6.4433,-6.5122,-6.542,-6.4775,-6.4569,-6.4706,-6.5257,-6.532,-6.6008,-6.7238,-6.7687,-6.7794,-6.8046,-6.8035,-6.7957,-6.7598,-6.7598,-6.7455,-6.6929,-6.6767,-6.6442,-6.5927,-6.5841,-6.5974,-6.624,-6.6516,-6.6747,-6.718,-6.738,-6.7231,-5.9207,-5.6916,-5.5892,-5.4412,-5.2658,-5.204,-5.1787,-5.1815,-5.218,-5.2433,-5.2489,-5.1983,-5.1787,-5.1787,-5.1787,-5.1787,-5.1787,-5.1787,-5.1787,-5.1787,-5.1787,-5.1787,-5.1843,-5.2939,-5.3501,-5.3501,-5.3613,-5.3613,-5.3473,-5.2461,-5.1899,-5.1787,-5.1787,-5.1787,-5.1815,0.0,0.0,0.0,-5.5301,-5.6091,-5.6654,-5.6526,-5.6673,-5.7215,-5.7168,0.0,-5.7166,-5.7162,-5.6839,-5.6258,-5.6113,0.0,0.0,0.0,0.0,0.0,0.0,0.0,0.0,0.0,0.0,0.0,-5.5532,-5.5703,-5.5679,-5.626,-5.6781,-5.7126,-5.6903,-5.7043,-5.7862,-5.7973,-5.8424,-5.9623,-6.0526,-6.1052,-6.1011,-6.0586,-6.0864,-6.2418,-6.2028,-6.2216,-6.3762,-6.459,-6.4961,-6.4849,-6.5477,-6.5788,-6.5627,-6.5248,-6.494,-6.4749,-6.5249,-6.6133,-6.6983,-6.7086,-6.7115,-6.7165,-6.7194,-6.7157,-6.712,-6.7091,-6.7062,-6.6859,-6.6454,-6.6041,-6.5868,-6.5839,-6.581,-6.5969,-6.6375,-6.6846,-6.6962,-6.6585,-6.6215,-5.9075,-5.7196,-5.6443,-5.4981,0.0,-5.2517,-5.2236,-5.2264,-5.2574,-5.2714,-5.2658,-5.2068,-5.1787,-5.1787,-5.1787,-5.1787,-5.1787,-5.1787,-5.1787,-5.1787,-5.1787,-5.1787,-5.1815,-5.277,-5.3192,-5.3192,-5.3192,-5.3192,-5.3135,-5.2236,-5.1787,-5.1787,-5.1787,-5.1787,-5.1815,-5.2714,-5.3641,-5.4597,-5.5187,-5.5664,-5.5945,-5.584,-5.5957,-5.6415,-5.6479,0.0,0.0,0.0,0.0,0.0,0.0,0.0,0.0,-5.5416,0.0,-5.5416,-5.5253,-5.5233,-5.5189,-5.5622,-5.6165,-5.6851,-5.7236,-5.7573,-5.7764,-5.7314,-5.7237,-5.7701,-5.6976,-5.7031,-5.8502,-5.8898,-5.9698,-6.1338,-6.2022,-6.2188,-6.1872,-6.1557,-6.1685,-6.2435,-6.2443,-6.2812,-6.3825,-6.459,-6.4967,-6.4996,-6.5228,-6.5489,-6.5454,-6.5556,-6.5327,-6.4802,-6.4854,-6.545,-6.6215,-6.6418,-6.6535,-6.6767,-6.6883,-6.6883,-6.6883,-6.6883,-6.6767,-6.6476,-6.6128,-6.5838,-6.5489,-6.5228,-6.5083,-6.5373,-6.546,-6.5635,-6.5867,-6.5925,-6.5838,-5.855,-5.7328,-5.6601,-5.5273,-5.3698,-5.2995,-5.277,-5.2883,-5.2883,0.0,0.0,-5.218,-5.1899,-5.1787,-5.1787,-5.1787,-5.1787,-5.1787,-5.1787,-5.1787,-5.1787,-5.1787,-5.1815,-5.2405,-5.277,-5.2883,-5.277,-5.2742,-5.2826,-5.2152,-5.1787,-5.1787,-5.1787,-5.1843,-5.2012,-5.3107,-5.3978,-5.4569,-5.5187,-5.5496,-5.5496,-5.5496,-5.5613,-5.5932,-5.599,-5.6279,-5.6709,-5.6334,-5.6185,-5.6292,-5.5826,-5.5591,-5.5591,-5.5591,-5.562,-5.5736,-5.5545,-5.5724,-5.647,-5.6851,-5.7485,-5.8436,-5.8885,-5.9333,-5.9784,-5.8418,-5.7841,-5.8592,-5.757,-5.7713,-5.9579,-6.0301,-6.1337,-6.3068,-6.3254,-6.2993,-6.2383,-6.2151,-6.2151,-6.2296,-6.279,-6.3341,-6.3888,-6.459,-6.4996,-6.4932,-6.4897,-6.4868,-6.4926,-6.5448,-6.565,-6.5058,-6.4913,-6.4945,-6.5521,-6.578,-6.5983,-6.636,-6.6476,-6.6535,-6.6535,-6.6535,-6.6331,-6.5867,-6.5751,-6.5489,-6.4938,-6.4444,-6.4241,-6.4706,-6.4415,-6.4241,-6.4851,-6.5402,-6.5577,-5.6623,-5.6107,-5.4715,-5.3951,-5.3613,-5.2967,-5.3023,-5.3529,-5.3529,-5.322,-5.2686,-5.2602,-5.2264,-5.1787,-5.1787,-5.1787,-5.1787,-5.1787,-5.1787,-5.1787,-5.1787,-5.1787,-5.1815,-5.2405,-5.2995,-5.3473,-5.2967,-5.2995,-5.336,-5.2349,-5.1787,-5.1787,-5.1787,-5.204,-5.2574,-5.3304,-5.3978,-5.4597,-5.5187,-5.5496,-5.5496,-5.5496,-5.5496,-5.5554,-5.5874,-5.6048,-5.6135,-5.6509,-5.6505,-5.6014,-5.615,-5.6258,-5.6258,-5.6258,-5.649,-5.6984,-5.6986,-5.6908,-5.6848,-5.7298,-5.8121,-5.9351,-6.0301,-6.0537,-5.9688,-5.9223,-5.9465,-6.056,-6.0551,-6.1274,-6.238,-6.2893,-6.3302,-6.3738,-6.3893,-6.3632,-6.2964,-6.2412,-6.2296,-6.279,-6.3022,-6.3341,-6.3888,-6.4526,-6.4868,-6.4612,-6.4547,-6.4483,-6.444,-6.5131,-6.557,-6.5228,-6.539,-6.5441,-6.5193,-6.5141,-6.5199,-6.5228,-6.5286,-6.5315,-6.5344,-6.5344,-6.5286,-6.517,-6.5141,-6.488,-6.4328,-6.4062,-6.4004,-6.4149,-6.4033,-6.4178,-6.4851,-6.5083,-6.5083,-5.648,-5.6136,-5.5309,-5.4656,-5.4147,-5.3838,-5.3501,-5.3248,-5.3894,-5.3613,-5.2686,-5.2377,-5.204,-5.1787,-5.1787,-5.1787,-5.1787,-5.1787,-5.1787,-5.1787,-5.1787,-5.1787,-5.1815,-5.2068,-5.2545,-5.3079,-5.2517,-5.2545,-5.2995,-5.2236,-5.1787,-5.1787,-5.1787,-5.1927,-5.2236,-5.2826,-5.3445,-5.4148,-5.5018,-5.5496,-5.5496,-5.5496,-5.5496,-5.5496,-5.5671,-5.5816,-5.599,-5.625,-5.6423,-5.6448,-5.656,-5.6729,-5.6897,-5.6729,-5.6788,-5.7078,-5.6908,-5.6967,-5.7367,-5.8428,-5.9465,-6.0384,-6.0923,-6.1013,-6.047,-5.983,-5.9707,-6.0226,-6.0274,-6.063,-6.1661,-6.2297,-6.2859,-6.3453,-6.3516,-6.3254,-6.2674,-6.2325,-6.2238,-6.2529,-6.2691,-6.3029,-6.3636,-6.4144,-6.4418,-6.4224,-6.4224,-6.416,-6.4001,-6.4454,-6.4893,-6.4762,-6.51,-6.5112,-6.4619,-6.4793,-6.4677,-6.4096,-6.4241,-6.4415,-6.4473,-6.4473,-6.4619,-6.488,-6.4735,-6.4386,-6.3975,-6.3748,-6.3719,-6.3946,-6.3975,-6.4299,-6.4764,-6.4735,-6.4473,-5.6623,-5.6165,-5.5993,-5.5422,-5.4683,-5.4485,-5.3894,-5.322,-5.3866,-5.3613,-5.2714,-5.2208,-5.1927,-5.1787,-5.1787,-5.1787,-5.1787,-5.1787,-5.1787,-5.1787,-5.1787,-5.1787,-5.1787,-5.1787,-5.2096,-5.2574,-5.2068,-5.2096,-5.2574,-5.2096,-5.1787,-5.1787,-5.1787,-5.1787,-5.1815,-5.2545,-5.3107,-5.3529,-5.4793,-5.5496,-5.5496,-5.5496,-5.5496,-5.5496,-5.5496,-5.5613,-5.5845,-5.599,-5.6193,-5.6652,-5.6823,-5.6993,-5.7191,-5.705,-5.688,-5.688,-5.6766,-5.7197,-5.8291,-5.9653,-6.0642,-6.1135,-6.1193,-6.1193,-6.1133,-6.047,-5.9953,-5.9948,-5.9962,-6.0139,-6.1007,-6.1554,-6.2119,-6.2844,-6.2848,-6.2587,-6.2006,-6.189,-6.1829,-6.1826,-6.2216,-6.275,-6.3175,-6.3672,-6.3936,-6.39,-6.372,-6.3541,-6.3541,-6.3606,-6.3765,-6.4024,-6.4381,-6.4376,-6.3854,-6.412,-6.4067,-6.3196,-6.3486,-6.3864,-6.3917,-6.398,-6.4183,-6.4677,-6.4473,-6.4062,-6.3946,-6.369,-6.3603,-6.3888,-6.383,-6.3951,-6.4299,-6.3951,-6.3603,-5.6393,-5.5623,-5.5623,-5.5311,-5.4913,-5.4148,-5.4092,-5.4203,-5.336,-5.2826,-5.2714,-5.263,-5.2293,-5.1815,-5.1787,-5.1787,-5.1787,-5.1787,-5.1787,-5.1787,-5.1787,-5.1787,-5.1787,-5.1787,-5.2124,-5.2545,-5.2068,-5.2096,-5.2574,-5.2096,-5.1787,-5.1787,-5.1787,-5.1787,-5.1899,-5.2967,-5.3304,-5.2854,-5.4569,-5.5496,-5.5496,-5.5496,-5.5496,-5.5496,-5.5496,-5.5496,-5.5554,-5.5874,-5.6048,-5.6077,-5.6595,-5.688,-5.6936,-5.688,-5.688,-5.6908,-5.7369,-5.8378,-5.9828,-6.07,-6.1106,-6.1164,-6.1193,-6.1193,-6.1193,-6.1073,-6.1073,-6.1039,-6.1473,-6.1639,-6.1939,-6.246,-6.2547,-6.2177,-6.218,-6.1948,-6.1454,-6.128,-6.116,-6.0828,-6.1833,-6.2514,-6.2463,-6.3193,-6.3749,-6.3394,-6.2773,-6.2295,-6.236,-6.2527,-6.26,-6.2729,-6.3207,-6.3331,-6.299,-6.3039,-6.3308,-6.3167,-6.3138,-6.3399,-6.3632,-6.3516,-6.3545,-6.4473,-6.4386,-6.3917,-6.3917,-6.3888,-6.3859,-6.3598,-6.3486,-6.3225,-6.3196,-6.2848,-6.247,-5.7131,-5.6336,-5.608,-5.5966,-5.5737,-5.531,-5.477,-5.4262,-5.3951,-5.3416,-5.2742,-5.2714,-5.2349,-5.1787,-5.1787,-5.1787,-5.1787,-5.1787,-5.1787,-5.1787,-5.1787,-5.1787,-5.1787,-5.1787,-5.1927,-5.2124,-5.1899,-5.1927,-5.2068,-5.1927,-5.1787,-5.1787,-5.1787,-5.1787,-5.1815,-5.2293,-5.2574,-5.2742,-5.3445,-5.4203,-5.4934,-5.5327,-5.5496,-5.5496,-5.5496,-5.5496,-5.5496,-5.5613,-5.5787,-5.599,-5.625,-5.6423,-5.6566,-5.6566,-5.6766,-5.7225,-5.8348,-5.9243,-5.994,-6.0725,-6.1193,-6.1193,-6.1193,-6.1193,-6.1193,-6.1193,-6.1193,-6.1222,-6.1425,-6.1571,-6.16,-6.1803,-6.1861,-6.16,-6.1571,-6.1454,-6.1222,-6.0984,-6.0802,-6.0768,-6.1089,-6.1554,-6.1763,-6.2337,-6.2716,-6.2492,-6.1911,-6.1509,-6.1481,-6.1582,-6.1478,-6.1231,-6.15,-6.2102,-6.2612,-6.3504,-6.3347,-6.2658,-6.2724,-6.3196,-6.2848,-6.2732,-6.2935,-6.4212,-6.3864,-6.3545,-6.3457,-6.3748,-6.383,-6.3399,-6.3196,-6.2993,-6.2587,-6.2296,-6.2006,-5.769,-5.6819,-5.6394,-5.6366,-5.6537,-5.625,-5.5623,-5.4799,-5.4742,-5.4234,-5.3522,-5.324,-5.2977,-5.2652,-5.2408,-5.2408,-5.2594,-5.2408,-5.2247,-5.2193,-5.195,-5.1787,-5.1787,-5.1787,-5.1787,-5.1787,-5.1787,-5.1787,-5.1787,-5.1787,-5.1787,-5.1787,-5.1787,-5.1787,-5.1815,-5.1927,-5.2264,-5.2686,-5.2995,-5.3585,-5.4344,-5.5102,-5.5496,-5.5496,-5.5496,-5.5496,-5.5496,-5.5496,-5.5613,-5.5845,-5.5932,-5.6077,-5.6308,-5.6308,-5.6651,-5.7365,-5.8459,-5.9328,-5.959,-6.0291,-6.0671,-6.07,-6.0671,-6.0758,-6.0874,-6.0932,-6.1019,-6.1193,-6.1193,-6.1193,-6.1193,-6.1193,-6.1193,-6.1193,-6.1133,-6.1073,-6.1073,-6.0742,-6.0499,-6.0434,-6.0579,-6.0772,-6.1303,-6.1647,-6.1827,-6.1706,-6.1397,-6.0975,-6.0919,-6.0947,-6.0891,-6.0273,-6.0463,-6.1175,-6.2203,-6.252,-6.2509,-6.2323,-6.2196,-6.2232,-6.2064,-6.2035,-6.247,-6.369,-6.3312,-6.3312,-6.3574,-6.3806,-6.3574,-6.2674,-6.2441,-6.2587,-6.1977,-6.1948,-6.1803,-5.7731,-5.652,-5.6072,-5.6305,-5.688,-5.6537,-5.6337,-5.5966,-5.5339,-5.519,-5.5292,-5.4604,-5.4469,-5.4756,-5.386,-5.3906,-5.4573,-5.3779,-5.3308,-5.315,-5.2301,-5.1841,-5.1787,-5.1787,-5.1787,-5.1787,-5.1787,-5.1787,-5.1787,-5.1787,-5.1787,-5.1787,-5.1787,-5.1787,-5.1843,-5.2293,-5.263,-5.2714,-5.3697,-5.4203,-5.4007,-5.4878,-5.5468,-5.544,-5.5496,-5.5496,-5.5496,-5.5496,-5.5496,-5.5554,-5.5787,-5.599,-5.6019,-5.6048,-5.6476,-5.7308,-5.7538,-5.8087,-5.9102,-5.9393,-5.9422,-5.9451,-5.948,-5.9684,-6.0264,-6.0263,-6.0524,-6.1135,-6.1133,-6.1133,-6.1133,-6.1133,-6.1133,-6.1133,-6.0892,-6.0742,-6.0681,-6.0438,-6.0071,-5.991,-6.024,-6.0681,-6.1011,-6.1116,-6.1144,-6.1116,-6.1088,-6.0835,-6.0385,-6.0666,-6.061,-6.0357,-6.0505,-6.0963,-6.0807,-6.132,-6.1347,-6.1246,-6.1397,-6.1206,-6.1536,-6.189,-6.2645,-6.3167,-6.3051,-6.3225,-6.3748,-6.3719,-6.3196,-6.2558,-6.2093,-6.189,-6.1571,-6.1832,-6.1716,-5.7937,-5.6984,-5.6872,-5.6932,-5.7134,-5.6851,-5.6249,-5.5532,-5.5926,-5.5707,-5.5235,-5.5306,-5.5846,-5.6644,-5.5841,-5.531,-5.4979,-5.4573,-5.4061,-5.3413,-5.302,-5.2462,-5.1841,-5.1787,-5.1787,-5.1787,-5.1787,-5.1787,-5.1787,-5.1787,-5.1787,-5.1787,-5.1787,-5.1787,-5.1843,-5.2012,-5.2124,-5.2208,-5.2967,-5.3473,-5.3726,-5.4484,-5.4906,-5.4934,-5.5299,-5.5496,-5.5496,-5.5496,-5.5496,-5.5496,-5.5613,-5.5671,-5.5727,-5.6241,-5.6845,-5.7394,-5.7737,-5.8169,-5.8546,-5.8663,-5.878,-5.8956,-5.8956,-5.9334,-6.0002,-6.0028,-6.017,-6.0718,-6.0681,-6.056,-6.0621,-6.0742,-6.0892,-6.0831,-6.056,-6.0377,-6.0316,-6.0071,-5.9825,-5.9787,-6.0053,-6.0343,-6.0449,-6.0469,-6.0469,-6.0441,-6.016,-5.9851,-5.9683,-5.9795,-5.9851,-5.9654,-5.9739,-5.9964,-6.0315,-6.0892,-6.1172,-6.1074,-6.106,-6.1081,-6.1267,-6.1334,-6.1916,-6.2558,-6.2616,-6.2674,-6.3022,-6.2616,-6.2267,-6.2325,-6.189,-6.16,-6.1251,-6.16,-6.1542,-5.8085,-5.736,-5.7303,-5.7472,-5.7696,-5.7528,-5.6971,-5.6338,-5.6932,-5.6693,-5.6072,-5.6302,-5.7018,-5.7687,-5.7397,-5.6814,-5.6054,-5.5728,-5.516,-5.445,-5.4061,-5.3361,-5.2462,-5.2301,-5.2301,-5.2355,-5.2301,-5.2139,-5.1841,-5.1787,-5.1787,-5.1787,-5.1787,-5.1787,-5.1787,-5.1787,-5.1871,-5.2124,-5.2489,-5.3023,-5.3669,-5.4259,-5.4597,-5.4653,-5.499,-5.5215,-5.5215,-5.5383,-5.5496,-5.5496,-5.5496,-5.5496,-5.561,-5.6066,-5.6613,-5.6962,-5.7306,-5.7621,-5.7708,-5.7851,-5.7997,-5.803,-5.8462,-5.8923,-5.9504,-5.9527,-5.9899,-6.0327,-6.0377,-6.0194,-6.0255,-6.0316,-6.0438,-6.0438,-6.0255,-6.0071,-6.001,-5.9792,-5.9606,-5.951,-5.9667,-5.9795,-5.9823,-5.9823,-5.9851,-5.9851,-5.9458,-5.9233,-5.9205,-5.9205,-5.9205,-5.9205,-5.9261,-5.9486,-5.9717,-6.0131,-6.0722,-6.0739,-6.0579,-6.066,-6.0851,-6.095,-6.1247,-6.18,-6.2093,-6.2093,-6.189,-6.1513,-6.1542,-6.1745,-6.1629,-6.1338,-6.1309,-6.1425,-6.1425,-5.8085,-5.736,-5.7303,-5.7751,-5.8276,-5.8326,-5.8537,-5.8301,-5.8294,-5.7922,-5.7476,-5.7623,-5.7769,-5.8168,-5.8136,-5.815,-5.7871,-5.7084,-5.6603,-5.628,-5.546,-5.442,-5.3466,-5.3413,-5.3413,-5.3413,-5.3361,-5.2861,-5.1976,-5.1896,-5.1787,-5.1787,-5.1787,-5.1787,-5.1787,-5.1787,-5.2068,-5.2461,-5.263,-5.2995,-5.3641,-5.4259,-5.4512,-5.4456,-5.4569,-5.4653,-5.4597,-5.5131,-5.544,-5.5496,-5.5496,-5.5496,-5.5496,-5.5639,-5.5727,-5.6017,-5.6075,-5.622,-5.6508,-5.705,-5.7164,-5.6965,-5.7623,-5.828,-5.8653,-5.8965,-5.9508,-6.0051,-6.0132,-6.0132,-6.0071,-5.9887,-5.9887,-6.0071,-5.9887,-5.973,-5.9668,-5.942,-5.9205,-5.9233,-5.9289,-5.9233,-5.9233,-5.9317,-5.9345,-5.9317,-5.9261,-5.9205,-5.9205,-5.9205,-5.9205,-5.9205,-5.9205,-5.9317,-5.9289,-5.9261,-5.9849,-6.0262,-6.0013,-6.0034,-6.0492,-6.0649,-6.1007,-6.1534,-6.1803,-6.1803,-6.1774,-6.1425,-6.128,-6.1367,-6.1193,-6.1193,-6.128,-6.1425,-6.16,-5.8085,-5.736,-5.7303,-5.7416,-5.7719,-5.7833,-5.7726,-5.7356,-5.7862,-5.7857,-5.7518,-5.7902,-5.8153,-5.826,-5.8321,-5.8321,-5.8274,-5.7918,-5.7448,-5.6748,-5.6329,-5.556,-5.4675,-5.4522,-5.4522,-5.4369,-5.3727,-5.3256,-5.2808,-5.2167,-5.1787,-5.1787,-5.1787,-5.1787,-5.1787,-5.1787,-5.1899,-5.2068,-5.2489,-5.2826,-5.3107,-5.4063,-5.4175,-5.3473,-5.4119,-5.44,-5.4007,-5.454,-5.5074,-5.5468,-5.5496,-5.5496,-5.5496,-5.5496,-5.5554,-5.5669,-5.6035,-5.6094,-5.5842,-5.6352,-5.6753,-5.6757,-5.7128,-5.7843,-5.8703,-5.8895,-5.9172,-5.974,-5.964,-5.9516,-5.9516,-5.9454,-5.9516,-5.9825,-5.9516,-5.9392,-5.942,-5.9295,-5.9205,-5.9205,-5.9205,-5.9205,-5.9205,-5.9205,-5.9205,-5.9205,-5.9205,-5.9205,-5.9205,-5.9205,-5.9205,-5.9205,-5.9205,-5.9205,-5.9205,-5.9205,-5.9436,-5.9821,-5.9685,-5.9668,-6.01,-6.0406,-6.0793,-6.1123,-6.1392,-6.1542,-6.1483,-6.1396,-6.1251,-6.1193,-6.1193,-6.1222,-6.1251,-6.1454,-6.1716,-5.8085,-5.7303,-5.7303,-5.7382,-5.7482,-5.788,-5.7723,-5.7323,-5.8066,-5.8119,-5.7778,-5.8058,-5.8321,-5.8321,-5.8321,-5.8321,-5.8321,-5.8321,-5.7918,-5.7401,-5.7275,-5.6669,-5.5758,-5.5659,-5.533,-5.508,-5.4726,-5.4193,-5.3361,-5.2755,-5.2193,-5.1896,-5.1787,-5.1787,-5.1787,-5.1787,-5.1787,-5.1871,-5.2377,-5.2826,-5.322,-5.4063,-5.4203,-5.3641,-5.4203,-5.4231,-5.3782,-5.4259,-5.4878,-5.5383,-5.5496,-5.5496,-5.5496,-5.5496,-5.5496,-5.558,-5.5805,-5.5889,-5.5608,-5.6117,-5.6482,-5.6717,-5.7143,-5.7768,-5.8653,-5.8786,-5.9149,-5.9369,-5.9329,-5.9205,-5.9205,-5.9205,-5.9295,-5.9482,-5.9329,-5.9205,-5.9205,-5.9205,-5.9205,-5.9205,-5.9205,-5.9205,-5.9205,-5.9205,-5.9205,-5.9205,-5.9205,-5.9205,-5.9205,-5.9205,-5.9205,-5.9205,-5.9205,-5.9205,-5.9205,-5.9205,-5.9205,-5.9323,-5.9448,-5.9544,-5.9853,-6.0038,-6.0341,-6.0796,-6.1157,-6.1278,-6.1309,-6.128,-6.1193,-6.1193,-6.1193,-6.1193,-6.128,-6.1716,-6.1948,-5.8166,-5.7416,-5.7303,-5.7456,-5.7713,-5.8332,-5.8349,-5.8182,-5.8813,-5.8718,-5.8291,-5.8274,-5.8321,-5.8321,-5.8321,-5.8321,-5.8289,-5.8116,-5.8085,-5.7993,-5.7915,-5.7387,-5.6862,-5.6765,-5.6299,-5.5728,-5.6134,-5.541,-5.3698,-5.3361,-5.2861,-5.1896,-5.1922,-5.195,-5.2085,-5.1922,-5.2193,-5.2332,-5.265,-5.3187,-5.3725,-5.4403,-5.4629,-5.4459,-5.46,-5.4515,-5.3978,-5.44,-5.4962,-5.5412,-5.5496,-5.5496,-5.5496,-5.5496,-5.5496,-5.5524,-5.5552,-5.5608,-5.5664,-5.6086,-5.6423,-5.6507,-5.7326,-5.825,-5.8226,-5.8564,-5.8873,-5.9098,-5.9064,-5.9149,-5.9177,-5.9205,-5.9205,-5.9205,-5.9205,-5.9205,-5.9205,-5.9205,-5.9205,-5.9205,-5.9205,-5.9205,-5.9205,-5.9205,-5.9205,-5.9205,-5.9205,-5.9205,-5.9205,-5.9205,-5.9205,-5.9205,-5.9205,-5.9205,-5.9205,-5.9205,-5.9205,-5.9205,-5.9267,-5.9392,-5.9606,-5.9825,-6.0132,-6.056,-6.0952,-6.1133,-6.1193,-6.1193,-6.1193,-6.1193,-6.1193,-6.1193,-6.1425,-6.1832,-6.2151,-5.9039,-5.825,-5.7584,-5.7426,-5.7678,-5.7962,-5.8084,-5.8076,-5.8421,-5.8464,-5.8274,-5.8321,-5.8321,-5.8321,-5.8321,-5.8321,-5.8116,-5.7706,-5.7484,-5.739,-5.6947,-5.7298,-5.7761,-5.7871,-5.7668,-5.7307,-5.68,-5.5956,-5.4624,-5.3802,-5.2886,-5.1896,-5.2541,-5.2939,-5.3045,-5.3547,-5.3912,-5.3912,-5.3879,-5.3925,-5.4274,-5.5234,-5.5195,-5.4276,-5.5106,-5.5111,-5.4514,-5.4934,-5.5299,-5.5468,-5.5496,-5.5496,-5.5496,-5.5496,-5.5496,-5.5552,-5.5889,-5.5945,-5.5721,-5.6058,-5.6367,-5.6423,-5.6788,-5.7126,-5.7603,-5.7772,-5.8081,-5.839,-5.8559,-5.8755,-5.9093,-5.9205,-5.9205,-5.9205,-5.9205,-5.9205,-5.9205,-5.9205,-5.9205,-5.9205,-5.9205,-5.9205,-5.9205,-5.9205,-5.9205,-5.9205,-5.9205,-5.9205,-5.9205,-5.9205,-5.9205,-5.9205,-5.9205,-5.9205,-5.9205,-5.9205,-5.9205,-5.9205,-5.9205,-5.9205,-5.9516,-5.9763,-6.0194,-6.0621,-6.0952,-6.1193,-6.1193,-6.1193,-6.1193,-6.1193,-6.1193,-6.1222,-6.1571,-6.1948,-6.2296,-5.9576,-5.9063,-5.8308,-5.7856,-5.7761,-5.7841,-5.7801,-5.7721,-5.8107,-5.8321,-5.8321,-5.8321,-5.8321,-5.8289,-5.7958,-5.7832,-5.7737,-5.7105,-5.6979,-5.7168,-5.6852,-5.6979,-5.7326,-5.7435,-5.7435,-5.7407,-5.7074,-5.6015,-5.477,-5.417,-5.3489,-5.2808,-5.3097,-5.3623,-5.4112,-5.4501,-5.4756,-5.4692,-5.4768,-5.479,-5.4805,-5.5607,-5.5718,-5.5201,-5.5878,-5.607,-5.5595,-5.5306,-5.5215,-5.5412,-5.5496,-5.5496,-5.5496,-5.5496,-5.5496,-5.5524,-5.5861,-5.5861,-5.5664,-5.5861,-5.6142,-5.6339,-5.6423,-5.676,-5.7294,-5.7575,-5.7997,-5.825,-5.8502,-5.884,-5.9093,-5.9205,-5.9205,-5.9205,-5.9205,-5.9205,-5.9205,-5.9205,-5.9205,-5.9205,-5.9205,-5.9205,-5.9205,-5.9205,-5.9205,-5.9205,-5.9205,-5.9205,-5.9205,-5.9205,-5.9205,-5.9205,-5.9205,-5.9205,-5.9205,-5.9205,-5.9205,-5.9205,-5.9205,-5.9205,-5.9392,-5.9702,-6.0132,-6.056,-6.0952,-6.1193,-6.1193,-6.1193,-6.1193,-6.1193,-6.1193,-6.1396,-6.1774,-6.2354,-6.2645,-6.0053,-5.994,-5.9136,-5.852,-5.8065,-5.7993,-5.7748,-5.7494,-5.7996,-5.8321,-5.8321,-5.8321,-5.818,-5.8162,-5.7548,-5.7231,-5.7073,-5.6378,-5.6378,-5.6505,-5.6505,-5.641,-5.5999,-5.6347,-5.641,-5.6473,-5.6884,-5.5875,-5.4728,-5.464,-5.4336,-5.37,-5.3574,-5.4259,-5.505,-5.533,-5.526,-5.5381,-5.566,-5.5667,-5.5632,-5.6177,-5.6429,-5.6439,-5.6795,-5.7,-5.6449,-5.5709,-5.5164,-5.5468,-5.5496,-5.5496,-5.5524,-5.5524,-5.5636,-5.5721,-5.5861,-5.5889,-5.5664,-5.5749,-5.5889,-5.6311,-5.6423,-5.6704,-5.7294,-5.7744,-5.8081,-5.8278,-5.8812,-5.9008,-5.9205,-5.9205,-5.9205,-5.9205,-5.9205,-5.9205,-5.9205,-5.9205,-5.9205,-5.9205,-5.9205,-5.9205,-5.9205,-5.9205,-5.9205,-5.9205,-5.9205,-5.9205,-5.9205,-5.9205,-5.9205,-5.9205,-5.9205,-5.9205,-5.9205,-5.9205,-5.9205,-5.9205,-5.9205,-5.9205,-5.9329,-5.964,-6.001,-6.0377,-6.0831,-6.1073,-6.1193,-6.1193,-6.1193,-6.1396,-6.1513,-6.1774,-6.2093,-6.2819,-6.3283,-6.1093,-6.0805,-5.9396,-5.8828,-5.877,-5.8239,-5.8024,-5.8043,-5.8197,-5.8321,-5.8321,-5.8321,-5.7958,-5.7484,-5.7295,-5.6947,-5.6473,-5.5841,-5.5209,-5.4735,-5.4767,-5.4735,-5.4861,-5.5651,-5.6157,-5.6189,-5.6283,-5.57,-5.4835,-5.4592,-5.4486,-5.4132,-5.4649,-5.5488,-5.6268,-5.6814,-5.7275,-5.7163,-5.6902,-5.6702,-5.6727,-5.7117,-5.7395,-5.7303,-5.7689,-5.7517,-5.6934,-5.6537,-5.6079,-5.5701,-5.5496,-5.5496,-5.558,-5.5917,-5.6086,-5.617,-5.6564,-5.6648,-5.6311,-5.617,-5.6283,-5.6423,-5.6535,-5.6676,-5.7294,-5.7519,-5.7856,-5.8165,-5.8446,-5.8812,-5.9149,-5.9205,-5.9205,-5.9205,-5.9205,-5.9205,-5.9205,-5.9205,-5.9205,-5.9205,-5.9205,-5.9205,-5.9205,-5.9205,-5.9205,-5.9205,-5.9205,-5.9205,-5.9205,-5.9205,-5.9205,-5.9205,-5.9205,-5.9205,-5.9205,-5.9205,-5.9205,-5.9205,-5.9205,-5.9205,-5.9329,-5.9702,-6.0071,-6.0438,-6.0831,-6.1013,-6.1193,-6.1222,-6.1222,-6.1542,-6.1861,-6.2151,-6.2558,-6.3283,-6.3806,-6.2368,-6.1822,-6.0652,-6.0066,-5.9784,-5.9111,-5.8594,-5.8338,-5.8321,-5.8321,-5.8321,-5.8321,-5.8053,-5.7706,-5.7358,-5.6979,-5.6694,-5.627,-5.5778,-5.5367,-5.543,-5.543,-5.5146,-5.562,-5.5936,-5.5525,-5.6283,-5.5869,-5.5024,-5.4929,-5.5197,-5.522,-5.5538,-5.6275,-5.7276,-5.7871,-5.7918,-5.7825,-5.7637,-5.7401,-5.7225,-5.7425,-5.7955,-5.8065,-5.8369,-5.8302,-5.8162,-5.7162,-5.6651,-5.6164,-5.5729,-5.5496,-5.5524,-5.5805,-5.5973,-5.6058,-5.6254,-5.6564,-5.6367,-5.6451,-5.6535,-5.6845,-5.6845,-5.7041,-5.7407,-5.7603,-5.7912,-5.8278,-5.8559,-5.8896,-5.9177,-5.9205,-5.9205,-5.9205,-5.9205,-5.9205,-5.9205,-5.9205,-5.9205,-5.9205,-5.9205,-5.9205,-5.9205,-5.9205,-5.9205,-5.9205,-5.9205,-5.9205,-5.9205,-5.9205,-5.9205,-5.9205,-5.9205,-5.9205,-5.9205,-5.9205,-5.9205,-5.9205,-5.9205,-5.9205,-5.9267,-5.9702,-6.0194,-6.0499,-6.0742,-6.1013,-6.1193,-6.1222,-6.1309,-6.1454,-6.1803,-6.2354,-6.2935,-6.3545,-6.4038,-6.3493,-6.2793,-6.2076,-6.144,-6.0851,-6.0009,-5.9202,-5.8588,-5.8352,-5.8321,-5.8321,-5.8321,-5.824,-5.805,-5.7575,-5.7245,-5.701,-5.6915,-5.6347,-5.6062,-5.6378,-5.6315,-5.6125,-5.6157,-5.5904,-5.4735,-5.6062,-5.6008,-5.5425,-5.5426,-5.5922,-5.6477,-5.6044,-5.6638,-5.7915,-5.8148,-5.8024,-5.798,-5.7871,-5.7684,-5.7353,-5.732,-5.7748,-5.8442,-5.8971,-5.9031,-5.8817,-5.8018,-5.7162,-5.6822,-5.6106,-5.5671,-5.5524,-5.5608,-5.5636,-5.5693,-5.6002,-5.6226,-5.6395,-5.6451,-5.6648,-5.7238,-5.7182,-5.735,-5.7575,-5.7969,-5.8278,-5.8559,-5.8868,-5.9149,-5.9205,-5.9205,-5.9205,-5.9205,-5.9205,-5.9205,-5.9205,-5.9205,-5.9205,-5.9205,-5.9205,-5.9205,-5.9205,-5.9205,-5.9205,-5.9205,-5.9205,-5.9205,-5.9205,-5.9233,-5.9233,-5.9205,-5.9205,-5.9205,-5.9205,-5.9205,-5.9205,-5.9205,-5.9205,-5.9267,-5.9323,-6.0019,-6.0451,-6.0406,-6.0621,-6.1041,-6.1338,-6.1425,-6.1483,-6.1454,-6.2093,-6.3022,-6.3516,-6.3835,-6.427,-6.3819,-6.3068,-6.2173,-6.1838,-6.1694,-6.0372,-5.9674,-5.9359,-5.8666,-5.8321,-5.8321,-5.8473,-5.8233,-5.7897,-5.7674,-5.7127,-5.6816,-5.6739,-5.6581,-5.6391,-5.6568,-5.6473,-5.6536,-5.6726,-5.6505,-5.6094,-5.6378,-5.6244,-5.6015,-5.6091,-5.6538,-5.6849,-5.6472,-5.6983,-5.774,-5.78,-5.7864,-5.8119,-5.8043,-5.7825,-5.7684,-5.7605,-5.7899,-5.8687,-5.9413,-5.9594,-5.9249,-5.9038,-5.8386,-5.6992,-5.6651,-5.6222,-5.596,-5.6094,-5.6204,-5.6198,-5.6451,-5.6535,-5.6451,-5.6423,-5.6451,-5.6564,-5.676,-5.7294,-5.7884,-5.8278,-5.8559,-5.8868,-5.9036,-5.9177,-5.9205,-5.9205,-5.9205,-5.9205,-5.9205,-5.9205,-5.9205,-5.9205,-5.9205,-5.9205,-5.9205,-5.9205,-5.9205,-5.9205,-5.9205,-5.9205,-5.9205,-5.9205,-5.9205,-5.9261,-5.9289,-5.9261,-5.9205,-5.9205,-5.9205,-5.9205,-5.9205,-5.9205,-5.9205,-5.942,-5.9685,-6.0427,-6.0765,-6.0782,-6.094,-6.1363,-6.1571,-6.1745,-6.2035,-6.2267,-6.3051,-6.3835,-6.4038,-6.4241,-6.4532,-6.4384,-6.3389,-6.2908,-6.2555,-6.2233,-6.1498,-6.0575,-5.9706,-5.9217,-5.8822,-5.8568,-5.8564,-5.8542,-5.8332,-5.8313,-5.7955,-5.7521,-5.7412,-5.7399,-5.7308,-5.7308,-5.7263,-5.7182,-5.7295,-5.7295,-5.7105,-5.6947,-5.6694,-5.6726,-5.6712,-5.7105,-5.7453,-5.7073,-5.7263,-5.799,-5.8022,-5.7958,-5.8243,-5.8182,-5.8011,-5.7949,-5.7762,-5.831,-5.9367,-5.9835,-6.0035,-6.0291,-5.9884,-5.9439,-5.8575,-5.797,-5.7443,-5.7164,-5.7024,-5.6909,-5.6265,-5.6342,-5.6507,-5.6423,-5.6451,-5.6704,-5.735,-5.735,-5.7828,-5.8474,-5.8812,-5.8896,-5.9036,-5.884,-5.8896,-5.9177,-5.9205,-5.9205,-5.9205,-5.9205,-5.9205,-5.9205,-5.9205,-5.9205,-5.9205,-5.9205,-5.9205,-5.9205,-5.9205,-5.9205,-5.9205,-5.9205,-5.9233,-5.9261,-5.9317,-5.9373,-5.9261,-5.9205,-5.9205,-5.9205,-5.9205,-5.9205,-5.9205,-5.9442,-5.9595,-6.0042,-6.075,-6.1056,-6.1159,-6.1437,-6.2151,-6.2238,-6.2558,-6.2819,-6.308,-6.3574,-6.4038,-6.4357,-6.4648,-6.488,-6.4787,-6.3707,-6.3628,-6.3305,-6.2837,-6.2564,-6.1655,-6.0401,-5.9926,-5.9433,-5.8956,-5.881,-5.8882,-5.9017,-5.9017,-5.8895,-5.8701,-5.8637,-5.8514,-5.8391,-5.8346,-5.8395,-5.8268,-5.7923,-5.767,-5.7716,-5.739,-5.7295,-5.7421,-5.7453,-5.7769,-5.7864,-5.7548,-5.7579,-5.8085,-5.799,-5.8148,-5.8243,-5.8274,-5.8182,-5.7996,-5.8169,-5.864,-6.0045,-6.0098,-6.0519,-6.0783,-6.0753,-6.0337,-5.9789,-5.9278,-5.8738,-5.8386,-5.836,-5.7555,-5.6222,-5.5817,-5.5953,-5.6058,-5.6395,-5.676,-5.7407,-5.794,-5.839,-5.884,-5.898,-5.9177,-5.9121,-5.8896,-5.8727,-5.9149,-5.9205,-5.9205,-5.9205,-5.9205,-5.9205,-5.9205,-5.9205,-5.9205,-5.9205,-5.9205,-5.9205,-5.9205,-5.9205,-5.9205,-5.9205,-5.9205,-5.9486,-5.9514,-5.9486,-5.9486,-5.9289,-5.9205,-5.9205,-5.9205,-5.9205,-5.9205,-5.9205,-5.9645,-6.0002,-6.0478,-6.1103,-6.1466,-6.2092,-6.2889,-6.3457,-6.3428,-6.3254,-6.3399,-6.3603,-6.3922,-6.427,-6.4619,-6.4856,-6.5002,-6.4497,-6.3897,-6.3707,-6.369,-6.3638,-6.2869,-6.2421,-6.1974,-6.0665,-6.0028,-5.9868,-5.9396,-5.9197,-5.9286,-5.9286,-5.9152,-5.8972,-5.8927,-5.8914,-5.8824,-5.8869,-5.8824,-5.8837,-5.8624,-5.8056,-5.796,-5.7494,-5.7611,-5.7909,-5.8036,-5.8053,-5.8022,-5.7706,-5.7579,-5.818,-5.7895,-5.7706,-5.8148,-5.8321,-5.8182,-5.809,-5.8671,-5.8782,-5.9081,-5.9787,-6.0603,-6.0617,-6.0846,-6.0907,-6.0328,-6.015,-5.9705,-5.9117,-5.8901,-5.8217,-5.7328,-5.6736,-5.6365,-5.6011,-5.617,-5.6592,-5.7126,-5.7378,-5.78,-5.8474,-5.8924,-5.9121,-5.9205,-5.9064,-5.9064,-5.9149,-5.9205,-5.9205,-5.9205,-5.9205,-5.9205,-5.9205,-5.9205,-5.9205,-5.9205,-5.9205,-5.9205,-5.9205,-5.9205,-5.9205,-5.9205,-5.9289,-5.9542,-5.9683,-5.9626,-5.9683,-5.9542,-5.9261,-5.9205,-5.9345,-5.9317,-5.9492,-5.9436,-5.9962,-6.0586,-6.1183,-6.1867,-6.2841,-6.3497,-6.4178,-6.4241,-6.3835,-6.3719,-6.3864,-6.4096,-6.4386,-6.4648,-6.4909,-6.506,-6.5158,-6.422,-6.3976,-6.385,-6.3897,-6.3944,-6.3494,-6.3013,-6.2324,-6.1363,-6.0867,-6.0642,-5.9736,-5.9375,-5.956,-5.9508,-5.9375,-5.9197,-5.9184,-5.9094,-5.9049,-5.9049,-5.8972,-5.8876,-5.8531,-5.8135,-5.8249,-5.7981,-5.8064,-5.8324,-5.7969,-5.7674,-5.7737,-5.78,-5.7958,-5.8321,-5.7958,-5.8022,-5.8211,-5.8306,-5.8449,-5.8624,-5.8797,-5.9112,-5.9775,-6.0011,-6.0263,-6.0718,-6.0606,-6.0926,-6.0582,-6.0687,-6.0701,-6.0506,-6.039,-6.0023,-5.9087,-5.8871,-5.7924,-5.6471,-5.6401,-5.6823,-5.735,-5.7744,-5.8221,-5.8643,-5.8755,-5.8924,-5.9205,-5.8868,-5.8868,-5.9149,-5.9205,-5.9205,-5.9205,-5.9205,-5.9205,-5.9205,-5.9205,-5.9205,-5.9205,-5.9205,-5.9205,-5.9205,-5.9205,-5.9317,-5.9486,-5.943,-5.9486,-5.9598,-5.957,-5.9683,-5.9823,-5.9514,-5.9205,-5.9402,-5.9514,-5.9984,-6.0159,-6.0737,-6.1336,-6.1948,-6.2755,-6.3578,-6.4144,-6.441,-6.4386,-6.4096,-6.4241,-6.4444,-6.4619,-6.4793,-6.4973,-6.506,-6.5285,-6.5412,-6.4024,-6.4024,-6.4024,-6.4024,-6.4024,-6.4024,-6.3606,-6.2851,-6.1948,-6.169,-6.1483,-6.058,-6.0089,-6.0223,-6.0255,-6.0134,-5.9709,-5.9677,-5.9415,-5.9293,-5.9184,-5.9229,-5.91,-5.8671,-5.8486,-5.8838,-5.814,-5.8,-5.7975,-5.786,-5.7539,-5.7544,-5.8128,-5.8303,-5.8289,-5.8257,-5.8243,-5.8321,-5.8496,-5.8812,-5.9128,-5.9001,-5.976,-6.0297,-6.0455,-6.0297,-6.1119,-6.1196,-6.1113,-6.1298,-6.1388,-6.149,-6.1621,-6.1582,-6.1093,-6.039,-6.0075,-5.9387,-5.8141,-5.7742,-5.7843,-5.8196,-5.8564,-5.8699,-5.9008,-5.8755,-5.8643,-5.9177,-5.8924,-5.8924,-5.9093,-5.9205,-5.9205,-5.9205,-5.9205,-5.9205,-5.9205,-5.9205,-5.9205,-5.9205,-5.9205,-5.9205,-5.9205,-5.9205,-5.9373,-5.9683,-5.9683,-5.957,-5.9542,-5.9598,-5.9795,-6.002,-5.9879,-5.9598,-5.9711,-5.9942,-6.0385,-6.0948,-6.1557,-6.2124,-6.2739,-6.34,-6.4109,-6.4526,-6.4735,-6.4706,-6.4561,-6.4793,-6.4996,-6.4938,-6.4909,-6.5002,-6.5158,-6.5475,-6.5727,-6.4024,-6.4024,-6.4024,-6.4024,-6.4024,-6.4024,-6.3912,-6.3653,-6.2358,-6.2164,-6.2423,-6.1938,-6.1517,-6.153,-6.1368,-6.1141,-6.0676,-6.0676,-6.0243,-5.9855,-5.9628,-5.9617,-5.9508,-5.9278,-5.89,-5.861,-5.833,-5.7889,-5.748,-5.8153,-5.8154,-5.8483,-5.8673,-5.8504,-5.8476,-5.8649,-5.8666,-5.8761,-5.9046,-5.9285,-5.9601,-5.9791,-6.0297,-6.0503,-6.0977,-6.1308,-6.1435,-6.1624,-6.1828,-6.1937,-6.1937,-6.2094,-6.2153,-6.2216,-6.1683,-6.1144,-6.0856,-6.035,-5.9752,-5.9404,-5.9535,-5.9304,-5.9041,-5.9042,-5.9239,-5.9205,-5.9205,-5.9177,-5.9036,-5.9093,-5.9177,-5.9205,-5.9205,-5.9205,-5.9205,-5.9205,-5.9205,-5.9205,-5.9205,-5.9205,-5.9233,-5.9261,-5.943,-5.9486,-5.9486,-5.9704,-6.002,-5.9907,-5.9795,-5.9823,-6.0048,-6.0216,-6.0188,-6.0132,-6.0224,-6.0604,-6.1225,-6.1826,-6.2451,-6.2927,-6.3475,-6.4069,-6.4549,-6.47,-6.488,-6.4967,-6.4996,-6.4996,-6.4996,-6.4996,-6.506,-6.5124,-6.5504,-6.5882,-6.6132,-6.438,-6.4024,-6.4024,-6.4024,-6.4024,-6.4024,-6.4024,-6.3862,-6.2923,-6.2307,-6.2275,-6.234,-6.2242,-6.1951,-6.1789,-6.1692,-6.1368,-6.0947,-6.0623,-6.0299,-6.0008,-6.0008,-5.9996,-5.9855,-5.9617,-5.9584,-5.9226,-5.8936,-5.8807,-5.8795,-5.8856,-5.9139,-5.9343,-5.9475,-5.9416,-5.937,-5.9561,-5.9784,-5.9879,-5.9943,-6.0421,-6.0612,-6.0994,-6.1504,-6.0868,-6.1265,-6.1487,-6.1247,-6.1403,-6.1687,-6.1845,-6.2098,-6.2333,-6.2365,-6.2166,-6.1734,-6.1602,-6.1503,-6.1163,-6.0711,-6.004,-5.9947,-5.9368,-5.9092,-5.9465,-5.9329,-5.9205,-5.9205,-5.9205,-5.9267,-5.9205,-5.9205,-5.9205,-5.9205,-5.9233,-5.9289,-5.9261,-5.9261,-5.9233,-5.9233,-5.9317,-5.9373,-5.9598,-5.9823,-5.9823,-5.9816,-6.0104,-6.0273,-6.016,-6.0188,-6.0469,-6.0758,-6.0758,-6.0949,-6.1069,-6.16,-6.2189,-6.2708,-6.3227,-6.3705,-6.4127,-6.4457,-6.4909,-6.4967,-6.4996,-6.4996,-6.4996,-6.4996,-6.4996,-6.4996,-6.5124,-6.5251,-6.5694,-6.6254,-6.6622,-6.4639,-6.4056,-6.4024,-6.4024,-6.4024,-6.4024,-6.4024,-6.3894,-6.3214,-6.2631,-6.2178,-6.2858,-6.2987,-6.2566,-6.2502,-6.2307,-6.2048,-6.1498,-6.1044,-6.0591,-6.017,-6.0105,-6.0137,-6.0028,-5.9834,-6.0267,-6.0073,-5.9608,-5.9511,-5.964,-5.9552,-5.9677,-6.0155,-6.0372,-6.006,-6.0362,-6.0651,-6.0843,-6.1003,-6.0907,-6.1372,-6.1436,-6.1788,-6.2221,-6.1599,-6.1536,-6.1789,-6.1707,-6.1498,-6.1719,-6.1877,-6.2003,-6.2207,-6.2396,-6.2396,-6.2396,-6.2396,-6.2428,-6.2022,-6.1379,-6.0611,-6.0862,-5.9944,-5.9752,-5.9704,-5.9683,-5.9578,-5.9392,-5.9329,-5.9358,-5.9295,-5.9205,-5.9205,-5.9233,-5.957,-5.9626,-5.9458,-5.9402,-5.9317,-5.9261,-5.943,-5.9711,-5.9964,-6.0216,-6.0533,-6.0441,-6.0526,-6.0666,-6.0638,-6.0722,-6.1067,-6.1329,-6.1598,-6.1791,-6.1983,-6.2666,-6.32,-6.3192,-6.3705,-6.4364,-6.4752,-6.4996,-6.4996,-6.4996,-6.4996,-6.4996,-6.4996,-6.5025,-6.5025,-6.4996,-6.5309,-6.5714,-6.6391,-6.7011,-6.7346,-6.4671,-6.4056,-6.4024,-6.4024,-6.4024,-6.4024,-6.4024,-6.3926,-6.3311,-6.2955,-6.2955,-6.3603,-6.3894,-6.3764,-6.3603,-6.3311,-6.2793,-6.2145,-6.1562,-6.1044,-6.0332,-5.9943,-5.9911,-5.9943,-5.9878,-5.9781,-5.9716,-5.9673,-5.9673,-5.9673,-5.9673,-6.019,-6.0909,-6.1386,-6.0344,-6.0779,-6.1099,-6.1227,-6.1882,-6.2011,-6.225,-6.2282,-6.2667,-6.2812,-6.2365,-6.2269,-6.2459,-6.236,-6.2214,-6.2309,-6.2372,-6.2418,-6.2432,-6.259,-6.2572,-6.2572,-6.2554,-6.2554,-6.2423,-6.1877,-6.1882,-6.1995,-6.1193,-6.0589,-6.047,-6.0281,-6.001,-5.9763,-5.9702,-5.9572,-5.942,-5.9323,-5.9442,-5.9696,-6.0153,-6.0266,-6.0159,-6.0103,-6.0166,-6.0137,-6.009,-6.016,-6.0413,-6.073,-6.116,-6.1208,-6.1088,-6.1088,-6.1152,-6.1627,-6.2094,-6.2272,-6.2507,-6.27,-6.3015,-6.3794,-6.4159,-6.4028,-6.4127,-6.4694,-6.4932,-6.4996,-6.4996,-6.4996,-6.5141,-6.5286,-6.5199,-6.5054,-6.5443,-6.5927,-6.6046,-6.6513,-6.7156,-6.7674,-6.8041,-6.5319,-6.4624,-6.4218,-6.4024,-6.4024,-6.4024,-6.4024,-6.3991,-6.3732,-6.3635,-6.3667,-6.3959,-6.4024,-6.4024,-6.4024,-6.3829,-6.3538,-6.289,-6.2275,-6.2048,-6.0947,-6.0882,-6.072,-6.017,-5.9976,-6.017,-6.0073,-5.9716,-5.9673,-5.9781,-6.0105,-6.0623,-6.1724,-6.2506,-6.2543,-6.2658,-6.2464,-6.2851,-6.2916,-6.2851,-6.3335,-6.3353,-6.3449,-6.366,-6.318,-6.31,-6.3244,-6.3034,-6.2952,-6.2888,-6.2888,-6.2839,-6.2837,-6.2946,-6.3277,-6.3286,-6.3394,-6.3805,-6.3786,-6.3609,-6.3558,-6.3202,-6.2491,-6.1721,-6.1498,-6.1201,-6.0745,-6.0283,-6.0157,-6.0176,-6.0398,-6.0484,-6.0654,-6.1172,-6.1485,-6.1456,-6.1434,-6.1399,-6.1462,-6.1462,-6.1421,-6.1642,-6.1862,-6.1997,-6.2244,-6.2393,-6.2272,-6.2094,-6.2094,-6.2778,-6.337,-6.337,-6.3521,-6.3715,-6.4024,-6.4396,-6.4676,-6.4573,-6.4578,-6.4816,-6.4996,-6.5112,-6.5141,-6.5257,-6.5431,-6.5606,-6.5757,-6.6002,-6.6581,-6.6985,-6.7309,-6.7534,-6.8024,-6.8393,-6.8642,-6.5675,-6.4963,-6.4315,-6.4024,-6.4024,-6.4024,-6.4024,-6.4024,-6.4024,-6.4024,-6.4024,-6.4024,-6.4024,-6.4024,-6.4024,-6.4024,-6.3926,-6.3246,-6.2858,-6.2696,-6.1433,-6.1109,-6.0818,-6.0461,-6.0235,-6.0397,-6.017,-5.9781,-6.0137,-6.0105,-6.0656,-6.1595,-6.2437,-6.3117,-6.3459,-6.3491,-6.3426,-6.3653,-6.3476,-6.3491,-6.3782,-6.3912,-6.3944,-6.3994,-6.3884,-6.3902,-6.3645,-6.3549,-6.3452,-6.3356,-6.3212,-6.3131,-6.3258,-6.3542,-6.3907,-6.398,-6.426,-6.4685,-6.4906,-6.4848,-6.4779,-6.4951,-6.3794,-6.2829,-6.234,-6.2026,-6.1431,-6.0972,-6.0725,-6.1003,-6.137,-6.1456,-6.1685,-6.2205,-6.2371,-6.2343,-6.22,-6.22,-6.2285,-6.2285,-6.252,-6.2829,-6.32,-6.3422,-6.3549,-6.3586,-6.3529,-6.3257,-6.3021,-6.3586,-6.416,-6.4131,-6.4196,-6.4268,-6.4368,-6.4618,-6.4868,-6.4996,-6.5083,-6.5199,-6.5344,-6.5519,-6.5489,-6.5577,-6.5983,-6.6338,-6.6679,-6.7048,-6.7724,-6.8342,-6.8907,-6.904,-6.9044,-6.9142,-6.9333,-6.5675,-6.4915,-6.4315,-6.4024,-6.4024,-6.4024,-6.4024,-6.4024,-6.4024,-6.4024,-6.4024,-6.4024,-6.4024,-6.4024,-6.4024,-6.4024,-6.3959,-6.3279,-6.3117,-6.2696,-6.1821,-6.1368,-6.0882,-6.0429,-6.0364,-6.0364,-6.0235,-6.0137,-6.0656,-6.0818,-6.1498,-6.2469,-6.2923,-6.3473,-6.3797,-6.3926,-6.3894,-6.3926,-6.3926,-6.3862,-6.4024,-6.4024,-6.4024,-6.4059,-6.4287,-6.4223,-6.4159,-6.4192,-6.3982,-6.3709,-6.3372,-6.334,-6.3516,-6.3964,-6.4188,-6.4587,-6.4944,-6.5466,-6.5861,-6.5833,-6.5983,-6.6133,-6.5183,-6.3988,-6.3259,-6.2954,-6.247,-6.2014,-6.1729,-6.1911,-6.2125,-6.224,-6.2326,-6.2698,-6.2985,-6.2899,-6.2698,-6.2698,-6.2813,-6.2927,-6.3134,-6.345,-6.3916,-6.4196,-6.4289,-6.4232,-6.4181,-6.4117,-6.3938,-6.3902,-6.4354,-6.4483,-6.4547,-6.4676,-6.4833,-6.4984,-6.5129,-6.5344,-6.5489,-6.5606,-6.578,-6.5983,-6.607,-6.6273,-6.6745,-6.713,-6.759,-6.8246,-6.8873,-6.953,-6.9908,-7.0037,-6.9863,-6.9863,-7.0051,-6.5675,-6.4963,-6.4315,-6.4024,-6.4024,-6.4024,-6.4024,-6.4024,-6.4024,-6.4024,-6.4024,-6.4024,-6.4024,-6.4024,-6.4024,-6.4024,-6.3926,-6.3829,-6.3732,-6.3214,-6.2515,-6.1983,-6.153,-6.1122,-6.072,-6.0364,-6.0311,-6.0311,-6.0409,-6.085,-6.1932,-6.2761,-6.339,-6.3811,-6.3973,-6.4024,-6.4024,-6.4024,-6.4024,-6.4024,-6.4024,-6.4024,-6.4024,-6.4138,-6.4673,-6.4657,-6.4706,-6.5174,-6.5061,-6.4578,-6.4497,-6.4449,-6.432,-6.4963,-6.5492,-6.6428,-6.6646,-6.6806,-6.6965,-6.6894,-6.6938,-6.6994,-6.6406,-6.5665,-6.4837,-6.4141,-6.3677,-6.3058,-6.2706,-6.2798,-6.3106,-6.3279,-6.3452,-6.3711,-6.3942,-6.3884,-6.3711,-6.374,-6.3827,-6.3855,-6.4028,-6.4086,-6.4518,-6.4612,-6.4676,-6.4711,-6.4711,-6.474,-6.4676,-6.4612,-6.4612,-6.474,-6.4978,-6.5007,-6.5187,-6.5338,-6.5512,-6.5722,-6.5896,-6.6128,-6.6447,-6.6651,-6.6738,-6.7036,-6.7545,-6.8144,-6.8714,-6.9259,-6.9696,-7.007,-7.045,-7.058,-7.0679,-7.056,-7.05,-6.5703,-6.5248,-6.4565,-6.4272,-6.4272,-6.4272,-6.4272,-6.4226,-6.4085,-6.4024,-6.4024,-6.4024,-6.4024,-6.4024,-6.4024,-6.4024,-6.4024,-6.3959,-6.3973,-6.3808,-6.3191,-6.2503,-6.2093,-6.1605,-6.0966,-6.0597,-6.0499,-6.0587,-6.0662,-6.1475,-6.2561,-6.3635,-6.4142,-6.4207,-6.4319,-6.4319,-6.4319,-6.4226,-6.4132,-6.4024,-6.4024,-6.4024,-6.4024,-6.425,-6.4898,-6.5254,-6.5254,-6.5967,-6.6064,-6.5578,-6.5448,-6.5352,-6.5384,-6.5917,-6.6609,-6.7425,-6.7465,-6.7465,-6.7478,-6.7356,-6.7388,-6.7336,-6.7265,-6.6785,-6.6018,-6.5201,-6.4498,-6.3892,-6.3664,-6.3627,-6.4004,-6.4444,-6.4677,-6.4909,-6.4938,-6.4967,-6.4938,-6.4938,-6.4938,-6.4938,-6.4938,-6.4874,-6.4996,-6.4996,-6.4996,-6.4932,-6.4932,-6.4868,-6.4868,-6.4868,-6.4804,-6.4868,-6.5193,-6.5396,-6.5606,-6.5838,-6.6128,-6.6331,-6.6418,-6.6709,-6.7086,-6.7413,-6.7501,-6.7895,-6.8414,-6.8898,-6.9428,-6.9884,-7.0278,-7.0593,-7.0724,-7.0794,-7.0799,-7.0799,-7.0769,-6.575,-6.5619,-6.4964,-6.4656,-6.4702,-6.4702,-6.4656,-6.4656,-6.4272,-6.4038,-6.4085,-6.4071,-6.4085,-6.4132,-6.4165,-6.4132,-6.4179,-6.4179,-6.4272,-6.43,-6.3421,-6.2827,-6.2341,-6.1491,-6.1426,-6.1251,-6.1055,-6.1034,-6.1644,-6.2386,-6.3367,-6.4636,-6.4623,-6.461,-6.4564,-6.4564,-6.463,-6.4812,-6.4593,-6.4406,-6.4229,-6.415,-6.4168,-6.4474,-6.5318,-6.6096,-6.5901,-6.6323,-6.6955,-6.6501,-6.6291,-6.6291,-6.6469,-6.6873,-6.7568,-6.7842,-6.7866,-6.7848,-6.7797,-6.7695,-6.7593,-6.7491,-6.7439,-6.7336,-6.6797,-6.6292,-6.567,-6.5228,-6.5083,-6.4817,-6.5099,-6.4867,-6.488,-6.5158,-6.5285,-6.5158,-6.506,-6.4996,-6.4996,-6.4996,-6.4996,-6.4996,-6.4996,-6.4996,-6.4996,-6.4996,-6.4996,-6.4996,-6.5199,-6.5199,-6.5321,-6.5257,-6.5664,-6.6012,-6.6186,-6.6447,-6.6796,-6.6999,-6.7086,-6.7376,-6.7812,-6.8082,-6.8361,-6.8773,-6.9156,-6.9568,-7.0104,-7.0397,-7.0593,-7.0724,-7.0854,-7.0854,-7.0919,-7.0949,-7.0919,-6.5455,-6.4931,-6.4767,-6.4702,-6.4702,-6.4702,-6.4702,-6.4702,-6.461,-6.4518,-6.4518,-6.4518,-6.4518,-6.4472,-6.4472,-6.4472,-6.4472,-6.4426,-6.4564,-6.4577,-6.3989,-6.3445,-6.3404,-6.2694,-6.2256,-6.1622,-6.1393,-6.1677,-6.2399,-6.312,-6.3764,-6.4617,-6.4748,-6.4793,-6.4793,-6.4793,-6.5056,-6.5417,-6.5442,-6.5106,-6.4812,-6.5139,-6.54,-6.5792,-6.6543,-6.7214,-6.7345,-6.7915,-6.8013,-6.7702,-6.7604,-6.7475,-6.7281,-6.7735,-6.8024,-6.8169,-6.8151,-6.8101,-6.805,-6.8,-6.7949,-6.7899,-6.7848,-6.7746,-6.7584,-6.7409,-6.7125,-6.6729,-6.6458,-6.6218,-6.586,-6.5446,-6.5158,-6.5412,-6.5635,-6.5412,-6.5158,-6.5031,-6.506,-6.4996,-6.4996,-6.506,-6.506,-6.506,-6.4996,-6.4996,-6.4996,-6.5112,-6.5641,-6.5815,-6.599,-6.6077,-6.636,-6.668,-6.6825,-6.7115,-6.7492,-6.7783,-6.7995,-6.8218,-6.8509,-6.8777,-6.9015,-6.9494,-6.9972,-7.02,-7.0367,-7.0629,-7.0759,-7.0919,-7.1068,-7.1128,-7.1128,-7.1128,-7.1009,-6.5383,-6.5021,-6.5021,-6.5021,-6.5021,-6.5021,-6.4988,-6.5021,-6.5021,-6.4988,-6.4976,-6.4839,-6.4702,-6.4702,-6.4702,-6.4748,-6.4748,-6.4702,-6.4748,-6.4806,-6.4589,-6.4186,-6.3923,-6.3627,-6.3057,-6.2398,-6.2398,-6.2694,-6.3309,-6.3748,-6.4308,-6.4889,-6.5021,-6.5021,-6.5054,-6.5284,-6.5646,-6.6074,-6.6404,-6.6338,-6.5897,-6.6232,-6.6321,-6.6668,-6.7272,-6.7928,-6.8207,-6.86,-6.8699,-6.8535,-6.8437,-6.8388,-6.8275,-6.8438,-6.8436,-6.8451,-6.8351,-6.8351,-6.8284,-6.8251,-6.8284,-6.8216,-6.8133,-6.7981,-6.8659,-6.8436,-6.7872,-6.7559,-6.7706,-6.7487,-6.6572,-6.5948,-6.626,-6.654,-6.6602,-6.6478,-6.5886,-6.5446,-6.5222,-6.4996,-6.5158,-6.5475,-6.5509,-6.5635,-6.5538,-6.5304,-6.5275,-6.5786,-6.6254,-6.7037,-6.7055,-6.7094,-6.748,-6.7421,-6.7405,-6.7754,-6.8218,-6.8479,-6.873,-6.8961,-6.919,-6.9412,-6.967,-7.0002,-7.0265,-7.0397,-7.0563,-7.0759,-7.0824,-7.0919,-7.1158,-7.1398,-7.1398,-7.1517,-7.1697,-6.5381,-6.5425,-6.5425,-6.5425,-6.5425,-6.5425,-6.5381,-6.5381,-6.5381,-6.5381,-6.5336,-6.4943,-6.4806,-6.4761,-6.4793,-6.4793,-6.4839,-6.493,-6.4976,-6.4934,-6.4584,-6.453,-6.4333,-6.3858,-6.3461,-6.3285,-6.3295,-6.3659,-6.4145,-6.4476,-6.484,-6.5281,-6.5425,-6.5459,-6.5724,-6.6076,-6.6494,-6.7023,-6.7387,-6.7764,-6.7625,-6.7391,-6.7264,-6.74,-6.7746,-6.8188,-6.845,-6.8713,-6.9058,-6.9157,-6.9206,-6.9386,-6.9436,-6.9501,-6.9174,-6.909,-6.8943,-6.8843,-6.8646,-6.8449,-6.8431,-6.8381,-6.8381,-6.8655,-6.9335,-6.9419,-6.8847,-6.868,-6.8794,-6.8411,-6.7427,-6.697,-6.7306,-6.7427,-6.7427,-6.7487,-6.6757,-6.6044,-6.5698,-6.5348,-6.5509,-6.5886,-6.6293,-6.6417,-6.6316,-6.5996,-6.626,-6.6706,-6.7403,-6.8504,-6.9112,-6.8931,-6.8932,-6.8723,-6.8252,-6.8352,-6.8759,-6.9057,-6.9249,-6.9574,-6.9803,-6.9869,-7.0068,-7.0331,-7.0593,-7.0658,-7.0724,-7.0854,-7.0919,-7.1038,-7.1338,-7.1697,-7.2086,-7.2265,-7.2684,-6.5425,-6.5425,-6.5425,-6.5425,-6.5425,-6.5425,-6.5425,-6.5425,-6.5425,-6.5425,-6.5381,-6.5381,-6.5291,-6.5246,-6.5291,-6.5246,-6.5156,-6.5201,-6.5246,-6.5237,-6.5027,-6.5071,-6.4962,-6.4432,-6.3868,-6.3769,-6.3935,-6.4277,-6.4597,-6.4995,-6.5227,-6.5392,-6.5459,-6.5724,-6.6287,-6.6684,-6.7148,-6.7744,-6.8307,-6.8639,-6.8937,-6.8743,-6.8446,-6.863,-6.9027,-6.9324,-6.9523,-6.9556,-6.9622,-6.9739,-7.0024,-7.042,-7.0667,-7.0634,-7.0255,-6.978,-6.9665,-6.9566,-6.9368,-6.8958,-6.8908,-6.9296,-6.9278,-6.9274,-6.9904,-7.0565,-7.0129,-6.994,-6.9885,-6.9516,-6.8707,-6.8441,-6.8559,-6.8235,-6.8116,-6.8295,-6.8087,-6.7366,-6.6757,-6.6478,-6.6384,-6.7061,-6.7909,-6.803,-6.8031,-6.8091,-6.8789,-6.9245,-6.9756,-7.0488,-7.1161,-7.0772,-7.0435,-6.9831,-6.9265,-6.8978,-6.9278,-6.9508,-6.9737,-7.0002,-7.0134,-7.0265,-7.0462,-7.0658,-7.0724,-7.0789,-7.0919,-7.0979,-7.1248,-7.1427,-7.1637,-7.1966,-7.2475,-7.2984,-7.3402]},{"header":{"parameterUnit":"m.s-1","parameterCategory":1,"la1":31.0,"la2":29.5877,"lo1":-88.7671,"lo2":-86.6584,"dy":0.0162,"dx":0.0185,"nx":115,"ny":88,"refTime":"2024-04-08T06:00:00:Z","depth":0,"parameterNumber":3,"parameterNumberName":"V-component_of_WINDS"},"data":[0.0,0.0,0.0,0.0,0.0,0.0,0.0,0.0,0.0,0.0,0.0,0.0,0.0,0.0,0.0,0.0,0.0,0.0,0.0,0.0,0.0,0.0,0.0,0.0,0.0,0.0,0.0,0.0,0.0,0.0,0.0,0.0,0.0,0.0,0.0,0.0,0.0,0.0,0.0,0.0,0.0,0.0,0.0,0.0,0.0,0.0,0.0,0.0,0.0,0.0,0.0,0.0,0.0,0.0,0.0,0.0,0.0,0.0,0.0,0.0,0.0,0.0,0.0,0.0,0.0,0.0,0.0,0.0,0.0,0.0,0.0,0.0,0.0,0.0,0.0,0.0,0.0,0.0,0.0,0.0,0.0,0.0,0.0,0.0,0.0,0.0,0.0,0.0,0.0,0.0,0.0,0.0,0.0,0.0,0.0,0.0,0.0,0.0,0.0,0.0,0.0,0.0,0.0,0.0,0.0,0.0,0.0,0.0,0.0,0.0,0.0,0.0,0.0,0.0,0.0,0.0,0.0,0.0,0.0,0.0,0.0,0.0,0.0,0.0,0.0,0.0,0.0,0.0,0.0,0.0,0.0,0.0,0.0,0.0,0.0,0.0,0.0,0.0,0.0,0.0,0.0,0.0,0.0,0.0,0.0,0.0,0.0,0.0,0.0,0.0,0.0,0.0,0.0,0.0,0.0,0.0,0.0,0.0,0.0,0.0,0.0,0.0,0.0,0.0,0.0,0.0,0.0,0.0,0.0,0.0,0.0,0.0,0.0,0.0,0.0,0.0,0.0,0.0,0.0,0.0,0.0,0.0,0.0,0.0,0.0,0.0,0.0,0.0,0.0,0.0,0.0,0.0,0.0,0.0,0.0,0.0,0.0,0.0,0.0,0.0,0.0,0.0,0.0,0.0,0.0,0.0,0.0,0.0,0.0,0.0,0.0,0.0,0.0,0.0,0.0,0.0,0.0,0.0,0.0,0.0,0.0,0.0,0.0,0.0,0.0,0.0,0.0,0.0,0.0,0.0,0.0,0.0,0.0,0.0,0.0,0.0,0.0,0.0,0.0,0.0,0.0,0.0,0.0,0.0,0.0,0.0,0.0,0.0,0.0,0.0,0.0,0.0,0.0,0.0,0.0,0.0,0.0,0.0,0.0,0.0,0.0,0.0,0.0,0.0,0.0,0.0,0.0,0.0,0.0,0.0,0.0,0.0,0.0,0.0,0.0,0.0,0.0,0.0,0.0,0.0,0.0,0.0,0.0,0.0,0.0,0.0,0.0,0.0,0.0,0.0,0.0,0.0,0.0,0.0,0.0,0.0,0.0,0.0,0.0,0.0,0.0,0.0,0.0,0.0,0.0,0.0,0.0,0.0,0.0,0.0,0.0,0.0,0.0,0.0,0.0,0.0,0.0,0.0,0.0,0.0,0.0,0.0,0.0,0.0,0.0,0.0,0.0,0.0,0.0,0.0,0.0,0.0,0.0,0.0,0.0,0.0,0.0,0.0,0.0,0.0,0.0,0.0,0.0,0.0,0.0,0.0,0.0,0.0,0.0,0.0,0.0,0.0,0.0,0.0,0.0,0.0,0.0,0.0,0.0,0.0,0.0,0.0,0.0,0.0,0.0,0.0,0.0,0.0,0.0,0.0,0.0,0.0,0.0,0.0,0.0,0.0,0.0,0.0,0.0,0.0,0.0,0.0,0.0,0.0,0.0,0.0,0.0,0.0,0.0,0.0,0.0,0.0,0.0,0.0,0.0,0.0,0.0,0.0,0.0,0.0,0.0,0.0,0.0,0.0,0.0,0.0,0.0,0.0,0.0,0.0,0.0,0.0,0.0,0.0,0.0,0.0,0.0,0.0,0.0,0.0,0.0,0.0,0.0,0.0,0.0,0.0,0.0,0.0,0.0,0.0,0.0,0.0,0.0,0.0,0.0,0.0,0.0,0.0,0.0,0.0,0.0,0.0,0.0,0.0,0.0,0.0,0.0,0.0,0.0,0.0,0.0,0.0,0.0,0.0,0.0,0.0,0.0,0.0,0.0,0.0,0.0,0.0,0.0,0.0,0.0,0.0,0.0,0.0,0.0,0.0,0.0,0.0,0.0,0.0,0.0,0.0,0.0,0.0,0.0,0.0,0.0,0.0,0.0,0.0,0.0,0.0,0.0,0.0,0.0,0.0,0.0,0.0,0.0,0.0,0.0,0.0,0.0,0.0,0.0,0.0,0.0,0.0,0.0,0.0,0.0,0.0,0.0,0.0,0.0,0.0,0.0,0.0,0.0,0.0,0.0,0.0,0.0,0.0,0.0,0.0,0.0,0.0,0.0,0.0,0.0,0.0,0.0,0.0,0.0,0.0,0.0,0.0,0.0,0.0,0.0,0.0,0.0,0.0,0.0,0.0,0.0,0.0,0.0,0.0,0.0,0.0,0.0,0.0,0.0,0.0,0.0,0.0,0.0,0.0,0.0,0.0,0.0,0.0,0.0,0.0,0.0,0.0,0.0,0.0,0.0,0.0,0.0,0.0,0.0,0.0,0.0,0.0,0.0,0.0,0.0,0.0,0.0,0.0,0.0,0.0,0.0,0.0,0.0,0.0,0.0,0.0,0.0,0.0,0.0,0.0,0.0,0.0,0.0,0.0,0.0,0.0,0.0,0.0,0.0,0.0,0.0,0.0,0.0,0.0,0.0,0.0,0.0,0.0,0.0,0.0,0.0,0.0,0.0,0.0,0.0,0.0,0.0,0.0,0.0,0.0,0.0,0.0,0.0,0.0,0.0,0.0,0.0,0.0,0.0,0.0,0.0,0.0,0.0,0.0,0.0,0.0,0.0,0.0,0.0,0.0,0.0,0.0,0.0,0.0,0.0,0.0,0.0,0.0,0.0,0.0,0.0,0.0,0.0,0.0,0.0,0.0,0.0,0.0,0.0,0.0,0.0,0.0,0.0,0.0,0.0,0.0,0.0,0.0,0.0,0.0,0.0,0.0,0.0,0.0,0.0,0.0,0.0,0.0,0.0,0.0,0.0,0.0,0.0,0.0,0.0,0.0,0.0,0.0,0.0,0.0,0.0,0.0,0.0,0.0,0.0,0.0,0.0,0.0,0.0,0.0,0.0,0.0,0.0,0.0,0.0,0.0,0.0,0.0,0.0,0.0,0.0,0.0,0.0,0.0,0.0,0.0,0.0,0.0,0.0,0.0,0.0,0.0,0.0,0.0,0.0,0.0,0.0,0.0,0.0,0.0,0.0,0.0,0.0,0.0,0.0,0.0,0.0,0.0,0.0,0.0,0.0,0.0,0.0,0.0,0.0,0.0,0.0,0.0,0.0,0.0,0.0,0.0,0.0,0.0,0.0,0.0,0.0,0.0,0.0,0.0,0.0,0.0,0.0,0.0,0.0,0.0,0.0,0.0,0.0,0.0,0.0,0.0,0.0,0.0,0.0,0.0,0.0,0.0,0.0,0.0,0.0,0.0,0.0,0.0,0.0,0.0,0.0,0.0,0.0,0.0,0.0,0.0,0.0,0.0,0.0,0.0,0.0,0.0,0.0,0.0,0.0,0.0,0.0,0.0,0.0,0.0,0.0,0.0,0.0,0.0,0.0,0.0,0.0,0.0,0.0,0.0,0.0,0.0,0.0,0.0,0.0,0.0,0.0,0.0,0.0,0.0,0.0,0.0,0.0,0.0,0.0,0.0,0.0,0.0,0.0,0.0,0.0,0.0,0.0,0.0,0.0,0.0,0.0,0.0,0.0,0.0,0.0,0.0,0.0,0.0,0.0,0.0,0.0,0.0,0.0,0.0,0.0,0.0,0.0,0.0,0.0,0.0,0.0,0.0,0.0,0.0,0.0,0.0,0.0,0.0,0.0,0.0,0.0,0.0,0.0,0.0,0.0,0.0,0.0,0.0,0.0,0.0,0.0,0.0,0.0,0.0,0.0,0.0,0.0,0.0,0.0,0.0,0.0,0.0,0.0,0.0,0.0,0.0,0.0,0.0,0.0,0.0,0.0,0.0,0.0,0.0,0.0,0.0,0.0,0.0,0.0,0.0,0.0,0.0,0.0,0.0,0.0,0.0,0.0,0.0,0.0,0.0,0.0,0.0,0.0,0.0,0.0,0.0,0.0,0.0,0.0,0.0,0.0,0.0,0.0,0.0,0.0,0.0,0.0,0.0,0.0,0.0,0.0,0.0,0.0,0.0,0.0,0.0,0.0,0.0,0.0,0.0,0.0,0.0,0.0,0.0,0.0,0.0,0.0,0.0,0.0,0.0,0.0,0.0,0.0,0.0,2.7782,0.0,0.0,0.0,0.0,0.0,0.0,0.0,0.0,0.0,0.0,0.0,0.0,0.0,0.0,0.0,0.0,0.0,0.0,0.0,0.0,0.0,0.0,0.0,0.0,0.0,0.0,0.0,0.0,0.0,0.0,0.0,0.0,0.0,0.0,0.0,0.0,0.0,0.0,0.0,0.0,0.0,0.0,0.0,0.0,0.0,0.0,0.0,0.0,0.0,0.0,0.0,0.0,0.0,0.0,0.0,0.0,0.0,0.0,0.0,0.0,0.0,0.0,0.0,0.0,0.0,0.0,0.0,0.0,0.0,0.0,0.0,0.0,0.0,0.0,0.0,0.0,0.0,0.0,0.0,0.0,0.0,0.0,0.0,0.0,0.0,0.0,0.0,0.0,0.0,0.0,0.0,0.0,0.0,0.0,0.0,0.0,0.0,0.0,0.0,0.0,0.0,0.0,0.0,0.0,0.0,0.0,0.0,0.0,0.0,0.0,2.8488,2.8628,2.8721,2.8528,2.8023,0.0,0.0,0.0,0.0,0.0,0.0,0.0,0.0,0.0,0.0,0.0,0.0,0.0,0.0,0.0,0.0,0.0,0.0,0.0,0.0,0.0,0.0,0.0,0.0,0.0,0.0,0.0,0.0,0.0,0.0,0.0,0.0,0.0,0.0,0.0,0.0,0.0,0.0,0.0,0.0,0.0,0.0,0.0,0.0,0.0,0.0,0.0,0.0,0.0,0.0,0.0,0.0,0.0,0.0,0.0,0.0,0.0,0.0,0.0,0.0,0.0,0.0,0.0,0.0,0.0,0.0,0.0,0.0,0.0,0.0,0.0,0.0,0.0,0.0,0.0,0.0,0.0,0.0,0.0,0.0,0.0,0.0,0.0,0.0,0.0,0.0,0.0,0.0,0.0,0.0,0.0,0.0,0.0,0.0,0.0,0.0,0.0,0.0,0.0,0.0,0.0,0.0,0.0,0.0,0.0,0.0,0.0,0.0,0.0,0.0,0.0,0.0,2.8814,2.8617,2.8176,0.0,0.0,0.0,0.0,0.0,0.0,0.0,0.0,0.0,0.0,0.0,0.0,0.0,0.0,0.0,0.0,0.0,0.0,0.0,0.0,0.0,0.0,0.0,0.0,0.0,0.0,0.0,0.0,0.0,0.0,0.0,0.0,0.0,0.0,0.0,0.0,0.0,0.0,0.0,0.0,0.0,0.0,0.0,0.0,0.0,0.0,0.0,0.0,0.0,0.0,0.0,0.0,0.0,0.0,0.0,0.0,0.0,0.0,0.0,0.0,0.0,0.0,0.0,0.0,0.0,0.0,0.0,0.0,0.0,0.0,0.0,0.0,0.0,0.0,0.0,0.0,0.0,0.0,0.0,0.0,0.0,0.0,0.0,0.0,0.0,0.0,0.0,0.0,0.0,0.0,0.0,0.0,0.0,0.0,0.0,0.0,0.0,0.0,0.0,0.0,0.0,0.0,0.0,0.0,0.0,0.0,0.0,0.0,0.0,0.0,2.8746,2.8814,2.8814,0.0,2.8727,0.0,0.0,0.0,0.0,0.0,0.0,0.0,0.0,0.0,0.0,0.0,0.0,0.0,0.0,0.0,0.0,0.0,0.0,0.0,0.0,0.0,0.0,0.0,0.0,0.0,0.0,0.0,0.0,0.0,0.0,0.0,0.0,0.0,0.0,0.0,0.0,0.0,0.0,0.0,0.0,0.0,0.0,0.0,0.0,0.0,0.0,0.0,0.0,0.0,0.0,0.0,0.0,0.0,0.0,0.0,0.0,0.0,0.0,0.0,0.0,0.0,0.0,0.0,0.0,0.0,0.0,0.0,0.0,0.0,0.0,0.0,0.0,0.0,0.0,0.0,0.0,0.0,0.0,0.0,0.0,0.0,0.0,0.0,0.0,0.0,0.0,0.0,0.0,0.0,0.0,0.0,0.0,0.0,0.0,0.0,0.0,0.0,0.0,0.0,0.0,0.0,0.0,0.0,0.0,0.0,0.0,0.0,0.0,0.0,0.0,2.8814,2.8814,2.8814,2.8814,0.0,0.0,0.0,0.0,0.0,0.0,0.0,0.0,0.0,0.0,0.0,0.0,0.0,0.0,0.0,0.0,0.0,0.0,0.0,0.0,0.0,0.0,0.0,0.0,0.0,0.0,0.0,0.0,0.0,0.0,0.0,0.0,0.0,0.0,0.0,0.0,0.0,0.0,0.0,0.0,0.0,0.0,0.0,0.0,0.0,0.0,0.0,0.0,0.0,0.0,0.0,0.0,0.0,0.0,0.0,0.0,0.0,0.0,0.0,0.0,0.0,0.0,0.0,0.0,0.0,0.0,0.0,0.0,0.0,0.0,0.0,0.0,0.0,0.0,0.0,0.0,0.0,0.0,0.0,0.0,0.0,0.0,0.0,0.0,0.0,0.0,0.0,0.0,0.0,0.0,0.0,0.0,0.0,0.0,0.0,0.0,0.0,0.0,0.0,0.0,0.0,0.0,0.0,0.0,0.0,0.0,0.0,0.0,0.0,0.0,2.8918,2.8989,2.8989,2.888,2.8814,2.8814,0.0,0.0,0.0,0.0,0.0,0.0,0.0,0.0,0.0,0.0,0.0,0.0,0.0,0.0,0.0,0.0,0.0,0.0,0.0,0.0,0.0,0.0,0.0,0.0,0.0,0.0,0.0,0.0,0.0,0.0,0.0,0.0,0.0,0.0,0.0,0.0,0.0,0.0,0.0,0.0,0.0,0.0,0.0,0.0,0.0,0.0,0.0,0.0,0.0,0.0,0.0,0.0,0.0,0.0,0.0,0.0,0.0,0.0,0.0,0.0,0.0,0.0,0.0,0.0,0.0,0.0,0.0,0.0,0.0,0.0,0.0,0.0,0.0,0.0,0.0,0.0,0.0,0.0,0.0,0.0,0.0,0.0,0.0,0.0,0.0,0.0,0.0,0.0,0.0,0.0,0.0,0.0,0.0,0.0,0.0,0.0,0.0,0.0,0.0,0.0,0.0,0.0,0.0,0.0,0.0,0.0,0.0,0.0,2.9445,2.9445,2.9445,2.9445,2.9055,2.8814,0.0,0.0,0.0,0.0,0.0,0.0,0.0,0.0,0.0,0.0,0.0,0.0,0.0,0.0,0.0,0.0,0.0,0.0,0.0,0.0,0.0,0.0,0.0,0.0,0.0,0.0,0.0,0.0,0.0,0.0,0.0,0.0,0.0,0.0,0.0,0.0,0.0,0.0,0.0,0.0,0.0,0.0,0.0,0.0,0.0,0.0,0.0,0.0,0.0,0.0,0.0,0.0,0.0,0.0,0.0,0.0,0.0,0.0,0.0,0.0,0.0,0.0,0.0,0.0,0.0,0.0,0.0,0.0,0.0,0.0,0.0,0.0,0.0,0.0,0.0,0.0,0.0,0.0,0.0,0.0,0.0,0.0,0.0,0.0,0.0,0.0,0.0,0.0,0.0,0.0,0.0,0.0,0.0,0.0,0.0,0.0,0.0,0.0,0.0,0.0,0.0,0.0,0.0,0.0,0.0,0.0,0.0,0.0,0.0,2.9947,2.9947,2.9816,2.9489,2.9361,2.9121,0.0,0.0,0.0,0.0,0.0,0.0,0.0,0.0,0.0,0.0,0.0,0.0,0.0,0.0,0.0,0.0,0.0,0.0,0.0,0.0,0.0,0.0,0.0,0.0,0.0,0.0,0.0,0.0,0.0,0.0,0.0,0.0,0.0,0.0,0.0,0.0,0.0,0.0,0.0,0.0,0.0,0.0,0.0,0.0,0.0,0.0,0.0,0.0,0.0,0.0,0.0,0.0,0.0,0.0,0.0,0.0,0.0,0.0,0.0,0.0,0.0,0.0,0.0,0.0,0.0,0.0,0.0,0.0,0.0,0.0,0.0,0.0,0.0,0.0,0.0,0.0,0.0,0.0,0.0,0.0,0.0,0.0,0.0,0.0,0.0,0.0,0.0,0.0,0.0,0.0,0.0,0.0,0.0,0.0,0.0,0.0,0.0,0.0,0.0,0.0,0.0,0.0,0.0,0.0,0.0,0.0,0.0,0.0,0.0,3.0428,0.0,3.0275,2.9947,2.9642,2.9314,0.0,0.0,0.0,0.0,0.0,0.0,0.0,0.0,0.0,0.0,0.0,0.0,0.0,0.0,0.0,0.0,0.0,0.0,0.0,0.0,0.0,0.0,0.0,0.0,0.0,0.0,0.0,0.0,0.0,0.0,0.0,0.0,0.0,0.0,0.0,0.0,0.0,0.0,0.0,0.0,0.0,0.0,0.0,0.0,0.0,0.0,0.0,0.0,0.0,0.0,0.0,0.0,0.0,0.0,0.0,0.0,0.0,0.0,0.0,0.0,0.0,0.0,0.0,0.0,0.0,0.0,0.0,0.0,0.0,0.0,0.0,0.0,0.0,0.0,0.0,0.0,0.0,0.0,0.0,0.0,0.0,0.0,0.0,0.0,0.0,0.0,0.0,0.0,0.0,0.0,0.0,0.0,0.0,0.0,0.0,0.0,0.0,0.0,0.0,0.0,0.0,0.0,0.0,0.0,0.0,0.0,0.0,0.0,3.0908,3.0908,3.0908,3.0908,3.0887,3.0035,2.951,0.0,0.0,0.0,0.0,0.0,0.0,0.0,0.0,0.0,0.0,0.0,0.0,0.0,0.0,0.0,0.0,0.0,0.0,0.0,0.0,0.0,0.0,0.0,0.0,0.0,0.0,0.0,0.0,0.0,0.0,0.0,0.0,0.0,0.0,0.0,0.0,0.0,0.0,0.0,0.0,0.0,0.0,0.0,0.0,0.0,0.0,0.0,0.0,0.0,0.0,0.0,0.0,0.0,0.0,0.0,0.0,0.0,0.0,0.0,0.0,0.0,0.0,0.0,0.0,0.0,0.0,0.0,0.0,0.0,0.0,0.0,0.0,0.0,0.0,0.0,0.0,0.0,0.0,0.0,0.0,0.0,0.0,0.0,0.0,0.0,0.0,0.0,0.0,0.0,0.0,0.0,0.0,0.0,0.0,0.0,0.0,0.0,0.0,0.0,0.0,0.0,0.0,0.0,0.0,0.0,0.0,0.0,0.0,0.0,3.1935,3.1935,3.176,3.1411,3.1105,3.0493,0.0,0.0,0.0,0.0,0.0,0.0,0.0,0.0,0.0,0.0,0.0,0.0,0.0,0.0,0.0,0.0,0.0,0.0,0.0,0.0,0.0,0.0,0.0,0.0,0.0,0.0,0.0,0.0,0.0,0.0,0.0,0.0,0.0,0.0,0.0,0.0,0.0,0.0,0.0,0.0,0.0,0.0,0.0,0.0,0.0,0.0,0.0,0.0,0.0,0.0,0.0,0.0,0.0,0.0,0.0,0.0,0.0,0.0,0.0,0.0,0.0,0.0,0.0,0.0,0.0,0.0,0.0,0.0,0.0,0.0,0.0,0.0,0.0,0.0,0.0,0.0,0.0,0.0,0.0,0.0,0.0,0.0,0.0,0.0,0.0,0.0,0.0,0.0,0.0,0.0,0.0,0.0,0.0,0.0,0.0,0.0,0.0,0.0,0.0,0.0,0.0,0.0,0.0,0.0,0.0,0.0,0.0,0.0,0.0,3.3258,3.2932,3.2606,3.2227,3.188,3.1287,3.0319,0.0,0.0,0.0,0.0,0.0,0.0,0.0,0.0,0.0,0.0,0.0,0.0,0.0,0.0,0.0,0.0,0.0,0.0,0.0,0.0,0.0,0.0,0.0,0.0,0.0,0.0,0.0,0.0,0.0,0.0,0.0,0.0,0.0,0.0,0.0,0.0,0.0,0.0,0.0,0.0,0.0,0.0,0.0,0.0,0.0,0.0,0.0,0.0,0.0,0.0,0.0,0.0,0.0,0.0,0.0,0.0,0.0,0.0,0.0,0.0,0.0,0.0,0.0,0.0,0.0,0.0,0.0,0.0,0.0,0.0,0.0,0.0,0.0,0.0,0.0,0.0,0.0,0.0,0.0,0.0,0.0,0.0,0.0,0.0,0.0,0.0,0.0,0.0,0.0,0.0,0.0,0.0,0.0,0.0,0.0,0.0,0.0,0.0,0.0,0.0,0.0,0.0,0.0,0.0,0.0,0.0,0.0,0.0,3.487,3.4052,3.3557,3.3384,3.2545,3.1949,0.0,0.0,0.0,0.0,0.0,0.0,0.0,0.0,0.0,0.0,0.0,0.0,0.0,0.0,0.0,0.0,0.0,0.0,0.0,0.0,0.0,0.0,0.0,0.0,0.0,0.0,0.0,0.0,0.0,0.0,0.0,0.0,0.0,0.0,0.0,0.0,0.0,0.0,0.0,0.0,0.0,0.0,0.0,0.0,0.0,0.0,0.0,0.0,0.0,0.0,0.0,0.0,0.0,0.0,0.0,0.0,0.0,0.0,0.0,0.0,0.0,0.0,0.0,0.0,0.0,0.0,0.0,0.0,0.0,0.0,0.0,0.0,0.0,0.0,0.0,0.0,0.0,0.0,0.0,0.0,0.0,0.0,0.0,0.0,0.0,0.0,0.0,0.0,0.0,0.0,0.0,0.0,0.0,0.0,0.0,0.0,0.0,0.0,0.0,0.0,0.0,0.0,0.0,0.0,0.0,0.0,0.0,0.0,0.0,3.6803,3.732,3.6596,3.4587,3.4118,3.3277,0.0,0.0,0.0,0.0,0.0,0.0,0.0,0.0,0.0,0.0,0.0,0.0,0.0,0.0,0.0,0.0,0.0,0.0,0.0,0.0,0.0,0.0,0.0,0.0,0.0,0.0,0.0,0.0,0.0,0.0,0.0,0.0,0.0,0.0,0.0,0.0,0.0,0.0,0.0,0.0,0.0,0.0,0.0,0.0,0.0,0.0,0.0,0.0,0.0,0.0,0.0,0.0,0.0,0.0,0.0,0.0,0.0,0.0,0.0,0.0,0.0,0.0,0.0,0.0,0.0,0.0,0.0,0.0,0.0,0.0,0.0,0.0,0.0,0.0,0.0,0.0,0.0,0.0,0.0,0.0,0.0,0.0,0.0,0.0,0.0,0.0,0.0,0.0,0.0,0.0,0.0,0.0,0.0,0.0,0.0,0.0,0.0,0.0,0.0,0.0,0.0,0.0,0.0,0.0,0.0,0.0,0.0,0.0,3.7506,3.8183,3.9347,3.9067,3.7103,3.611,3.4884,0.0,0.0,0.0,0.0,0.0,0.0,0.0,0.0,0.0,0.0,0.0,0.0,0.0,0.0,0.0,0.0,0.0,0.0,0.0,0.0,0.0,0.0,0.0,0.0,0.0,0.0,0.0,0.0,0.0,0.0,0.0,0.0,0.0,0.0,0.0,0.0,0.0,0.0,0.0,0.0,0.0,0.0,0.0,0.0,0.0,0.0,0.0,0.0,0.0,0.0,0.0,0.0,0.0,0.0,0.0,0.0,0.0,0.0,0.0,0.0,0.0,0.0,0.0,0.0,0.0,0.0,0.0,0.0,0.0,0.0,0.0,0.0,0.0,0.0,0.0,0.0,0.0,0.0,0.0,0.0,0.0,0.0,0.0,0.0,0.0,0.0,0.0,0.0,0.0,0.0,0.0,0.0,0.0,0.0,0.0,0.0,0.0,0.0,0.0,0.0,0.0,0.0,0.0,0.0,0.0,0.0,0.0,0.0,3.8728,3.9369,4.0751,4.1133,4.0369,3.8229,3.6513,0.0,0.0,0.0,0.0,0.0,0.0,0.0,0.0,0.0,0.0,0.0,0.0,0.0,0.0,0.0,0.0,0.0,0.0,0.0,0.0,0.0,0.0,0.0,0.0,0.0,0.0,0.0,0.0,0.0,0.0,0.0,0.0,0.0,0.0,0.0,0.0,0.0,0.0,0.0,0.0,0.0,0.0,0.0,0.0,0.0,0.0,0.0,0.0,0.0,0.0,0.0,0.0,0.0,0.0,0.0,0.0,0.0,0.0,0.0,0.0,0.0,0.0,0.0,0.0,0.0,0.0,0.0,0.0,0.0,0.0,0.0,0.0,0.0,0.0,0.0,0.0,0.0,0.0,0.0,0.0,0.0,0.0,0.0,0.0,0.0,0.0,0.0,0.0,0.0,0.0,0.0,0.0,0.0,0.0,0.0,0.0,0.0,0.0,0.0,0.0,0.0,0.0,0.0,0.0,0.0,0.0,0.0,0.0,4.0553,4.1629,4.2787,4.3219,4.3088,3.9779,3.7363,0.0,0.0,0.0,0.0,0.0,0.0,0.0,0.0,0.0,0.0,0.0,0.0,0.0,0.0,0.0,0.0,0.0,0.0,0.0,0.0,0.0,0.0,0.0,0.0,0.0,0.0,0.0,0.0,0.0,0.0,0.0,0.0,0.0,0.0,0.0,0.0,0.0,0.0,0.0,0.0,0.0,0.0,0.0,0.0,0.0,0.0,0.0,0.0,3.7763,0.0,0.0,0.0,0.0,0.0,0.0,0.0,0.0,0.0,0.0,0.0,0.0,0.0,0.0,0.0,0.0,0.0,0.0,0.0,0.0,0.0,0.0,0.0,0.0,0.0,0.0,0.0,0.0,0.0,0.0,0.0,0.0,0.0,0.0,0.0,0.0,0.0,0.0,0.0,0.0,0.0,0.0,0.0,0.0,0.0,0.0,0.0,0.0,0.0,0.0,0.0,0.0,0.0,0.0,0.0,0.0,0.0,0.0,0.0,4.1505,4.2726,4.3709,4.4102,4.3796,4.1475,3.954,0.0,0.0,0.0,0.0,0.0,0.0,0.0,0.0,0.0,0.0,0.0,0.0,0.0,0.0,0.0,0.0,0.0,0.0,0.0,0.0,0.0,0.0,0.0,0.0,0.0,0.0,0.0,0.0,0.0,0.0,0.0,0.0,0.0,0.0,0.0,0.0,0.0,0.0,0.0,0.0,0.0,0.0,0.0,0.0,0.0,0.0,0.0,0.0,0.0,0.0,0.0,0.0,0.0,0.0,0.0,0.0,0.0,0.0,0.0,0.0,0.0,0.0,0.0,0.0,0.0,0.0,0.0,0.0,0.0,0.0,0.0,0.0,0.0,0.0,0.0,0.0,0.0,0.0,0.0,0.0,0.0,0.0,0.0,0.0,0.0,0.0,0.0,0.0,0.0,0.0,0.0,0.0,0.0,0.0,0.0,0.0,0.0,0.0,0.0,0.0,0.0,0.0,0.0,0.0,0.0,0.0,0.0,4.065,4.2082,4.3495,4.4298,4.4539,4.4189,4.3189,4.1968,4.0487,0.0,0.0,0.0,0.0,0.0,0.0,0.0,0.0,0.0,0.0,0.0,0.0,0.0,0.0,0.0,0.0,0.0,0.0,0.0,0.0,0.0,0.0,0.0,0.0,0.0,0.0,0.0,0.0,0.0,0.0,0.0,0.0,0.0,0.0,0.0,0.0,0.0,0.0,3.7851,3.9495,0.0,0.0,0.0,0.0,0.0,0.0,0.0,0.0,4.1028,0.0,0.0,0.0,0.0,0.0,0.0,0.0,0.0,0.0,0.0,0.0,0.0,0.0,0.0,0.0,0.0,0.0,0.0,0.0,0.0,0.0,0.0,0.0,0.0,0.0,0.0,0.0,0.0,0.0,0.0,0.0,0.0,0.0,0.0,0.0,0.0,0.0,0.0,0.0,0.0,0.0,0.0,0.0,0.0,0.0,0.0,0.0,0.0,0.0,0.0,0.0,0.0,0.0,0.0,0.0,0.0,4.0159,4.1698,4.3281,4.4888,4.5129,4.5347,4.5587,4.4233,4.317,4.2478,0.0,0.0,0.0,0.0,0.0,0.0,0.0,0.0,0.0,0.0,0.0,0.0,0.0,0.0,0.0,0.0,0.0,0.0,0.0,0.0,0.0,0.0,0.0,0.0,0.0,0.0,0.0,0.0,0.0,0.0,0.0,0.0,0.0,0.0,0.0,0.0,0.0,0.0,0.0,4.1887,4.256,0.0,0.0,0.0,0.0,0.0,0.0,0.0,0.0,4.2539,0.0,0.0,0.0,0.0,0.0,0.0,0.0,0.0,0.0,0.0,0.0,0.0,0.0,0.0,0.0,0.0,0.0,0.0,0.0,0.0,0.0,0.0,0.0,0.0,0.0,0.0,0.0,0.0,0.0,0.0,0.0,0.0,0.0,0.0,0.0,0.0,0.0,0.0,0.0,0.0,0.0,0.0,0.0,0.0,0.0,0.0,0.0,0.0,0.0,0.0,0.0,0.0,0.0,0.0,0.0,4.0675,4.2454,4.4094,4.5423,4.5998,4.6131,4.5821,4.5047,4.4007,0.0,0.0,0.0,0.0,0.0,0.0,0.0,0.0,0.0,0.0,0.0,0.0,0.0,0.0,0.0,0.0,0.0,0.0,0.0,0.0,0.0,0.0,0.0,0.0,0.0,0.0,0.0,0.0,0.0,0.0,0.0,0.0,0.0,0.0,0.0,0.0,0.0,0.0,0.0,0.0,4.3988,4.4567,4.4856,0.0,0.0,0.0,0.0,0.0,0.0,4.5143,4.4814,0.0,0.0,0.0,0.0,0.0,0.0,0.0,0.0,0.0,0.0,0.0,0.0,0.0,0.0,0.0,0.0,0.0,0.0,0.0,0.0,0.0,0.0,0.0,0.0,0.0,0.0,0.0,0.0,0.0,0.0,0.0,0.0,0.0,0.0,0.0,0.0,0.0,0.0,0.0,0.0,0.0,0.0,0.0,0.0,0.0,0.0,0.0,0.0,0.0,0.0,0.0,0.0,0.0,0.0,0.0,4.1685,4.3656,4.521,4.631,4.7341,4.7318,4.622,4.5963,4.4909,0.0,0.0,0.0,0.0,0.0,0.0,0.0,0.0,0.0,0.0,0.0,0.0,0.0,0.0,0.0,0.0,0.0,0.0,0.0,0.0,0.0,0.0,0.0,0.0,0.0,0.0,0.0,0.0,0.0,0.0,0.0,0.0,0.0,0.0,0.0,0.0,0.0,0.0,0.0,0.0,0.0,4.6469,4.7301,4.7209,0.0,0.0,0.0,0.0,4.703,4.7587,0.0,0.0,0.0,0.0,0.0,0.0,0.0,0.0,0.0,0.0,0.0,0.0,0.0,0.0,0.0,0.0,0.0,0.0,0.0,0.0,0.0,0.0,0.0,0.0,0.0,0.0,0.0,0.0,0.0,0.0,0.0,0.0,0.0,0.0,0.0,0.0,0.0,0.0,0.0,0.0,0.0,0.0,0.0,0.0,0.0,0.0,0.0,0.0,0.0,0.0,0.0,0.0,0.0,0.0,0.0,0.0,4.416,4.5912,4.7376,4.8511,4.9605,4.944,4.7815,4.741,4.6532,0.0,0.0,0.0,0.0,0.0,0.0,0.0,0.0,0.0,0.0,0.0,0.0,0.0,0.0,0.0,0.0,0.0,0.0,0.0,0.0,0.0,0.0,0.0,0.0,0.0,0.0,0.0,0.0,0.0,0.0,0.0,0.0,0.0,0.0,0.0,0.0,0.0,0.0,0.0,0.0,0.0,4.7868,4.8734,4.8809,4.863,0.0,0.0,4.9082,5.0116,5.0712,0.0,0.0,0.0,0.0,0.0,0.0,0.0,0.0,0.0,0.0,0.0,0.0,0.0,0.0,0.0,0.0,0.0,0.0,0.0,0.0,0.0,0.0,0.0,0.0,0.0,0.0,0.0,0.0,0.0,0.0,0.0,0.0,0.0,0.0,0.0,0.0,0.0,0.0,0.0,0.0,0.0,0.0,0.0,0.0,0.0,0.0,0.0,0.0,0.0,0.0,0.0,0.0,0.0,0.0,0.0,4.2675,4.517,4.7334,4.898,5.0025,5.0853,5.054,4.9235,4.8433,4.7207,0.0,0.0,0.0,0.0,0.0,0.0,0.0,0.0,0.0,0.0,0.0,0.0,0.0,0.0,0.0,0.0,0.0,0.0,0.0,0.0,0.0,0.0,0.0,0.0,0.0,0.0,0.0,0.0,0.0,0.0,0.0,0.0,0.0,0.0,0.0,0.0,0.0,0.0,0.0,0.0,0.0,0.0,5.0444,5.1204,0.0,0.0,0.0,5.133,5.1808,0.0,0.0,0.0,0.0,0.0,0.0,0.0,0.0,0.0,0.0,0.0,0.0,0.0,0.0,0.0,0.0,0.0,0.0,0.0,0.0,0.0,0.0,0.0,0.0,0.0,0.0,0.0,0.0,0.0,0.0,0.0,0.0,0.0,0.0,0.0,0.0,0.0,0.0,0.0,0.0,0.0,0.0,0.0,0.0,0.0,0.0,0.0,0.0,0.0,0.0,0.0,0.0,0.0,0.0,0.0,0.0,0.0,4.6389,4.8794,5.0496,5.1563,5.2067,5.1768,5.0528,4.947,0.0,0.0,0.0,0.0,0.0,0.0,0.0,0.0,0.0,0.0,0.0,0.0,0.0,0.0,0.0,0.0,0.0,0.0,0.0,0.0,0.0,0.0,0.0,0.0,0.0,0.0,0.0,3.7148,0.0,0.0,0.0,0.0,0.0,0.0,0.0,0.0,0.0,0.0,0.0,0.0,0.0,0.0,5.0804,5.2041,5.3182,5.3784,0.0,0.0,5.3453,5.3479,5.3656,5.3196,0.0,0.0,0.0,0.0,0.0,0.0,0.0,0.0,0.0,0.0,0.0,0.0,0.0,0.0,0.0,0.0,0.0,0.0,0.0,0.0,0.0,0.0,0.0,0.0,0.0,0.0,0.0,0.0,0.0,0.0,0.0,0.0,0.0,0.0,0.0,0.0,0.0,0.0,0.0,0.0,0.0,0.0,0.0,0.0,0.0,0.0,0.0,0.0,0.0,0.0,0.0,0.0,0.0,0.0,4.5171,4.8353,5.056,5.2143,5.3207,5.3767,5.3292,5.1661,5.0691,4.9209,0.0,0.0,0.0,0.0,0.0,0.0,0.0,0.0,0.0,0.0,0.0,0.0,0.0,0.0,0.0,0.0,0.0,0.0,0.0,0.0,0.0,0.0,0.0,0.0,0.0,0.0,0.0,0.0,0.0,0.0,0.0,0.0,0.0,0.0,0.0,0.0,0.0,0.0,0.0,0.0,0.0,5.1774,5.3199,5.4202,5.4945,0.0,5.5483,5.5509,5.5483,5.679,5.6739,5.3561,0.0,0.0,0.0,0.0,0.0,0.0,0.0,0.0,0.0,0.0,0.0,0.0,0.0,0.0,0.0,0.0,0.0,0.0,0.0,0.0,0.0,0.0,0.0,0.0,0.0,0.0,0.0,0.0,0.0,0.0,0.0,0.0,0.0,0.0,0.0,0.0,0.0,0.0,0.0,0.0,0.0,0.0,0.0,0.0,0.0,0.0,0.0,0.0,0.0,0.0,0.0,0.0,0.0,4.6113,4.9106,5.1536,5.3306,5.4392,5.4299,5.3726,5.2789,5.1534,5.0007,0.0,0.0,0.0,0.0,0.0,0.0,0.0,0.0,0.0,0.0,0.0,0.0,0.0,0.0,0.0,0.0,0.0,0.0,0.0,0.0,0.0,0.0,0.0,0.0,0.0,0.0,0.0,0.0,3.8787,3.8937,3.9285,0.0,0.0,0.0,0.0,0.0,0.0,0.0,0.0,0.0,0.0,5.2987,5.5373,5.6328,0.0,0.0,5.7423,5.7397,5.6655,5.7021,5.6659,5.4867,5.3211,0.0,0.0,0.0,0.0,0.0,0.0,0.0,0.0,0.0,0.0,0.0,0.0,0.0,0.0,0.0,0.0,0.0,0.0,0.0,0.0,0.0,0.0,0.0,0.0,0.0,0.0,0.0,0.0,0.0,0.0,0.0,0.0,0.0,0.0,0.0,0.0,0.0,0.0,0.0,0.0,0.0,0.0,0.0,0.0,0.0,0.0,0.0,0.0,0.0,0.0,0.0,0.0,4.6469,4.9213,5.1654,5.3426,5.455,5.4184,5.3766,5.34,5.2059,5.0545,0.0,0.0,0.0,0.0,0.0,0.0,0.0,0.0,0.0,0.0,0.0,0.0,0.0,0.0,0.0,0.0,0.0,0.0,0.0,0.0,0.0,0.0,0.0,0.0,0.0,0.0,0.0,0.0,3.9623,3.9798,4.014,0.0,0.0,0.0,0.0,0.0,0.0,0.0,0.0,0.0,0.0,5.4398,5.6744,5.7733,5.8167,5.8167,5.8505,5.8381,5.7674,5.7286,5.6755,5.5699,0.0,0.0,0.0,0.0,0.0,0.0,0.0,0.0,0.0,0.0,0.0,0.0,0.0,0.0,0.0,0.0,0.0,0.0,0.0,0.0,0.0,0.0,0.0,0.0,0.0,0.0,0.0,3.2857,0.0,0.0,3.2382,0.0,0.0,0.0,0.0,0.0,0.0,0.0,0.0,0.0,0.0,0.0,0.0,0.0,0.0,0.0,0.0,0.0,0.0,0.0,0.0,0.0,0.0,4.6128,4.8583,5.0689,5.2276,5.3452,5.3426,5.3426,5.3373,5.2223,5.0949,4.9473,0.0,0.0,0.0,0.0,0.0,0.0,0.0,0.0,0.0,0.0,0.0,0.0,0.0,0.0,0.0,0.0,0.0,0.0,0.0,0.0,0.0,0.0,0.0,0.0,0.0,0.0,4.1229,4.1468,4.1724,0.0,0.0,0.0,0.0,0.0,0.0,0.0,0.0,0.0,5.1514,5.3849,5.5779,5.7014,5.7945,5.8549,5.8549,5.8575,5.8549,5.8426,5.8,5.7242,0.0,0.0,0.0,0.0,0.0,0.0,0.0,0.0,0.0,0.0,0.0,0.0,0.0,0.0,0.0,0.0,0.0,0.0,0.0,0.0,0.0,0.0,0.0,0.0,0.0,0.0,0.0,3.4453,3.4753,0.0,0.0,0.0,0.0,0.0,0.0,0.0,0.0,0.0,0.0,0.0,4.0536,4.1601,0.0,0.0,0.0,0.0,0.0,0.0,0.0,0.0,0.0,0.0,0.0,0.0,4.727,4.9403,5.1273,5.2955,5.4445,5.3792,5.3583,5.3896,5.2798,5.1309,4.9281,0.0,0.0,0.0,0.0,0.0,0.0,0.0,0.0,0.0,0.0,0.0,0.0,0.0,0.0,0.0,0.0,0.0,0.0,0.0,0.0,0.0,0.0,0.0,0.0,0.0,4.2109,0.0,0.0,0.0,0.0,0.0,0.0,0.0,0.0,0.0,0.0,4.8731,5.1125,5.3749,5.5267,5.6915,5.9088,5.9368,5.956,0.0,0.0,0.0,0.0,0.0,0.0,0.0,0.0,0.0,0.0,0.0,0.0,0.0,0.0,5.3635,5.1315,5.0959,5.1152,5.1544,0.0,0.0,0.0,0.0,0.0,0.0,0.0,0.0,0.0,0.0,0.0,0.0,0.0,0.0,3.7042,3.7242,3.733,0.0,0.0,0.0,0.0,0.0,0.0,0.0,0.0,4.1966,4.2649,4.2874,4.3954,4.4635,4.4886,4.4741,4.3849,0.0,0.0,0.0,0.0,0.0,0.0,0.0,0.0,4.7652,4.9584,5.1126,5.2642,5.4079,5.3687,5.3661,5.4158,5.3086,5.1622,4.974,4.8544,4.71,0.0,0.0,0.0,0.0,0.0,0.0,0.0,0.0,0.0,0.0,0.0,0.0,0.0,0.0,0.0,0.0,0.0,0.0,0.0,0.0,0.0,0.0,0.0,4.3441,0.0,0.0,0.0,0.0,0.0,0.0,0.0,0.0,0.0,4.9451,5.0861,5.306,5.616,5.6997,5.7996,5.9941,0.0,0.0,0.0,0.0,0.0,0.0,0.0,5.8822,5.8384,5.7634,5.7311,5.7843,5.7738,5.7676,5.7815,0.0,0.0,5.3962,5.34,5.3452,5.3635,5.4158,5.4628,5.4759,5.5282,5.57,0.0,0.0,0.0,0.0,3.464,0.0,0.0,0.0,4.0248,4.0587,0.0,4.0419,0.0,0.0,0.0,0.0,4.073,4.1773,0.0,0.0,4.4438,4.5114,4.5685,4.6021,4.6386,4.6586,4.6813,4.68,4.6434,4.4335,0.0,0.0,0.0,0.0,0.0,0.0,4.7184,4.9172,5.0289,5.1387,5.2589,5.3112,5.3661,5.4158,5.3138,5.1988,5.0838,4.9191,4.7873,4.6933,4.5322,0.0,0.0,0.0,0.0,0.0,0.0,0.0,0.0,0.0,0.0,0.0,0.0,0.0,0.0,0.0,0.0,0.0,0.0,0.0,0.0,4.4833,0.0,0.0,0.0,0.0,0.0,0.0,0.0,0.0,0.0,5.2669,5.3628,5.3673,5.4863,5.8545,0.0,0.0,0.0,0.0,6.0507,5.9868,6.0181,6.0341,6.0056,5.9985,5.9842,5.9529,0.0,0.0,6.0011,5.9607,5.9431,5.9755,5.9808,5.9173,5.7397,5.6866,5.6588,5.6144,5.6484,5.6667,5.6249,5.6615,5.6928,3.8569,0.0,0.0,0.0,0.0,3.8547,3.9465,4.0519,4.1188,4.1604,4.1886,4.2423,0.0,0.0,0.0,0.0,0.0,0.0,4.4325,4.5391,4.6638,4.7231,4.7219,4.8323,4.8932,4.8962,4.8671,4.843,4.8297,4.7271,4.5875,4.4176,0.0,0.0,0.0,0.0,4.9042,5.0048,5.118,5.2397,5.3687,5.3504,5.3661,5.4184,5.3504,5.2589,5.1413,5.0524,4.9401,4.7899,4.7351,0.0,0.0,0.0,0.0,0.0,0.0,0.0,0.0,0.0,0.0,0.0,0.0,0.0,0.0,0.0,0.0,0.0,0.0,0.0,4.5454,4.5634,4.5794,0.0,0.0,0.0,0.0,0.0,0.0,0.0,0.0,0.0,5.7539,5.6867,5.7077,0.0,0.0,6.0505,6.1097,6.1012,6.1279,6.2271,6.1194,0.0,6.179,6.0948,6.0204,6.0349,6.0981,6.149,6.1635,6.1821,6.198,6.2099,6.2126,6.1946,6.1331,5.9713,5.8605,5.8736,5.8735,5.8732,5.8941,5.8836,5.8627,4.2481,4.1368,4.0223,4.0195,4.0893,4.1706,4.2624,4.3513,4.401,4.4445,4.4689,4.4929,4.4692,4.4167,4.4843,0.0,0.0,0.0,4.6286,4.7295,4.8172,4.8635,4.8709,4.9538,5.0118,5.0335,5.001,4.982,4.982,4.9223,4.8109,4.6545,0.0,4.638,4.6701,4.8687,4.9976,5.0585,5.1962,5.3097,5.4013,5.4066,5.4236,5.4524,5.3792,5.306,5.2328,5.1335,5.0185,4.893,4.8433,4.7539,0.0,0.0,0.0,0.0,0.0,0.0,0.0,0.0,0.0,0.0,0.0,4.4087,4.4316,0.0,0.0,0.0,4.6598,4.7146,4.7524,4.7675,0.0,0.0,0.0,0.0,0.0,0.0,0.0,5.3307,5.4754,5.654,5.8814,5.8549,5.9039,6.1803,6.2358,6.262,6.2899,0.0,6.3032,6.3348,6.2469,6.1833,6.2298,6.1715,6.1222,6.1442,6.1953,6.2559,6.2805,6.3145,6.3406,6.358,6.3553,6.358,6.3553,6.2084,6.0864,6.0906,6.0572,6.0408,6.044,6.0079,5.9647,4.6012,4.5859,4.2615,4.2238,4.3929,4.5029,4.612,4.7036,4.7836,4.8082,4.7836,4.7623,4.7432,4.7251,4.7089,0.0,4.764,4.7779,4.8351,4.9196,4.9196,4.9494,5.001,5.0064,5.039,5.0905,5.0905,5.0905,5.0851,5.0281,4.9739,4.914,4.8378,4.8101,4.8412,4.9503,5.0383,5.0916,5.2623,5.3608,5.3836,5.459,5.5034,5.5061,5.3922,5.3321,5.3269,5.1727,5.0577,4.9976,4.8956,4.8094,4.7357,0.0,0.0,0.0,0.0,0.0,0.0,0.0,0.0,0.0,0.0,0.0,0.0,0.0,0.0,4.674,4.8368,0.0,5.0228,5.0504,0.0,0.0,0.0,5.0714,5.1883,5.3106,5.4284,5.5239,0.0,0.0,5.8335,5.8967,6.0729,6.4245,6.4652,6.468,6.4832,6.5188,6.508,6.3764,6.3727,6.3469,6.2538,6.2397,6.2466,6.2466,6.2598,6.2916,6.3406,6.3553,6.38,6.4019,6.4138,6.4083,6.4083,6.3584,6.3292,6.2385,6.1993,6.1595,6.1,6.0519,6.0039,4.6544,4.7234,4.6378,4.6279,4.6756,4.7287,4.7647,4.7891,4.8137,4.8192,4.8164,4.8517,4.8922,4.9268,4.8295,4.8432,4.9324,4.8948,4.9139,4.9793,4.9793,4.9874,5.001,5.0471,5.077,5.0905,5.0905,5.0905,5.0878,5.0281,4.9928,4.9793,4.9601,4.9272,4.8973,5.0336,5.1105,5.1186,5.2527,5.3521,5.4219,5.4126,5.4366,5.4761,5.3424,5.272,5.2694,5.1884,5.1152,5.0603,5.0315,4.9505,4.8041,4.7728,0.0,0.0,0.0,0.0,0.0,0.0,0.0,0.0,0.0,4.6662,4.7231,0.0,4.8845,0.0,5.0516,5.1602,5.2681,5.2846,0.0,0.0,5.3234,5.3251,5.3815,5.4971,5.5566,5.5253,5.7068,5.8484,5.8774,5.9792,6.1098,6.297,6.2741,6.3127,6.5199,6.4859,6.4833,6.5815,6.4744,6.3966,6.4156,6.3399,6.2571,6.2598,6.2768,6.3064,6.3212,6.3259,6.3259,6.3306,6.3058,6.2817,6.279,6.2718,6.2618,6.2365,6.2365,6.2259,6.1804,6.0949,6.0169,4.7077,4.8096,4.8306,4.8695,4.914,4.9054,4.8978,4.8978,4.8679,4.8734,4.9005,4.9359,4.9711,4.9956,4.9331,4.9386,4.9956,4.9684,4.9684,5.001,5.001,5.001,5.0037,5.0607,5.0905,5.0905,5.1177,5.115,5.0878,5.058,5.0254,5.001,5.001,4.9847,4.9547,5.0624,5.1323,5.1534,5.2843,5.3877,5.46,5.4219,5.4123,5.4285,5.3249,5.2675,5.2485,5.1701,5.0969,5.042,5.0159,4.9453,4.8277,4.7937,4.7545,0.0,0.0,0.0,0.0,0.0,0.0,0.0,0.0,0.0,0.0,0.0,5.0857,5.2104,5.3392,5.4263,5.4653,5.4681,5.4578,5.4297,5.4065,5.4199,5.4943,5.5616,5.6124,5.6245,5.7553,5.8456,5.8401,5.9173,6.0296,6.1738,6.1151,6.1755,6.4525,6.4652,6.4719,6.6144,6.4434,6.3,6.346,6.2618,6.2084,6.2518,6.272,6.2916,6.3037,6.3111,6.3031,6.2792,6.2499,6.2206,6.1966,6.1886,6.1886,6.1721,6.1715,6.1785,6.1826,6.1206,6.0535,4.7906,4.8863,4.9199,4.9983,5.0851,5.0254,5.001,4.9983,4.9549,4.9657,5.0118,5.0064,5.001,5.001,5.001,5.001,5.001,5.001,5.001,5.001,5.001,5.001,5.0037,5.0688,5.1014,5.1041,5.1525,5.1557,5.1014,5.0878,5.0525,5.0037,5.001,5.001,5.0037,5.0607,5.1231,5.1936,5.3234,5.4216,5.4808,5.4413,5.4033,5.3832,5.3239,5.276,5.2418,5.1439,5.0629,5.0028,4.9557,4.9035,4.8433,4.7937,4.7618,0.0,4.7407,0.0,0.0,0.0,0.0,0.0,0.0,0.0,0.0,5.144,5.2666,5.446,5.5894,5.6587,5.6197,5.6135,5.5752,5.4709,5.4478,5.4793,5.5918,5.5982,5.6294,5.729,5.7946,5.8144,5.7834,5.8157,5.9131,6.0348,6.0066,6.0606,6.3101,6.3868,6.4284,6.5115,6.3493,6.2095,6.1343,6.108,6.1311,6.208,6.2207,6.2408,6.2624,6.2624,6.2491,6.214,6.1854,6.1688,6.1209,6.113,6.0986,6.0697,6.0684,6.0895,6.129,6.107,6.0535,4.9461,4.9914,4.9776,5.0188,5.0851,5.0254,5.001,5.0037,5.039,5.0634,5.0688,5.02,5.001,5.001,5.001,5.001,5.001,5.001,5.001,5.001,5.001,5.001,5.0064,5.1122,5.1665,5.1665,5.1774,5.1774,5.1638,5.0661,5.0118,5.001,5.001,5.001,5.0037,0.0,0.0,0.0,5.3287,5.3931,5.4472,5.3759,5.3547,5.394,5.2846,0.0,5.2154,5.1695,5.1178,5.0655,5.0524,0.0,0.0,0.0,0.0,0.0,0.0,0.0,0.0,0.0,0.0,0.0,5.316,5.3207,5.2722,5.4093,5.5072,5.5166,5.5675,5.6424,5.7484,5.7594,5.7916,5.8591,5.7941,5.7558,5.7771,5.7368,5.713,5.6946,5.7716,5.8144,5.7791,5.8157,5.862,5.9034,5.9215,5.9627,6.0268,6.1648,6.2987,6.4186,6.3286,6.2076,6.0577,6.0405,6.0431,6.0609,6.0635,6.0734,6.0834,6.0807,6.0781,6.0598,6.023,5.9988,5.983,5.9804,5.9777,5.966,6.0027,6.0321,6.0425,6.0085,5.962,4.968,5.0602,5.0156,5.0492,0.0,5.0715,5.0444,5.0471,5.077,5.0905,5.0851,5.0281,5.001,5.001,5.001,5.001,5.001,5.001,5.001,5.001,5.001,5.001,5.0037,5.096,5.1367,5.1367,5.1367,5.1367,5.1312,5.0444,5.001,5.001,5.001,5.001,5.0037,5.0905,5.1801,5.2723,5.3293,5.3754,5.4026,5.3572,5.345,5.3536,5.2898,0.0,0.0,0.0,0.0,0.0,0.0,0.0,0.0,4.9897,0.0,4.9897,5.0078,5.039,5.1016,5.1755,5.249,5.3015,5.4315,5.4755,5.3983,5.5589,5.6616,5.6702,5.7979,5.88,5.8502,5.8769,5.8794,5.8335,5.7837,5.7486,5.7194,5.6902,5.6648,5.6463,5.7093,5.7557,5.7721,5.8157,5.8497,5.8523,5.8732,5.8967,5.9065,5.994,6.1051,6.1495,6.1949,6.1434,6.0145,5.9803,5.9908,6.0117,6.0222,6.0222,6.0222,6.0222,6.0117,5.9856,5.9542,5.9281,5.8967,5.8732,5.8601,5.8862,5.8941,5.9098,5.9307,5.9359,5.9281,5.0117,5.1393,5.0741,5.0982,5.1742,5.1177,5.096,5.1068,5.1068,0.0,0.0,5.039,5.0118,5.001,5.001,5.001,5.001,5.001,5.001,5.001,5.001,5.001,5.0037,5.0607,5.096,5.1068,5.096,5.0932,5.1014,5.0363,5.001,5.001,5.001,5.0064,5.0227,5.1285,5.2126,5.2696,5.3293,5.3592,5.3592,5.3592,5.347,5.3193,5.3132,5.2826,5.2306,5.1733,5.1259,5.0909,5.0376,5.0054,5.0054,5.0054,5.008,5.0185,5.0454,5.0838,5.1294,5.2094,5.279,5.3196,5.4671,5.545,5.5022,5.6414,5.7339,5.7578,5.9745,6.042,5.8804,5.9128,5.8845,5.7161,5.6954,5.6719,5.617,5.5961,5.5961,5.6092,5.6536,5.7033,5.7651,5.8157,5.8523,5.8594,5.8691,5.8664,5.8717,5.9188,5.9372,5.9095,6.0005,6.043,5.9515,5.9228,5.9411,5.9751,5.9856,5.9908,5.9908,5.9908,5.9725,5.9307,5.9202,5.8967,5.847,5.8026,5.7843,5.8261,5.8,5.7843,5.8392,5.8889,5.9045,5.2342,5.278,5.1922,5.1647,5.1774,5.115,5.1204,5.1692,5.1692,5.1394,5.0878,5.0797,5.0471,5.001,5.001,5.001,5.001,5.001,5.001,5.001,5.001,5.001,5.0037,5.0607,5.1177,5.1638,5.115,5.1177,5.1529,5.0553,5.001,5.001,5.001,5.0254,5.077,5.1475,5.2126,5.2723,5.3293,5.3592,5.3592,5.3592,5.3592,5.3531,5.3254,5.3071,5.2922,5.235,5.1778,5.1215,5.0891,5.0655,5.0655,5.0655,5.0864,5.1309,5.1423,5.2032,5.3361,5.4137,5.4915,5.5832,5.5498,5.5472,5.6271,5.6817,5.6677,5.5736,5.6836,5.7264,5.7161,5.7758,5.8006,5.7642,5.7529,5.7294,5.6693,5.6196,5.6092,5.6536,5.6745,5.7033,5.7651,5.8227,5.8664,5.8947,5.9017,5.9088,5.9308,5.9421,5.9169,5.8732,5.9136,5.9312,5.8829,5.8653,5.8706,5.8732,5.8784,5.881,5.8836,5.8836,5.8784,5.8679,5.8653,5.8418,5.7921,5.7808,5.7756,5.7887,5.7782,5.7913,5.8392,5.8601,5.8601,5.2553,5.2807,5.2601,5.2436,5.2289,5.1991,5.1665,5.1421,5.2045,5.1774,5.0878,5.058,5.0254,5.001,5.001,5.001,5.001,5.001,5.001,5.001,5.001,5.001,5.0037,5.0281,5.0743,5.1258,5.0715,5.0743,5.1177,5.0444,5.001,5.001,5.001,5.0146,5.0444,5.1014,5.1611,5.2176,5.313,5.3592,5.3592,5.3592,5.3592,5.3592,5.341,5.3315,5.3132,5.2799,5.2385,5.1725,5.1601,5.1416,5.123,5.1416,5.1583,5.1846,5.2032,5.2545,5.3378,5.4129,5.4849,5.5696,5.5339,5.5299,5.5776,5.6405,5.6536,5.6039,5.7073,5.7662,5.7249,5.7713,5.7853,5.7259,5.719,5.6954,5.6432,5.6118,5.604,5.6301,5.682,5.7377,5.793,5.8648,5.9158,5.9368,5.9368,5.9438,5.9552,5.9581,5.9334,5.8955,5.8874,5.8627,5.8183,5.834,5.8235,5.7712,5.7843,5.8,5.8052,5.8052,5.8183,5.8418,5.8287,5.7974,5.773,5.7399,5.7373,5.7704,5.773,5.7895,5.8314,5.8287,5.8052,5.2227,5.249,5.2673,5.2709,5.2577,5.2501,5.2045,5.1394,5.2018,5.1774,5.0905,5.0417,5.0146,5.001,5.001,5.001,5.001,5.001,5.001,5.001,5.001,5.001,5.001,5.001,5.0308,5.077,5.0281,5.0308,5.077,5.0308,5.001,5.001,5.001,5.001,5.0037,5.0743,5.1285,5.1692,5.2913,5.3592,5.3592,5.3592,5.3592,5.3592,5.3592,5.347,5.3227,5.3132,5.2861,5.2368,5.2183,5.1996,5.1721,5.1934,5.2121,5.2121,5.2474,5.2872,5.3297,5.3948,5.4602,5.5046,5.5099,5.5099,5.5165,5.5776,5.6275,5.6394,5.7401,5.7949,5.7264,5.7651,5.7674,5.6709,5.6588,5.6353,5.583,5.5726,5.5793,5.5913,5.6762,5.7625,5.8144,5.8987,5.9621,5.9718,5.9681,5.9643,5.9643,5.9574,5.9462,5.9183,5.8736,5.8219,5.7747,5.7861,5.7686,5.6902,5.7163,5.7503,5.7678,5.7608,5.7791,5.8235,5.8052,5.7808,5.7704,5.7346,5.7268,5.7651,5.7599,5.7582,5.7895,5.7582,5.7268,5.2015,5.1869,5.1869,5.2031,5.2224,5.2063,5.2122,5.2343,5.1529,5.1014,5.0905,5.0824,5.0498,5.0037,5.001,5.001,5.001,5.001,5.001,5.001,5.001,5.001,5.001,5.001,5.0335,5.0743,5.0281,5.0308,5.077,5.0308,5.001,5.001,5.001,5.001,5.0118,5.115,5.1475,5.1041,5.2696,5.3592,5.3592,5.3592,5.3592,5.3592,5.3592,5.3592,5.3531,5.3254,5.3071,5.2983,5.243,5.2121,5.2059,5.2121,5.2121,5.2147,5.2685,5.326,5.3988,5.4654,5.502,5.5072,5.5099,5.5099,5.5099,5.5232,5.5232,5.5444,5.5838,5.6235,5.6138,5.661,5.6689,5.6107,5.5987,5.5778,5.5334,5.5177,5.5311,5.5617,5.666,5.7535,5.7993,5.8929,5.9707,6.0027,5.983,5.9765,5.9697,5.9466,5.9275,5.9139,5.8684,5.8032,5.7594,5.7135,5.7128,5.6876,5.685,5.7085,5.7294,5.719,5.7216,5.8052,5.7974,5.7678,5.7678,5.7651,5.7625,5.739,5.7163,5.6928,5.6902,5.6588,5.6249,5.1554,5.1962,5.2181,5.2303,5.2432,5.2487,5.2317,5.1831,5.1986,5.1584,5.0932,5.0905,5.0553,5.001,5.001,5.001,5.001,5.001,5.001,5.001,5.001,5.001,5.001,5.001,5.0146,5.0335,5.0118,5.0146,5.0281,5.0146,5.001,5.001,5.001,5.001,5.0037,5.0498,5.077,5.0932,5.1611,5.2343,5.3049,5.3429,5.3592,5.3592,5.3592,5.3592,5.3592,5.347,5.3288,5.3132,5.2799,5.2615,5.2404,5.2404,5.2589,5.2899,5.3583,5.4167,5.4446,5.4918,5.5099,5.5099,5.5099,5.5099,5.5099,5.5099,5.5099,5.5125,5.5308,5.5438,5.5465,5.5647,5.57,5.5465,5.5438,5.5334,5.5125,5.5272,5.5472,5.5683,5.6718,5.7651,5.8228,5.9155,5.9776,5.9954,5.9657,5.9399,5.9371,5.921,5.8981,5.8616,5.8107,5.8038,5.8005,5.819,5.7667,5.6915,5.6725,5.6902,5.6588,5.6484,5.6667,5.7817,5.7503,5.7216,5.7137,5.7399,5.7599,5.7085,5.6902,5.6719,5.6353,5.6092,5.583,5.0928,5.1724,5.213,5.2332,5.2492,5.2799,5.244,5.1776,5.229,5.1804,5.0569,5.0412,4.9836,4.9098,4.9301,4.9301,4.9045,4.9301,4.9472,4.9529,4.984,5.001,5.001,5.001,5.001,5.001,5.001,5.001,5.001,5.001,5.001,5.001,5.001,5.001,5.0037,5.0146,5.0471,5.0878,5.1177,5.1747,5.2479,5.3212,5.3592,5.3592,5.3592,5.3592,5.3592,5.3592,5.347,5.3227,5.3193,5.2983,5.2738,5.2738,5.2943,5.3494,5.4039,5.4364,5.4366,5.4525,5.4628,5.4654,5.4628,5.4707,5.4811,5.4863,5.4942,5.5099,5.5099,5.5099,5.5099,5.5099,5.5099,5.5099,5.5165,5.5232,5.5232,5.5538,5.5802,5.5987,5.6863,5.7797,5.8429,5.9143,5.9575,5.9589,5.929,5.8883,5.8829,5.8856,5.8802,5.8205,5.8007,5.8053,5.8387,5.8047,5.7656,5.7108,5.6494,5.628,5.5883,5.5857,5.6249,5.7346,5.7007,5.7007,5.7242,5.7451,5.7242,5.6432,5.6223,5.6353,5.5804,5.5778,5.5647,5.0407,5.089,5.1268,5.1707,5.2121,5.2492,5.2535,5.2303,5.2286,5.1129,4.9568,4.9165,4.8084,4.656,4.7652,4.7482,4.6713,4.7684,4.821,4.8384,4.9415,4.9953,5.001,5.001,5.001,5.001,5.001,5.001,5.001,5.001,5.001,5.001,5.001,5.001,5.0064,5.0498,5.0824,5.0905,5.1855,5.2343,5.204,5.2995,5.3565,5.3537,5.3592,5.3592,5.3592,5.3592,5.3592,5.3531,5.3288,5.3132,5.3044,5.3071,5.3243,5.3441,5.3538,5.3578,5.3567,5.3595,5.3621,5.353,5.3674,5.3739,5.4262,5.438,5.4616,5.5046,5.5165,5.5165,5.5165,5.5165,5.5165,5.5165,5.5432,5.5538,5.5604,5.5868,5.6263,5.6605,5.7166,5.7836,5.8789,5.9019,5.9046,5.9019,5.8992,5.8747,5.8313,5.8585,5.853,5.8286,5.8301,5.8614,5.7703,5.7558,5.6957,5.6491,5.6384,5.584,5.5651,5.5726,5.6405,5.6876,5.6771,5.6928,5.7399,5.7373,5.6902,5.6327,5.5909,5.5726,5.5438,5.5674,5.5569,5.0587,5.1309,5.1433,5.16,5.1783,5.2094,5.1883,5.1221,5.1022,5.0159,4.8868,4.8077,4.6964,4.5563,4.5624,4.5899,4.6235,4.6713,4.7306,4.8094,4.8584,4.9244,4.9953,5.001,5.001,5.001,5.001,5.001,5.001,5.001,5.001,5.001,5.001,5.001,5.0064,5.0227,5.0335,5.0417,5.115,5.1638,5.1882,5.2615,5.3022,5.3049,5.3402,5.3592,5.3592,5.3592,5.3592,5.3592,5.347,5.341,5.3464,5.3605,5.3592,5.3521,5.384,5.4007,5.4001,5.399,5.3862,5.367,5.367,5.3777,5.4145,5.4407,5.4774,5.5274,5.5604,5.5736,5.567,5.5538,5.5432,5.5498,5.5736,5.5934,5.6,5.6263,5.6524,5.6735,5.7362,5.8019,5.8247,5.8395,5.8395,5.8367,5.8096,5.7798,5.7635,5.7743,5.7798,5.7608,5.7689,5.7906,5.7992,5.7784,5.7545,5.7077,5.6691,5.6093,5.5773,5.5468,5.5872,5.6327,5.6379,5.6432,5.6745,5.6379,5.6066,5.6118,5.5726,5.5465,5.5151,5.5465,5.5412,5.0715,5.1534,5.1596,5.1408,5.1157,5.1346,5.0737,4.9625,4.96,4.8742,4.7363,4.6722,4.5659,4.4365,4.3844,4.4089,4.4988,4.5329,4.608,4.6917,4.7306,4.8152,4.9244,4.9415,4.9415,4.9358,4.9415,4.9586,4.9953,5.001,5.001,5.001,5.001,5.001,5.001,5.001,5.0091,5.0335,5.0688,5.1204,5.1828,5.2398,5.2723,5.2778,5.3103,5.332,5.332,5.3483,5.3592,5.3592,5.3592,5.3592,5.3585,5.3788,5.3724,5.3468,5.3673,5.385,5.3814,5.3947,5.3847,5.3525,5.3805,5.4111,5.4287,5.4666,5.5128,5.5643,5.5934,5.6132,5.6066,5.6,5.5868,5.5868,5.6066,5.6263,5.6328,5.6616,5.6812,5.6969,5.7369,5.7743,5.777,5.777,5.7798,5.7798,5.7418,5.7201,5.7174,5.7174,5.7174,5.7174,5.7228,5.7445,5.7543,5.7563,5.7623,5.7263,5.6863,5.6319,5.5882,5.5484,5.5389,5.5767,5.5909,5.5909,5.5726,5.5386,5.5412,5.5595,5.5491,5.5229,5.5203,5.5308,5.5308,5.0715,5.1534,5.1596,5.1094,5.0436,5.0257,4.9227,4.8167,4.8054,4.6904,4.5208,4.502,4.4128,4.2749,4.2529,4.2443,4.2822,4.3802,4.4422,4.4767,4.5718,4.6891,4.8035,4.8094,4.8094,4.8094,4.8152,4.8758,4.9756,4.9897,5.001,5.001,5.001,5.001,5.001,5.001,5.0281,5.0661,5.0824,5.1177,5.1801,5.2398,5.2642,5.2588,5.2696,5.2778,5.2723,5.3239,5.3537,5.3592,5.3592,5.3592,5.3592,5.3612,5.3464,5.3274,5.3213,5.3002,5.281,5.3317,5.3423,5.3121,5.3734,5.4347,5.4576,5.4986,5.5492,5.5998,5.6197,5.6197,5.6263,5.6459,5.6459,5.6263,5.6459,5.6682,5.6747,5.7006,5.7174,5.7201,5.7255,5.7201,5.7201,5.7282,5.7309,5.7282,5.7228,5.7174,5.7174,5.7174,5.7174,5.7174,5.7174,5.7282,5.7255,5.7228,5.7293,5.7312,5.695,5.6474,5.604,5.5697,5.5537,5.5771,5.5647,5.5647,5.5621,5.5308,5.5177,5.5255,5.5099,5.5099,5.5177,5.5308,5.5465,5.0715,5.1534,5.1596,5.1471,5.0954,5.0052,4.8976,4.8021,4.6543,4.5101,4.4135,4.3435,4.2835,4.2425,4.2275,4.2275,4.2339,4.2759,4.3389,4.4237,4.4706,4.5597,4.6594,4.6773,4.6773,4.6951,4.7743,4.8268,4.8815,4.9613,5.001,5.001,5.001,5.001,5.001,5.001,5.0118,5.0281,5.0688,5.1014,5.1285,5.2208,5.2316,5.1638,5.2262,5.2533,5.2154,5.2669,5.3185,5.3565,5.3592,5.3592,5.3592,5.3592,5.3531,5.3525,5.3877,5.3815,5.3457,5.3828,5.3974,5.3743,5.3976,5.4413,5.4981,5.5403,5.5907,5.6444,5.672,5.685,5.685,5.6915,5.685,5.6524,5.685,5.6979,5.7006,5.7136,5.7174,5.7174,5.7174,5.7174,5.7174,5.7174,5.7174,5.7174,5.7174,5.7174,5.7174,5.7174,5.7174,5.7174,5.7174,5.7174,5.7174,5.7174,5.7272,5.7266,5.7012,5.6747,5.6289,5.5961,5.5829,5.5642,5.552,5.5412,5.536,5.5282,5.5151,5.5099,5.5099,5.5125,5.5151,5.5334,5.5569,5.0715,5.1596,5.1596,5.1216,5.0632,4.9217,4.8008,4.6835,4.496,4.3796,4.3145,4.257,4.2275,4.2275,4.2275,4.2275,4.2275,4.2275,4.2759,4.3451,4.3553,4.4275,4.5354,4.5476,4.5814,4.6115,4.6534,4.7213,4.8152,4.8873,4.9529,4.9897,5.001,5.001,5.001,5.001,5.001,5.0091,5.058,5.1014,5.1394,5.2208,5.2343,5.1801,5.2343,5.2371,5.1936,5.2398,5.2995,5.3483,5.3592,5.3592,5.3592,5.3592,5.3592,5.3673,5.389,5.3972,5.37,5.4073,5.4426,5.4294,5.4583,5.506,5.566,5.603,5.6499,5.6834,5.7044,5.7174,5.7174,5.7174,5.7136,5.6942,5.7044,5.7174,5.7174,5.7174,5.7174,5.7174,5.7174,5.7174,5.7174,5.7174,5.7174,5.7174,5.7174,5.7174,5.7174,5.7174,5.7174,5.7174,5.7174,5.7174,5.7174,5.7174,5.7174,5.7163,5.7034,5.6877,5.6551,5.6355,5.6146,5.571,5.543,5.5296,5.5203,5.5177,5.5099,5.5099,5.5099,5.5099,5.5177,5.5569,5.5778,5.0563,5.1471,5.1596,5.0721,4.9292,4.8192,4.6621,4.4746,4.352,4.2857,4.2448,4.2339,4.2275,4.2275,4.2275,4.2275,4.2252,4.2224,4.2201,4.2328,4.2368,4.295,4.4027,4.4151,4.4682,4.5329,4.4951,4.5778,4.7717,4.8152,4.8758,4.9897,4.9813,4.984,4.9643,4.9813,4.9529,4.9553,5.0182,5.0694,5.1206,5.1966,5.2296,5.2247,5.2382,5.2301,5.2126,5.2533,5.3076,5.351,5.3592,5.3592,5.3592,5.3592,5.3592,5.3619,5.3646,5.37,5.3754,5.4162,5.4487,5.4569,5.5239,5.6251,5.6106,5.6431,5.6729,5.6946,5.7038,5.7119,5.7146,5.7174,5.7174,5.7174,5.7174,5.7174,5.7174,5.7174,5.7174,5.7174,5.7174,5.7174,5.7174,5.7174,5.7174,5.7174,5.7174,5.7174,5.7174,5.7174,5.7174,5.7174,5.7174,5.7174,5.7174,5.7174,5.7174,5.7174,5.7109,5.6979,5.6812,5.6524,5.6197,5.5736,5.5365,5.5165,5.5099,5.5099,5.5099,5.5099,5.5099,5.5099,5.5308,5.5674,5.5961,4.954,5.0525,5.1283,5.0695,4.9153,4.778,4.6202,4.4563,4.3131,4.2477,4.2339,4.2275,4.2275,4.2275,4.2275,4.2275,4.2224,4.1926,4.1765,4.1696,4.1374,4.1821,4.2643,4.2822,4.2965,4.338,4.3979,4.511,4.6654,4.76,4.8673,4.9897,4.9103,4.8616,4.85,4.8003,4.7593,4.7593,4.7983,4.8342,4.8655,4.9515,5.0026,5.0392,5.1163,5.1844,5.2415,5.3049,5.3402,5.3565,5.3592,5.3592,5.3592,5.3592,5.3592,5.3646,5.3972,5.4026,5.3809,5.4134,5.4433,5.4487,5.484,5.5166,5.5627,5.579,5.6088,5.6387,5.6549,5.6739,5.7065,5.7174,5.7174,5.7174,5.7174,5.7174,5.7174,5.7174,5.7174,5.7174,5.7174,5.7174,5.7174,5.7174,5.7174,5.7174,5.7174,5.7174,5.7174,5.7174,5.7174,5.7174,5.7174,5.7174,5.7174,5.7174,5.7174,5.7174,5.7174,5.7174,5.685,5.659,5.6132,5.567,5.5365,5.5099,5.5099,5.5099,5.5099,5.5099,5.5099,5.5125,5.5438,5.5778,5.6092,4.8893,4.945,4.9799,4.9305,4.8146,4.663,4.5363,4.4191,4.2899,4.2275,4.2275,4.2275,4.2275,4.2252,4.2109,4.2017,4.1948,4.1489,4.1397,4.1535,4.1306,4.1397,4.165,4.1633,4.1633,4.1804,4.2716,4.4159,4.5754,4.6882,4.7951,4.8815,4.8442,4.786,4.7247,4.6858,4.656,4.6815,4.7087,4.7419,4.7641,4.8445,4.8971,4.9377,5.0202,5.1154,5.2299,5.2944,5.332,5.351,5.3592,5.3592,5.3592,5.3592,5.3592,5.3619,5.3944,5.3944,5.3754,5.3944,5.4216,5.4406,5.4487,5.4813,5.5328,5.56,5.6007,5.6251,5.6495,5.6821,5.7065,5.7174,5.7174,5.7174,5.7174,5.7174,5.7174,5.7174,5.7174,5.7174,5.7174,5.7174,5.7174,5.7174,5.7174,5.7174,5.7174,5.7174,5.7174,5.7174,5.7174,5.7174,5.7174,5.7174,5.7174,5.7174,5.7174,5.7174,5.7174,5.7174,5.6979,5.6655,5.6197,5.5736,5.5365,5.5099,5.5099,5.5099,5.5099,5.5099,5.5099,5.5282,5.5621,5.6144,5.6405,4.8306,4.8322,4.7887,4.7283,4.6602,4.5309,4.4412,4.3522,4.2719,4.2275,4.2275,4.2275,4.227,4.2161,4.1811,4.1581,4.1466,4.0961,4.0961,4.1053,4.1053,4.0984,4.0686,4.0938,4.0984,4.103,4.1329,4.2875,4.4516,4.5545,4.651,4.7302,4.7503,4.6959,4.609,4.5814,4.596,4.6059,4.6395,4.6813,4.7096,4.7662,4.8089,4.8738,4.9698,5.0763,5.1839,5.252,5.2923,5.3565,5.3592,5.3592,5.3619,5.3619,5.3727,5.3809,5.3944,5.3972,5.3754,5.3836,5.3972,5.4379,5.4487,5.4758,5.5328,5.5762,5.6088,5.6278,5.6794,5.6984,5.7174,5.7174,5.7174,5.7174,5.7174,5.7174,5.7174,5.7174,5.7174,5.7174,5.7174,5.7174,5.7174,5.7174,5.7174,5.7174,5.7174,5.7174,5.7174,5.7174,5.7174,5.7174,5.7174,5.7174,5.7174,5.7174,5.7174,5.7174,5.7174,5.7174,5.7044,5.672,5.6328,5.5934,5.5498,5.5232,5.5099,5.5099,5.5099,5.5282,5.5386,5.5621,5.5909,5.6562,5.6981,4.6984,4.7293,4.7564,4.6899,4.571,4.4992,4.3923,4.2656,4.2379,4.2275,4.2275,4.2275,4.2109,4.1765,4.1627,4.1374,4.103,4.0571,4.0112,3.9767,3.979,3.9767,3.9859,4.0433,4.08,4.0823,4.0892,4.1878,4.3132,4.3815,4.4319,4.5725,4.535,4.4633,4.4657,4.4089,4.3553,4.3764,4.4357,4.4801,4.5022,4.5535,4.6374,4.7658,4.938,5.0887,5.1829,5.2148,5.2639,5.3322,5.3592,5.3592,5.3673,5.3999,5.4162,5.4243,5.4623,5.4704,5.4379,5.4243,5.4351,5.4487,5.4596,5.4731,5.5328,5.5545,5.5871,5.617,5.6441,5.6794,5.7119,5.7174,5.7174,5.7174,5.7174,5.7174,5.7174,5.7174,5.7174,5.7174,5.7174,5.7174,5.7174,5.7174,5.7174,5.7174,5.7174,5.7174,5.7174,5.7174,5.7174,5.7174,5.7174,5.7174,5.7174,5.7174,5.7174,5.7174,5.7174,5.7174,5.7044,5.6655,5.6263,5.5868,5.5498,5.5299,5.5099,5.5125,5.5125,5.5412,5.57,5.5961,5.6327,5.6981,5.7451,4.5939,4.5955,4.6016,4.5366,4.444,4.384,4.3159,4.2385,4.2275,4.2275,4.2275,4.2275,4.2178,4.1926,4.1673,4.1397,4.1191,4.0977,4.0525,4.0226,4.0272,4.0272,4.0066,4.041,4.064,4.0341,4.0892,4.1719,4.2508,4.3012,4.3808,4.4716,4.3881,4.3573,4.3357,4.2822,4.2759,4.2886,4.3137,4.3451,4.3811,4.4064,4.4975,4.6602,4.833,4.9685,5.0448,5.1695,5.2253,5.2834,5.3349,5.3592,5.3619,5.389,5.4053,5.4134,5.4324,5.4623,5.4433,5.4514,5.4596,5.4894,5.4894,5.5084,5.5437,5.5627,5.5925,5.6278,5.6549,5.6875,5.7146,5.7174,5.7174,5.7174,5.7174,5.7174,5.7174,5.7174,5.7174,5.7174,5.7174,5.7174,5.7174,5.7174,5.7174,5.7174,5.7174,5.7174,5.7174,5.7174,5.7174,5.7174,5.7174,5.7174,5.7174,5.7174,5.7174,5.7174,5.7174,5.7174,5.7109,5.6655,5.6132,5.5802,5.5538,5.5299,5.5099,5.5125,5.5203,5.5334,5.5647,5.6144,5.6667,5.7216,5.766,4.5185,4.4686,4.4278,4.3825,4.3305,4.2804,4.2522,4.2372,4.2298,4.2275,4.2275,4.2275,4.212,4.1983,4.1639,4.1496,4.142,4.1352,4.0938,4.0732,4.0961,4.0915,4.0778,4.08,4.0617,3.9767,4.0732,4.1728,4.2242,4.2819,4.3007,4.3631,4.3296,4.2776,4.2368,4.2247,4.2351,4.261,4.2822,4.3075,4.3514,4.3686,4.4412,4.5558,4.6907,4.8016,4.9135,5.0434,5.1695,5.2068,5.2895,5.341,5.3619,5.37,5.3727,5.3782,5.408,5.4297,5.446,5.4514,5.4704,5.5274,5.522,5.5383,5.56,5.598,5.6278,5.6549,5.6848,5.7119,5.7174,5.7174,5.7174,5.7174,5.7174,5.7174,5.7174,5.7174,5.7174,5.7174,5.7174,5.7174,5.7174,5.7174,5.7174,5.7174,5.7174,5.7174,5.7174,5.7201,5.7201,5.7174,5.7174,5.7174,5.7174,5.7174,5.7174,5.7174,5.7174,5.7109,5.7163,5.6831,5.6371,5.5961,5.567,5.5325,5.5229,5.5308,5.536,5.5334,5.5909,5.6745,5.719,5.7477,5.7869,4.4791,4.4366,4.4143,4.3804,4.3399,4.2766,4.2467,4.2438,4.2331,4.2275,4.2275,4.1998,4.1729,4.1393,4.1234,4.1126,4.109,4.1129,4.1014,4.0877,4.1099,4.103,4.1076,4.1214,4.1053,4.0755,4.0961,4.1145,4.126,4.1222,4.1932,4.1971,4.1692,4.1591,4.2143,4.1994,4.204,4.242,4.2656,4.2886,4.3075,4.331,4.3828,4.4728,4.5899,4.6875,4.7872,4.8992,5.0308,5.1882,5.2253,5.2773,5.322,5.3815,5.4039,5.427,5.4514,5.4596,5.4514,5.4487,5.4514,5.4623,5.4813,5.5328,5.5898,5.6278,5.6549,5.6848,5.7011,5.7146,5.7174,5.7174,5.7174,5.7174,5.7174,5.7174,5.7174,5.7174,5.7174,5.7174,5.7174,5.7174,5.7174,5.7174,5.7174,5.7174,5.7174,5.7174,5.7174,5.7228,5.7255,5.7228,5.7174,5.7174,5.7174,5.7174,5.7174,5.7174,5.7174,5.7006,5.7012,5.6968,5.6664,5.6187,5.5842,5.5494,5.5438,5.5595,5.5857,5.6066,5.6771,5.7477,5.766,5.7843,5.8104,4.4664,4.3974,4.3844,4.3599,4.3173,4.2862,4.2613,4.2489,4.2434,4.2248,4.2066,4.187,4.1565,4.132,4.1212,4.1244,4.1314,4.1331,4.1416,4.1542,4.1542,4.1604,4.145,4.1627,4.1627,4.1489,4.1374,4.1191,4.1214,4.1299,4.1489,4.1742,4.1466,4.1604,4.2132,4.2155,4.2109,4.2316,4.2466,4.2633,4.2783,4.3035,4.3542,4.4736,4.5089,4.5859,4.6999,4.7955,4.8998,5.0028,5.0727,5.1382,5.1924,5.2368,5.2953,5.3862,5.429,5.4569,5.4487,5.4514,5.4758,5.5383,5.5383,5.5844,5.6468,5.6794,5.6875,5.7011,5.6821,5.6875,5.7146,5.7174,5.7174,5.7174,5.7174,5.7174,5.7174,5.7174,5.7174,5.7174,5.7174,5.7174,5.7174,5.7174,5.7174,5.7174,5.7174,5.7201,5.7228,5.7282,5.7336,5.7228,5.7174,5.7174,5.7174,5.7174,5.7174,5.7174,5.7152,5.705,5.6977,5.7023,5.6811,5.6412,5.6051,5.5961,5.604,5.6327,5.6562,5.6798,5.7242,5.766,5.7948,5.8209,5.8418,4.4423,4.358,4.3628,4.3407,4.2985,4.2899,4.2772,4.2589,4.2449,4.2198,4.1859,4.1659,4.1421,4.1229,4.1229,4.1335,4.1678,4.1633,4.1738,4.1843,4.1906,4.2038,4.1947,4.1891,4.1708,4.1645,4.1696,4.1627,4.1719,4.1742,4.1971,4.204,4.1811,4.1834,4.2201,4.2132,4.2247,4.2316,4.2339,4.2466,4.2719,4.2945,4.3491,4.494,4.4673,4.5089,4.5908,4.704,4.7887,4.8632,4.9192,4.9836,5.0308,5.0397,5.1257,5.2773,5.32,5.368,5.4134,5.446,5.4813,5.5437,5.5952,5.6387,5.6821,5.6956,5.7146,5.7092,5.6875,5.6712,5.7119,5.7174,5.7174,5.7174,5.7174,5.7174,5.7174,5.7174,5.7174,5.7174,5.7174,5.7174,5.7174,5.7174,5.7174,5.7174,5.7174,5.7445,5.7472,5.7445,5.7445,5.7255,5.7174,5.7174,5.7174,5.7174,5.7174,5.7174,5.7223,5.7189,5.7141,5.7104,5.6943,5.6897,5.7125,5.7137,5.7111,5.6954,5.7085,5.7268,5.7556,5.7869,5.8183,5.8269,5.84,4.4017,4.3302,4.358,4.3467,4.3127,4.3007,4.2901,4.2793,4.2281,4.2032,4.192,4.13,4.0971,4.0841,4.0841,4.1035,4.1293,4.1357,4.1444,4.1572,4.1508,4.1572,4.1486,4.1719,4.1506,4.1438,4.1485,4.1857,4.1977,4.2069,4.2178,4.2155,4.1926,4.1834,4.227,4.2063,4.1926,4.2247,4.2275,4.2466,4.2789,4.2921,4.3101,4.3618,4.424,4.4844,4.4957,4.5955,4.6841,4.7773,4.806,4.8673,4.9386,4.9643,5.0384,5.1393,5.2103,5.2677,5.3619,5.4243,5.465,5.5166,5.541,5.5817,5.6468,5.6902,5.7092,5.7174,5.7038,5.7038,5.7119,5.7174,5.7174,5.7174,5.7174,5.7174,5.7174,5.7174,5.7174,5.7174,5.7174,5.7174,5.7174,5.7174,5.7174,5.7174,5.7255,5.7499,5.7635,5.7581,5.7635,5.7499,5.7228,5.7174,5.7309,5.7282,5.7326,5.7272,5.7401,5.7368,5.7304,5.7315,5.7583,5.7676,5.7913,5.7843,5.7477,5.7373,5.7503,5.7712,5.7974,5.8209,5.8444,5.8452,5.8284,4.3521,4.3254,4.3372,4.3302,4.3232,4.313,4.3005,4.2834,4.2371,4.2127,4.1971,4.1152,4.0712,4.0648,4.0517,4.0712,4.0971,4.1057,4.1187,4.1251,4.1251,4.1293,4.1226,4.1174,4.099,4.1167,4.1072,4.1226,4.1602,4.1828,4.1903,4.1948,4.1994,4.2109,4.2275,4.2109,4.2155,4.2293,4.2362,4.2563,4.2788,4.2816,4.3046,4.3729,4.4002,4.4186,4.4622,4.4642,4.5392,4.6172,4.6357,4.6788,4.7485,4.7821,4.8281,4.9361,4.9618,5.1134,5.3589,5.4229,5.4635,5.5383,5.5762,5.6224,5.6631,5.6739,5.6902,5.7174,5.6848,5.6848,5.7119,5.7174,5.7174,5.7174,5.7174,5.7174,5.7174,5.7174,5.7174,5.7174,5.7174,5.7174,5.7174,5.7174,5.7282,5.7445,5.7391,5.7445,5.7553,5.7526,5.7635,5.777,5.7472,5.7174,5.7363,5.7472,5.7547,5.759,5.789,5.7826,5.7515,5.7504,5.7877,5.8009,5.8122,5.7974,5.7712,5.7843,5.8026,5.8183,5.834,5.8373,5.8452,5.8141,5.7999,4.3184,4.3184,4.3184,4.3184,4.3184,4.3184,4.3105,4.2894,4.2278,4.2102,4.2059,4.1441,4.0913,4.0716,4.0738,4.0848,4.0846,4.0824,4.093,4.1037,4.1057,4.0993,4.0904,4.0701,4.0762,4.1008,4.071,4.0706,4.0878,4.1176,4.1422,4.1616,4.1942,4.2166,4.2252,4.2229,4.2316,4.2275,4.25,4.2729,4.2959,4.2867,4.3418,4.3808,4.3923,4.3808,4.4405,4.4564,4.481,4.5152,4.5425,4.5812,4.6224,4.6405,4.6984,4.7821,4.8216,4.9611,5.2007,5.3376,5.4413,5.5347,5.6431,5.6685,5.6984,5.6739,5.6631,5.7146,5.6902,5.6902,5.7065,5.7174,5.7174,5.7174,5.7174,5.7174,5.7174,5.7174,5.7174,5.7174,5.7174,5.7174,5.7174,5.7174,5.7336,5.7635,5.7635,5.7526,5.7499,5.7553,5.7743,5.796,5.7825,5.7553,5.7662,5.7759,5.7806,5.7838,5.8161,5.8185,5.7868,5.7841,5.8105,5.8227,5.8287,5.8261,5.8131,5.834,5.8523,5.847,5.8444,5.84,5.8284,5.7927,5.7641,4.3184,4.3184,4.3184,4.3184,4.3184,4.3184,4.3211,4.3035,4.216,4.2029,4.2204,4.1876,4.1591,4.1503,4.1393,4.124,4.1023,4.1023,4.0826,4.0563,4.0409,4.0496,4.0517,4.0646,4.0576,4.0376,4.037,4.0252,4.0155,4.0625,4.1099,4.1715,4.1851,4.202,4.2194,4.2221,4.2331,4.2399,4.2605,4.2875,4.3104,4.3242,4.3608,4.3857,4.4201,4.4543,4.4635,4.4773,4.5024,4.5206,4.5206,4.5321,4.5572,4.5619,4.6271,4.6917,4.7226,4.8436,5.0027,5.1639,5.2556,5.3868,5.5419,5.6892,5.7082,5.7174,5.7174,5.7146,5.7011,5.7065,5.7146,5.7174,5.7174,5.7174,5.7174,5.7174,5.7174,5.7174,5.7174,5.7174,5.7201,5.7228,5.7391,5.7445,5.7445,5.7781,5.796,5.7852,5.7743,5.777,5.7988,5.815,5.8123,5.8069,5.803,5.8142,5.8227,5.816,5.8236,5.8297,5.8164,5.8324,5.8376,5.8384,5.8418,5.8497,5.8523,5.8523,5.8523,5.8523,5.8452,5.8381,5.7953,5.7523,5.7235,4.3425,4.3184,4.3184,4.3184,4.3184,4.3184,4.3184,4.3075,4.2442,4.2027,4.2005,4.2049,4.1983,4.1786,4.1677,4.1612,4.1393,4.1109,4.0891,4.0672,4.0476,4.0476,4.0563,4.0563,4.0496,4.0474,4.0515,4.0316,4.0228,4.0314,4.064,4.1122,4.1649,4.1936,4.2088,4.2153,4.2289,4.2447,4.2515,4.256,4.2899,4.3035,4.3306,4.3668,4.3617,4.4003,4.4162,4.4295,4.4612,4.4819,4.4933,4.5117,4.5392,4.5415,4.5686,4.6204,4.6315,4.6768,4.7786,4.9603,5.162,5.3505,5.5241,5.6445,5.6677,5.7044,5.7174,5.7174,5.7174,5.7109,5.7174,5.7174,5.7174,5.7174,5.7201,5.7255,5.7228,5.7228,5.7201,5.7201,5.7282,5.7336,5.7553,5.777,5.777,5.789,5.8042,5.8205,5.8096,5.8123,5.8395,5.8545,5.8545,5.8346,5.8334,5.8456,5.8629,5.8476,5.8318,5.8375,5.8377,5.842,5.8444,5.8497,5.8523,5.8523,5.8523,5.8523,5.8523,5.8523,5.8381,5.8239,5.7739,5.7214,5.7026,4.3599,4.3206,4.3184,4.3184,4.3184,4.3184,4.3184,4.3097,4.2638,4.2245,4.1939,4.2398,4.2485,4.2201,4.2158,4.2027,4.1852,4.1481,4.1175,4.0869,4.0585,4.0541,4.0563,4.0585,4.0454,4.0651,4.052,4.0301,4.0235,4.0323,4.0453,4.0824,4.144,4.1881,4.2055,4.2168,4.2369,4.2504,4.2616,4.2548,4.2973,4.3018,4.3265,4.3669,4.3736,4.3893,4.4277,4.4525,4.4681,4.4841,4.4956,4.5048,4.53,4.5438,4.5438,4.5438,4.5438,4.5461,4.6209,4.7954,5.0522,5.1981,5.4092,5.5114,5.5797,5.639,5.6785,5.6979,5.7044,5.7071,5.7136,5.7174,5.7174,5.7201,5.7526,5.7581,5.7418,5.7363,5.7282,5.7228,5.7391,5.7662,5.7906,5.815,5.8329,5.8367,5.8449,5.8585,5.8557,5.8639,5.8844,5.8966,5.8968,5.8766,5.8563,5.8693,5.8807,5.8414,5.8375,5.8464,5.856,5.8523,5.8523,5.8523,5.8523,5.8523,5.8523,5.8549,5.8549,5.8523,5.8291,5.8011,5.7713,5.7232,5.7139,4.3621,4.3206,4.3184,4.3184,4.3184,4.3184,4.3184,4.3119,4.2704,4.2464,4.2464,4.29,4.3097,4.301,4.29,4.2704,4.2354,4.1918,4.1524,4.1175,4.0694,4.0432,4.041,4.0432,4.0388,4.0323,4.0279,4.0344,4.0344,4.0344,4.0344,4.0694,4.1374,4.1993,4.2058,4.2459,4.2683,4.2772,4.313,4.3219,4.3285,4.3307,4.3575,4.3777,4.3871,4.4007,4.4346,4.4687,4.4891,4.4959,4.5005,4.5142,4.5256,4.537,4.5461,4.5461,4.5553,4.5553,4.5666,4.7373,4.8894,5.0315,5.2495,5.3841,5.4209,5.5116,5.6328,5.659,5.6655,5.6904,5.7006,5.7163,5.7152,5.7396,5.771,5.7818,5.759,5.7536,5.747,5.7443,5.7775,5.8096,5.834,5.8518,5.8804,5.8979,5.8992,5.8992,5.8925,5.8995,5.9183,5.9223,5.9317,5.9112,5.8891,5.8971,5.892,5.8543,5.8377,5.8507,5.8594,5.8523,5.8523,5.8523,5.8653,5.8784,5.8706,5.8575,5.8668,5.8713,5.8048,5.7691,5.7483,5.7417,5.7346,4.4058,4.3692,4.3316,4.3184,4.3184,4.3184,4.3184,4.3163,4.2988,4.2922,4.2944,4.3141,4.3184,4.3184,4.3184,4.3053,4.2857,4.242,4.2005,4.1852,4.1109,4.1066,4.0956,4.0585,4.0454,4.0585,4.052,4.0279,4.0344,4.0323,4.0541,4.0891,4.1634,4.236,4.2584,4.2762,4.263,4.2894,4.2938,4.2894,4.3225,4.3338,4.3404,4.365,4.3727,4.3978,4.4181,4.4548,4.48,4.4754,4.4754,4.4823,4.5028,4.5211,4.5553,4.5875,4.6058,4.6357,4.6449,4.7283,4.8003,4.949,5.0944,5.2599,5.3695,5.4504,5.5419,5.6092,5.6343,5.6608,5.6941,5.7022,5.7182,5.7545,5.7839,5.7812,5.7665,5.7759,5.7692,5.7692,5.7906,5.8241,5.8577,5.8833,5.9196,5.9209,5.9223,5.9183,5.9183,5.9314,5.9483,5.9483,5.9494,5.9286,5.9183,5.9008,5.8876,5.8525,5.8402,5.8489,5.8523,5.8627,5.8653,5.8758,5.8915,5.9072,5.9078,5.9039,5.9035,5.8873,5.8382,5.8063,5.797,5.7899,5.7725,4.4298,4.3818,4.3381,4.3184,4.3184,4.3184,4.3184,4.3184,4.3184,4.3184,4.3184,4.3184,4.3184,4.3184,4.3184,4.3184,4.3119,4.266,4.2398,4.2289,4.1437,4.1219,4.1022,4.0782,4.0629,4.0738,4.0585,4.0323,4.0563,4.0541,4.0913,4.1546,4.2114,4.2573,4.2904,4.2926,4.2882,4.3035,4.3017,4.2926,4.3123,4.3211,4.3232,4.3368,4.3599,4.3919,4.3947,4.4086,4.443,4.4362,4.4364,4.4411,4.4706,4.5115,4.5479,4.5847,4.6261,4.6674,4.6834,4.7115,4.7934,4.8944,5.0065,5.1333,5.2775,5.3563,5.495,5.5749,5.6134,5.6638,5.7104,5.7183,5.7396,5.7754,5.8035,5.8008,5.7875,5.7875,5.7955,5.7955,5.8047,5.8461,5.8807,5.9142,5.952,5.9424,5.9371,5.9376,5.9284,5.9424,5.9438,5.9412,5.9342,5.9149,5.8982,5.8824,5.8664,5.8523,5.8601,5.8706,5.8836,5.8993,5.8967,5.9045,5.9411,5.96,5.9513,5.945,5.9392,5.9278,5.8982,5.8706,5.858,5.8404,5.8177,4.4298,4.3889,4.3381,4.3184,4.3184,4.3184,4.3184,4.3184,4.3184,4.3184,4.3184,4.3184,4.3184,4.3184,4.3184,4.3184,4.3141,4.2682,4.2573,4.2289,4.1699,4.1393,4.1066,4.076,4.0716,4.0716,4.0629,4.0563,4.0913,4.1022,4.1481,4.2136,4.2442,4.2813,4.3032,4.3119,4.3097,4.3119,4.3119,4.3075,4.3184,4.3184,4.3184,4.3412,4.3771,4.3933,4.4096,4.4324,4.4489,4.4403,4.4271,4.4249,4.4474,4.4788,4.4945,4.5329,4.611,4.6589,4.6978,4.7284,4.7611,4.8269,4.8896,4.988,5.1112,5.2591,5.4185,5.5471,5.6194,5.698,5.7554,5.766,5.7739,5.8085,5.835,5.827,5.8085,5.8085,5.8191,5.8297,5.8361,5.8652,5.8954,5.9342,5.9298,5.9245,5.9069,5.9139,5.9103,5.92,5.9228,5.9088,5.9017,5.8876,5.8761,5.8769,5.89,5.8836,5.8967,5.9072,5.9228,5.9411,5.949,5.9673,5.9966,6.018,6.0194,5.9982,5.9739,5.9515,5.9313,5.916,5.8882,5.8882,5.878,4.4298,4.3818,4.3381,4.3184,4.3184,4.3184,4.3184,4.3184,4.3184,4.3184,4.3184,4.3184,4.3184,4.3184,4.3184,4.3184,4.3119,4.3053,4.2988,4.2638,4.2068,4.1808,4.1503,4.113,4.0956,4.0716,4.0585,4.0585,4.065,4.1044,4.1675,4.2333,4.2657,4.294,4.3049,4.3184,4.3184,4.3184,4.3184,4.3184,4.3184,4.3184,4.3184,4.3364,4.3828,4.3921,4.4057,4.448,4.4507,4.4176,4.4017,4.4088,4.4413,4.4857,4.5328,4.6513,4.6883,4.6995,4.7108,4.7276,4.7417,4.7676,4.8026,4.9034,5.0316,5.1824,5.3432,5.4937,5.6337,5.7167,5.7699,5.7857,5.8016,5.8253,5.8464,5.8411,5.8253,5.8279,5.8358,5.8385,5.8543,5.8595,5.8991,5.8947,5.8876,5.8779,5.8779,5.8806,5.8876,5.8947,5.8947,5.8806,5.8892,5.8919,5.8953,5.896,5.9117,5.9176,5.9333,5.9542,5.983,6.0013,6.0091,6.0227,6.0419,6.0687,6.0927,6.0605,5.9922,5.9845,5.964,5.9486,5.9307,5.9207,5.9156,4.3695,4.3392,4.2938,4.2743,4.2743,4.2743,4.2743,4.2813,4.3023,4.3184,4.3184,4.3184,4.3184,4.3184,4.3184,4.3184,4.3184,4.3141,4.3049,4.2736,4.2323,4.1665,4.1294,4.0969,4.0448,4.0299,4.0234,4.0102,4.0342,4.0883,4.1507,4.2219,4.2656,4.27,4.2673,4.2673,4.2673,4.2813,4.2953,4.3184,4.3184,4.3184,4.3184,4.3337,4.3774,4.4014,4.4014,4.4495,4.4561,4.4233,4.4146,4.4288,4.4519,4.4986,4.5565,4.6448,4.6802,4.6802,4.692,4.7163,4.7186,4.7259,4.7428,4.7968,4.941,5.1056,5.2932,5.4689,5.6201,5.7416,5.7756,5.8026,5.8235,5.8444,5.847,5.8497,5.847,5.847,5.847,5.847,5.847,5.8541,5.8523,5.8523,5.8523,5.8594,5.8594,5.8664,5.8664,5.8664,5.8735,5.8664,5.8829,5.9012,5.9072,5.9281,5.9542,5.9725,5.9803,6.0065,6.0405,6.0566,6.0645,6.0732,6.0795,6.0956,6.0886,6.0482,6.0023,5.9894,5.974,5.9535,5.9408,5.9408,5.9382,4.2699,4.2614,4.2188,4.2089,4.2018,4.2018,4.2089,4.2089,4.2743,4.3093,4.3023,4.3115,4.3023,4.2953,4.2975,4.2953,4.2883,4.2883,4.2743,4.2559,4.1977,4.1388,4.0775,3.9933,4.0177,3.9872,3.9744,3.992,4.0128,4.0707,4.1348,4.1975,4.2067,4.2159,4.2229,4.2229,4.2272,4.2493,4.2753,4.3035,4.3018,4.3066,4.318,4.3284,4.385,4.4373,4.4242,4.4525,4.5055,4.475,4.4503,4.4503,4.4728,4.5107,4.5683,4.5976,4.6426,4.6522,4.6596,4.6743,4.6891,4.7038,4.7112,4.7259,4.8419,5.041,5.2353,5.3889,5.5219,5.6843,5.7468,5.8023,5.8418,5.8284,5.8141,5.8284,5.8452,5.8523,5.8523,5.8523,5.8523,5.8523,5.8523,5.8523,5.8523,5.8523,5.8523,5.8523,5.8706,5.8706,5.8687,5.8758,5.9124,5.9437,5.9594,5.983,6.0143,6.0326,6.0405,6.0666,6.1058,6.1167,6.1148,6.0979,6.0782,6.0607,6.0406,6.0125,5.9894,5.974,5.9585,5.9585,5.9508,5.9533,5.9508,4.2507,4.2167,4.2061,4.2018,4.2018,4.2018,4.2018,4.2018,4.2159,4.23,4.23,4.23,4.23,4.237,4.237,4.237,4.237,4.2441,4.2229,4.2138,4.1753,4.13,4.1077,4.052,4.0333,4.0018,3.9869,3.9862,4.0329,4.0795,4.131,4.1862,4.1947,4.1877,4.1877,4.1877,4.2046,4.228,4.26,4.2685,4.2493,4.2707,4.2878,4.3135,4.3628,4.4172,4.4258,4.4527,4.4592,4.4282,4.4218,4.4344,4.4638,4.5366,4.5775,4.598,4.6077,4.6151,4.6225,4.6299,4.6374,4.6448,4.6522,4.667,4.7653,4.9766,5.1507,5.2841,5.4299,5.5933,5.7251,5.7901,5.8284,5.7999,5.7687,5.7999,5.8284,5.8426,5.8452,5.8523,5.8523,5.8452,5.8452,5.8452,5.8523,5.8523,5.8523,5.8627,5.8974,5.913,5.9287,5.9365,5.9751,6.0039,6.0169,6.0431,6.0771,6.1032,6.1088,6.1424,6.1685,6.1386,6.1059,6.0811,6.0558,6.0355,6.0099,5.9792,5.9637,5.9508,5.9633,5.9684,5.9684,5.9684,5.9583,4.1754,4.1523,4.1523,4.1523,4.1523,4.1523,4.1502,4.1523,4.1523,4.1502,4.1594,4.1806,4.2018,4.2018,4.2018,4.1947,4.1947,4.2018,4.1947,4.1785,4.1545,4.1088,4.092,4.073,4.0171,3.9752,3.9752,3.9941,4.0429,4.0612,4.0969,4.1439,4.1523,4.1523,4.1544,4.1691,4.1922,4.2195,4.2406,4.2364,4.2183,4.2602,4.2967,4.3294,4.3583,4.4008,4.4294,4.455,4.4613,4.4507,4.4443,4.4518,4.4763,4.5084,4.5512,4.563,4.5779,4.5779,4.595,4.5928,4.595,4.612,4.6173,4.6396,4.6858,4.8815,5.0452,5.184,5.3495,5.5139,5.6482,5.7328,5.6968,5.658,5.6507,5.6653,5.74,5.7901,5.8212,5.8523,5.8284,5.7927,5.783,5.7687,5.7856,5.8414,5.8388,5.8459,5.8874,5.905,5.9325,5.9752,5.9964,6.0441,6.0692,6.1006,6.1424,6.1659,6.1614,6.1415,6.1215,6.1141,6.0965,6.0584,6.0278,6.0125,5.9869,5.9637,5.956,5.9508,5.9709,5.991,5.991,6.001,6.0161,4.0954,4.0882,4.0882,4.0882,4.0882,4.0882,4.0954,4.0954,4.0954,4.0954,4.1025,4.1573,4.1785,4.1855,4.1877,4.1877,4.1806,4.1664,4.1594,4.1368,4.1045,4.0912,4.0493,4.0,3.9751,3.9737,3.9647,3.9875,4.0277,4.0485,4.0713,4.0891,4.0882,4.0903,4.1069,4.1389,4.1752,4.2084,4.2313,4.2447,4.2668,4.3036,4.3162,4.3457,4.3785,4.3965,4.4134,4.4304,4.4633,4.4697,4.4621,4.4845,4.4985,4.5242,4.5244,4.5513,4.5524,4.5675,4.576,4.5844,4.594,4.6015,4.6015,4.6308,4.6767,4.7822,4.9449,5.0937,5.2668,5.4052,5.5459,5.607,5.5606,5.5459,5.5459,5.5385,5.6264,5.7159,5.7615,5.807,5.783,5.74,5.687,5.6725,5.7142,5.7749,5.7981,5.8243,5.8334,5.825,5.8379,5.9133,5.979,6.0268,6.0918,6.1275,6.164,6.1365,6.1266,6.1015,6.0813,6.0737,6.0508,6.0201,5.9894,5.9817,5.974,5.9585,5.9508,5.9608,5.9859,6.0161,6.0487,6.0638,6.0989,4.0882,4.0882,4.0882,4.0882,4.0882,4.0882,4.0882,4.0882,4.0882,4.0882,4.0954,4.0954,4.1096,4.1167,4.1096,4.1167,4.131,4.1239,4.1167,4.0963,4.093,4.0859,4.0593,4.0261,3.9909,3.9847,3.9951,4.0067,4.0365,4.0613,4.0758,4.0862,4.0903,4.1069,4.1421,4.1669,4.1959,4.2331,4.2683,4.289,4.3077,4.3165,4.2978,4.3198,4.3448,4.3635,4.376,4.378,4.3822,4.4002,4.4503,4.4971,4.5237,4.5433,4.5516,4.5316,4.5349,4.5501,4.5588,4.5642,4.5718,4.6193,4.629,4.6507,4.704,4.7597,4.8991,5.0003,5.1476,5.2622,5.3801,5.4076,5.3927,5.4398,5.4547,5.4324,5.4646,5.5532,5.6264,5.6653,5.6823,5.6022,5.4992,5.509,5.5584,5.5881,5.5705,5.6073,5.6993,5.7207,5.7369,5.834,5.9233,6.0303,6.1012,6.116,6.1292,6.1091,6.0889,6.0584,6.0431,6.0278,6.0048,5.9817,5.974,5.9663,5.9508,5.9558,5.9784,5.9935,6.0111,6.0387,6.0814,6.124,6.1592]}]]